[[{"header":{"parameterUnit":"m.s-1","parameterCategory":1,"la1":31.0,"la2":29.5877,"lo1":-88.7671,"lo2":-86.6584,"dy":0.0162,"dx":0.0185,"nx":115,"ny":88,"refTime":"2026-04-30T00:00:00:Z","depth":0,"parameterNumber":2,"parameterNumberName":"U-component_of_WINDS"},"data":[0.0,0.0,0.0,0.0,0.0,0.0,0.0,0.0,0.0,0.0,0.0,0.0,0.0,0.0,0.0,0.0,0.0,0.0,0.0,0.0,0.0,0.0,0.0,0.0,0.0,0.0,0.0,0.0,0.0,0.0,0.0,0.0,0.0,0.0,0.0,0.0,0.0,0.0,0.0,0.0,0.0,0.0,0.0,0.0,0.0,0.0,0.0,0.0,0.0,0.0,0.0,0.0,0.0,0.0,0.0,0.0,0.0,0.0,0.0,0.0,0.0,0.0,0.0,0.0,0.0,0.0,0.0,0.0,0.0,0.0,0.0,0.0,0.0,0.0,0.0,0.0,0.0,0.0,0.0,0.0,0.0,0.0,0.0,0.0,0.0,0.0,0.0,0.0,0.0,0.0,0.0,0.0,0.0,0.0,0.0,0.0,0.0,0.0,0.0,0.0,0.0,0.0,0.0,0.0,0.0,0.0,0.0,0.0,0.0,0.0,0.0,0.0,0.0,0.0,0.0,0.0,0.0,0.0,0.0,0.0,0.0,0.0,0.0,0.0,0.0,0.0,0.0,0.0,0.0,0.0,0.0,0.0,0.0,0.0,0.0,0.0,0.0,0.0,0.0,0.0,0.0,0.0,0.0,0.0,0.0,0.0,0.0,0.0,0.0,0.0,0.0,0.0,0.0,0.0,0.0,0.0,0.0,0.0,0.0,0.0,0.0,0.0,0.0,0.0,0.0,0.0,0.0,0.0,0.0,0.0,0.0,0.0,0.0,0.0,0.0,0.0,0.0,0.0,0.0,0.0,0.0,0.0,0.0,0.0,0.0,0.0,0.0,0.0,0.0,0.0,0.0,0.0,0.0,0.0,0.0,0.0,0.0,0.0,0.0,0.0,0.0,0.0,0.0,0.0,0.0,0.0,0.0,0.0,0.0,0.0,0.0,0.0,0.0,0.0,0.0,0.0,0.0,0.0,0.0,0.0,0.0,0.0,0.0,0.0,0.0,0.0,0.0,0.0,0.0,0.0,0.0,0.0,0.0,0.0,0.0,0.0,0.0,0.0,0.0,0.0,0.0,0.0,0.0,0.0,0.0,0.0,0.0,0.0,0.0,0.0,0.0,0.0,0.0,0.0,0.0,0.0,0.0,0.0,0.0,0.0,0.0,0.0,0.0,0.0,0.0,0.0,0.0,0.0,0.0,0.0,0.0,0.0,0.0,0.0,0.0,0.0,0.0,0.0,0.0,0.0,0.0,0.0,0.0,0.0,0.0,0.0,0.0,0.0,0.0,0.0,0.0,0.0,0.0,0.0,0.0,0.0,0.0,0.0,0.0,0.0,0.0,0.0,0.0,0.0,0.0,0.0,0.0,0.0,0.0,0.0,0.0,0.0,0.0,0.0,0.0,0.0,0.0,0.0,0.0,0.0,0.0,0.0,0.0,0.0,0.0,0.0,0.0,0.0,0.0,0.0,0.0,0.0,0.0,0.0,0.0,0.0,0.0,0.0,0.0,0.0,0.0,0.0,0.0,0.0,0.0,0.0,0.0,0.0,0.0,0.0,0.0,0.0,0.0,0.0,0.0,0.0,0.0,0.0,0.0,0.0,0.0,0.0,0.0,0.0,0.0,0.0,0.0,0.0,0.0,0.0,0.0,0.0,0.0,0.0,0.0,0.0,0.0,0.0,0.0,0.0,0.0,0.0,0.0,0.0,0.0,0.0,0.0,0.0,0.0,0.0,0.0,0.0,0.0,0.0,0.0,0.0,0.0,0.0,0.0,0.0,0.0,0.0,0.0,0.0,0.0,0.0,0.0,0.0,0.0,0.0,0.0,0.0,0.0,0.0,0.0,0.0,0.0,0.0,0.0,0.0,0.0,0.0,0.0,0.0,0.0,0.0,0.0,0.0,0.0,0.0,0.0,0.0,0.0,0.0,0.0,0.0,0.0,0.0,0.0,0.0,0.0,0.0,0.0,0.0,0.0,0.0,0.0,0.0,0.0,0.0,0.0,0.0,0.0,0.0,0.0,0.0,0.0,0.0,0.0,0.0,0.0,0.0,0.0,0.0,0.0,0.0,0.0,0.0,0.0,0.0,0.0,0.0,0.0,0.0,0.0,0.0,0.0,0.0,0.0,0.0,0.0,0.0,0.0,0.0,0.0,0.0,0.0,0.0,0.0,0.0,0.0,0.0,0.0,0.0,0.0,0.0,0.0,0.0,0.0,0.0,0.0,0.0,0.0,0.0,0.0,0.0,0.0,0.0,0.0,0.0,0.0,0.0,0.0,0.0,0.0,0.0,0.0,0.0,0.0,0.0,0.0,0.0,0.0,0.0,0.0,0.0,0.0,0.0,0.0,0.0,0.0,0.0,0.0,0.0,0.0,0.0,0.0,0.0,0.0,0.0,0.0,0.0,0.0,0.0,0.0,0.0,0.0,0.0,0.0,0.0,0.0,0.0,0.0,0.0,0.0,0.0,0.0,0.0,0.0,0.0,0.0,0.0,0.0,0.0,0.0,0.0,0.0,0.0,0.0,0.0,0.0,0.0,0.0,0.0,0.0,0.0,0.0,0.0,0.0,0.0,0.0,0.0,0.0,0.0,0.0,0.0,0.0,0.0,0.0,0.0,0.0,0.0,0.0,0.0,0.0,0.0,0.0,0.0,0.0,0.0,0.0,0.0,0.0,0.0,0.0,0.0,0.0,0.0,0.0,0.0,0.0,0.0,0.0,0.0,0.0,0.0,0.0,0.0,0.0,0.0,0.0,0.0,0.0,0.0,0.0,0.0,0.0,0.0,0.0,0.0,0.0,0.0,0.0,0.0,0.0,0.0,0.0,0.0,0.0,0.0,0.0,0.0,0.0,0.0,0.0,0.0,0.0,0.0,0.0,0.0,0.0,0.0,0.0,0.0,0.0,0.0,0.0,0.0,0.0,0.0,0.0,0.0,0.0,0.0,0.0,0.0,0.0,0.0,0.0,0.0,0.0,0.0,0.0,0.0,0.0,0.0,0.0,0.0,0.0,0.0,0.0,0.0,0.0,0.0,0.0,0.0,0.0,0.0,0.0,0.0,0.0,0.0,0.0,0.0,0.0,0.0,0.0,0.0,0.0,0.0,0.0,0.0,0.0,0.0,0.0,0.0,0.0,0.0,0.0,0.0,0.0,0.0,0.0,0.0,0.0,0.0,0.0,0.0,0.0,0.0,0.0,0.0,0.0,0.0,0.0,0.0,0.0,0.0,0.0,0.0,0.0,0.0,0.0,0.0,0.0,0.0,0.0,0.0,0.0,0.0,0.0,0.0,0.0,0.0,0.0,0.0,0.0,0.0,0.0,0.0,0.0,0.0,0.0,0.0,0.0,0.0,0.0,0.0,0.0,0.0,0.0,0.0,0.0,0.0,0.0,0.0,0.0,0.0,0.0,0.0,0.0,0.0,0.0,0.0,0.0,0.0,0.0,0.0,0.0,0.0,0.0,0.0,0.0,0.0,0.0,0.0,0.0,0.0,0.0,0.0,0.0,0.0,0.0,0.0,0.0,0.0,0.0,0.0,0.0,0.0,0.0,0.0,0.0,0.0,0.0,0.0,0.0,0.0,0.0,0.0,0.0,0.0,0.0,0.0,0.0,0.0,0.0,0.0,0.0,0.0,0.0,0.0,0.0,0.0,0.0,0.0,0.0,0.0,0.0,0.0,0.0,0.0,0.0,0.0,0.0,0.0,0.0,0.0,0.0,0.0,0.0,0.0,0.0,0.0,0.0,0.0,0.0,0.0,0.0,0.0,0.0,0.0,0.0,0.0,0.0,0.0,0.0,0.0,0.0,0.0,0.0,0.0,0.0,0.0,0.0,0.0,0.0,0.0,0.0,0.0,0.0,0.0,0.0,0.0,0.0,0.0,0.0,0.0,0.0,0.0,0.0,0.0,0.0,0.0,0.0,0.0,0.0,0.0,0.0,0.0,0.0,0.0,0.0,0.0,0.0,0.0,0.0,0.0,0.0,0.0,0.0,0.0,0.0,0.0,0.0,0.0,0.0,0.0,0.0,0.0,0.0,0.0,0.0,0.0,0.0,0.0,0.0,0.0,0.0,0.0,0.0,0.0,0.0,0.0,0.0,0.0,0.0,0.0,0.0,0.0,0.0,0.0,0.0,0.0,0.0,0.0,0.0,0.0,0.0,0.0,0.0,0.0,0.0,0.0,0.0,0.0,0.0,0.0,0.0,0.0,0.0,0.0,0.0,0.0,0.0,0.0,0.0,0.0,0.0,0.0,0.0,0.0,0.0,0.0,0.0,0.0,3.398,0.0,0.0,0.0,0.0,0.0,0.0,0.0,0.0,0.0,0.0,0.0,0.0,0.0,0.0,0.0,0.0,0.0,0.0,0.0,0.0,0.0,0.0,0.0,0.0,0.0,0.0,0.0,0.0,0.0,0.0,0.0,0.0,0.0,0.0,0.0,0.0,0.0,0.0,0.0,0.0,0.0,0.0,0.0,0.0,0.0,0.0,0.0,0.0,0.0,0.0,0.0,0.0,0.0,0.0,0.0,0.0,0.0,0.0,0.0,0.0,0.0,0.0,0.0,0.0,0.0,0.0,0.0,0.0,0.0,0.0,0.0,0.0,0.0,0.0,0.0,0.0,0.0,0.0,0.0,0.0,0.0,0.0,0.0,0.0,0.0,0.0,0.0,0.0,0.0,0.0,0.0,0.0,0.0,0.0,0.0,0.0,0.0,0.0,0.0,0.0,0.0,0.0,0.0,0.0,0.0,0.0,0.0,0.0,0.0,0.0,3.6823,3.6435,3.6396,3.5963,3.5161,0.0,0.0,0.0,0.0,0.0,0.0,0.0,0.0,0.0,0.0,0.0,0.0,0.0,0.0,0.0,0.0,0.0,0.0,0.0,0.0,0.0,0.0,0.0,0.0,0.0,0.0,0.0,0.0,0.0,0.0,0.0,0.0,0.0,0.0,0.0,0.0,0.0,0.0,0.0,0.0,0.0,0.0,0.0,0.0,0.0,0.0,0.0,0.0,0.0,0.0,0.0,0.0,0.0,0.0,0.0,0.0,0.0,0.0,0.0,0.0,0.0,0.0,0.0,0.0,0.0,0.0,0.0,0.0,0.0,0.0,0.0,0.0,0.0,0.0,0.0,0.0,0.0,0.0,0.0,0.0,0.0,0.0,0.0,0.0,0.0,0.0,0.0,0.0,0.0,0.0,0.0,0.0,0.0,0.0,0.0,0.0,0.0,0.0,0.0,0.0,0.0,0.0,0.0,0.0,0.0,0.0,0.0,0.0,0.0,0.0,0.0,0.0,3.8127,3.7638,3.6394,0.0,0.0,0.0,0.0,0.0,0.0,0.0,0.0,0.0,0.0,0.0,0.0,0.0,0.0,0.0,0.0,0.0,0.0,0.0,0.0,0.0,0.0,0.0,0.0,0.0,0.0,0.0,0.0,0.0,0.0,0.0,0.0,0.0,0.0,0.0,0.0,0.0,0.0,0.0,0.0,0.0,0.0,0.0,0.0,0.0,0.0,0.0,0.0,0.0,0.0,0.0,0.0,0.0,0.0,0.0,0.0,0.0,0.0,0.0,0.0,0.0,0.0,0.0,0.0,0.0,0.0,0.0,0.0,0.0,0.0,0.0,0.0,0.0,0.0,0.0,0.0,0.0,0.0,0.0,0.0,0.0,0.0,0.0,0.0,0.0,0.0,0.0,0.0,0.0,0.0,0.0,0.0,0.0,0.0,0.0,0.0,0.0,0.0,0.0,0.0,0.0,0.0,0.0,0.0,0.0,0.0,0.0,0.0,0.0,0.0,3.9218,4.078,4.1445,0.0,3.8286,0.0,0.0,0.0,0.0,0.0,0.0,0.0,0.0,0.0,0.0,0.0,0.0,0.0,0.0,0.0,0.0,0.0,0.0,0.0,0.0,0.0,0.0,0.0,0.0,0.0,0.0,0.0,0.0,0.0,0.0,0.0,0.0,0.0,0.0,0.0,0.0,0.0,0.0,0.0,0.0,0.0,0.0,0.0,0.0,0.0,0.0,0.0,0.0,0.0,0.0,0.0,0.0,0.0,0.0,0.0,0.0,0.0,0.0,0.0,0.0,0.0,0.0,0.0,0.0,0.0,0.0,0.0,0.0,0.0,0.0,0.0,0.0,0.0,0.0,0.0,0.0,0.0,0.0,0.0,0.0,0.0,0.0,0.0,0.0,0.0,0.0,0.0,0.0,0.0,0.0,0.0,0.0,0.0,0.0,0.0,0.0,0.0,0.0,0.0,0.0,0.0,0.0,0.0,0.0,0.0,0.0,0.0,0.0,0.0,0.0,0.0,4.1875,4.1758,4.0656,0.0,0.0,0.0,0.0,0.0,0.0,0.0,0.0,0.0,0.0,0.0,0.0,0.0,0.0,0.0,0.0,0.0,0.0,0.0,0.0,0.0,0.0,0.0,0.0,0.0,0.0,0.0,0.0,0.0,0.0,0.0,0.0,0.0,0.0,0.0,0.0,0.0,0.0,0.0,0.0,0.0,0.0,0.0,0.0,0.0,0.0,0.0,0.0,0.0,0.0,0.0,0.0,0.0,0.0,0.0,0.0,0.0,0.0,0.0,0.0,0.0,0.0,0.0,0.0,0.0,0.0,0.0,0.0,0.0,0.0,0.0,0.0,0.0,0.0,0.0,0.0,0.0,0.0,0.0,0.0,0.0,0.0,0.0,0.0,0.0,0.0,0.0,0.0,0.0,0.0,0.0,0.0,0.0,0.0,0.0,0.0,0.0,0.0,0.0,0.0,0.0,0.0,0.0,0.0,0.0,0.0,0.0,0.0,0.0,0.0,4.082,0.0,4.3359,4.293,4.125,3.832,0.0,0.0,0.0,0.0,0.0,0.0,0.0,0.0,0.0,0.0,0.0,0.0,0.0,0.0,0.0,0.0,0.0,0.0,0.0,0.0,0.0,0.0,0.0,0.0,0.0,0.0,0.0,0.0,0.0,0.0,0.0,0.0,0.0,0.0,0.0,0.0,0.0,0.0,0.0,0.0,0.0,0.0,0.0,0.0,0.0,0.0,0.0,0.0,0.0,0.0,0.0,0.0,0.0,0.0,0.0,0.0,0.0,0.0,0.0,0.0,0.0,0.0,0.0,0.0,0.0,0.0,0.0,0.0,0.0,0.0,0.0,0.0,0.0,0.0,0.0,0.0,0.0,0.0,0.0,0.0,0.0,0.0,0.0,0.0,0.0,0.0,0.0,0.0,0.0,0.0,0.0,0.0,0.0,0.0,0.0,0.0,0.0,0.0,0.0,0.0,0.0,0.0,0.0,0.0,0.0,0.0,0.0,0.0,0.0,4.3086,4.3555,4.6016,4.6055,4.332,0.0,0.0,0.0,0.0,0.0,0.0,0.0,0.0,0.0,0.0,0.0,0.0,0.0,0.0,0.0,0.0,0.0,0.0,0.0,0.0,0.0,0.0,0.0,0.0,0.0,0.0,0.0,0.0,0.0,0.0,0.0,0.0,0.0,0.0,0.0,0.0,0.0,0.0,0.0,0.0,0.0,0.0,0.0,0.0,0.0,0.0,0.0,0.0,0.0,0.0,0.0,0.0,0.0,0.0,0.0,0.0,0.0,0.0,0.0,0.0,0.0,0.0,0.0,0.0,0.0,0.0,0.0,0.0,0.0,0.0,0.0,0.0,0.0,0.0,0.0,0.0,0.0,0.0,0.0,0.0,0.0,0.0,0.0,0.0,0.0,0.0,0.0,0.0,0.0,0.0,0.0,0.0,0.0,0.0,0.0,0.0,0.0,0.0,0.0,0.0,0.0,0.0,0.0,0.0,0.0,0.0,0.0,0.0,0.0,4.0781,4.2422,4.4766,4.7695,4.4766,4.1992,0.0,0.0,0.0,0.0,0.0,0.0,0.0,0.0,0.0,0.0,0.0,0.0,0.0,0.0,0.0,0.0,0.0,0.0,0.0,0.0,0.0,0.0,0.0,0.0,0.0,0.0,0.0,0.0,0.0,0.0,0.0,0.0,0.0,0.0,0.0,0.0,0.0,0.0,0.0,0.0,0.0,0.0,0.0,0.0,0.0,0.0,0.0,0.0,0.0,0.0,0.0,0.0,0.0,0.0,0.0,0.0,0.0,0.0,0.0,0.0,0.0,0.0,0.0,0.0,0.0,0.0,0.0,0.0,0.0,0.0,0.0,0.0,0.0,0.0,0.0,0.0,0.0,0.0,0.0,0.0,0.0,0.0,0.0,0.0,0.0,0.0,0.0,0.0,0.0,0.0,0.0,0.0,0.0,0.0,0.0,0.0,0.0,0.0,0.0,0.0,0.0,0.0,0.0,0.0,0.0,0.0,0.0,0.0,0.0,4.1484,0.0,4.7226,0.0,4.4844,4.168,0.0,0.0,0.0,0.0,0.0,0.0,0.0,0.0,0.0,0.0,0.0,0.0,0.0,0.0,0.0,0.0,0.0,0.0,0.0,0.0,0.0,0.0,0.0,0.0,0.0,0.0,0.0,0.0,0.0,0.0,0.0,0.0,0.0,0.0,0.0,0.0,0.0,0.0,0.0,0.0,0.0,0.0,0.0,0.0,0.0,0.0,0.0,0.0,0.0,0.0,0.0,0.0,0.0,0.0,0.0,0.0,0.0,0.0,0.0,0.0,0.0,0.0,0.0,0.0,0.0,0.0,0.0,0.0,0.0,0.0,0.0,0.0,0.0,0.0,0.0,0.0,0.0,0.0,0.0,0.0,0.0,0.0,0.0,0.0,0.0,0.0,0.0,0.0,0.0,0.0,0.0,0.0,0.0,0.0,0.0,0.0,0.0,0.0,0.0,0.0,0.0,0.0,0.0,0.0,0.0,0.0,0.0,0.0,4.1562,4.7266,5.0664,5.082,4.7812,4.668,4.2656,0.0,0.0,0.0,0.0,0.0,0.0,0.0,0.0,0.0,0.0,0.0,0.0,0.0,0.0,0.0,0.0,0.0,0.0,0.0,0.0,0.0,0.0,0.0,0.0,0.0,0.0,0.0,0.0,0.0,0.0,0.0,0.0,0.0,0.0,0.0,0.0,0.0,0.0,0.0,0.0,0.0,0.0,0.0,0.0,0.0,0.0,0.0,0.0,0.0,0.0,0.0,0.0,0.0,0.0,0.0,0.0,0.0,0.0,0.0,0.0,0.0,0.0,0.0,0.0,0.0,0.0,0.0,0.0,0.0,0.0,0.0,0.0,0.0,0.0,0.0,0.0,0.0,0.0,0.0,0.0,0.0,0.0,0.0,0.0,0.0,0.0,0.0,0.0,0.0,0.0,0.0,0.0,0.0,0.0,0.0,0.0,0.0,0.0,0.0,0.0,0.0,0.0,0.0,0.0,0.0,0.0,0.0,0.0,0.0,4.5,4.8867,5.1016,5.0976,4.6797,4.3672,0.0,0.0,0.0,0.0,0.0,0.0,0.0,0.0,0.0,0.0,0.0,0.0,0.0,0.0,0.0,0.0,0.0,0.0,0.0,0.0,0.0,0.0,0.0,0.0,0.0,0.0,0.0,0.0,0.0,0.0,0.0,0.0,0.0,0.0,0.0,0.0,0.0,0.0,0.0,0.0,0.0,0.0,0.0,0.0,0.0,0.0,0.0,0.0,0.0,0.0,0.0,0.0,0.0,0.0,0.0,0.0,0.0,0.0,0.0,0.0,0.0,0.0,0.0,0.0,0.0,0.0,0.0,0.0,0.0,0.0,0.0,0.0,0.0,0.0,0.0,0.0,0.0,0.0,0.0,0.0,0.0,0.0,0.0,0.0,0.0,0.0,0.0,0.0,0.0,0.0,0.0,0.0,0.0,0.0,0.0,0.0,0.0,0.0,0.0,0.0,0.0,0.0,0.0,0.0,0.0,0.0,0.0,0.0,0.0,4.9687,5.3086,5.4687,5.418,4.9844,4.6289,4.3633,0.0,0.0,0.0,0.0,0.0,0.0,0.0,0.0,0.0,0.0,0.0,0.0,0.0,0.0,0.0,0.0,0.0,0.0,0.0,0.0,0.0,0.0,0.0,0.0,0.0,0.0,0.0,0.0,0.0,0.0,0.0,0.0,0.0,0.0,0.0,0.0,0.0,0.0,0.0,0.0,0.0,0.0,0.0,0.0,0.0,0.0,0.0,0.0,0.0,0.0,0.0,0.0,0.0,0.0,0.0,0.0,0.0,0.0,0.0,0.0,0.0,0.0,0.0,0.0,0.0,0.0,0.0,0.0,0.0,0.0,0.0,0.0,0.0,0.0,0.0,0.0,0.0,0.0,0.0,0.0,0.0,0.0,0.0,0.0,0.0,0.0,0.0,0.0,0.0,0.0,0.0,0.0,0.0,0.0,0.0,0.0,0.0,0.0,0.0,0.0,0.0,0.0,0.0,0.0,0.0,0.0,0.0,0.0,5.9453,6.2305,6.1758,5.7539,5.5234,5.0273,0.0,0.0,0.0,0.0,0.0,0.0,0.0,0.0,0.0,0.0,0.0,0.0,0.0,0.0,0.0,0.0,0.0,0.0,0.0,0.0,0.0,0.0,0.0,0.0,0.0,0.0,0.0,0.0,0.0,0.0,0.0,0.0,0.0,0.0,0.0,0.0,0.0,0.0,0.0,0.0,0.0,0.0,0.0,0.0,0.0,0.0,0.0,0.0,0.0,0.0,0.0,0.0,0.0,0.0,0.0,0.0,0.0,0.0,0.0,0.0,0.0,0.0,0.0,0.0,0.0,0.0,0.0,0.0,0.0,0.0,0.0,0.0,0.0,0.0,0.0,0.0,0.0,0.0,0.0,0.0,0.0,0.0,0.0,0.0,0.0,0.0,0.0,0.0,0.0,0.0,0.0,0.0,0.0,0.0,0.0,0.0,0.0,0.0,0.0,0.0,0.0,0.0,0.0,0.0,0.0,0.0,0.0,0.0,0.0,6.3008,6.9844,7.1133,6.6211,5.9531,5.3984,0.0,0.0,0.0,0.0,0.0,0.0,0.0,0.0,0.0,0.0,0.0,0.0,0.0,0.0,0.0,0.0,0.0,0.0,0.0,0.0,0.0,0.0,0.0,0.0,0.0,0.0,0.0,0.0,0.0,0.0,0.0,0.0,0.0,0.0,0.0,0.0,0.0,0.0,0.0,0.0,0.0,0.0,0.0,0.0,0.0,0.0,0.0,0.0,0.0,0.0,0.0,0.0,0.0,0.0,0.0,0.0,0.0,0.0,0.0,0.0,0.0,0.0,0.0,0.0,0.0,0.0,0.0,0.0,0.0,0.0,0.0,0.0,0.0,0.0,0.0,0.0,0.0,0.0,0.0,0.0,0.0,0.0,0.0,0.0,0.0,0.0,0.0,0.0,0.0,0.0,0.0,0.0,0.0,0.0,0.0,0.0,0.0,0.0,0.0,0.0,0.0,0.0,0.0,0.0,0.0,0.0,0.0,0.0,6.3047,6.8047,7.6172,7.9023,7.6055,6.6914,5.9414,0.0,0.0,0.0,0.0,0.0,0.0,0.0,0.0,0.0,0.0,0.0,0.0,0.0,0.0,0.0,0.0,0.0,0.0,0.0,0.0,0.0,0.0,0.0,0.0,0.0,0.0,0.0,0.0,0.0,0.0,0.0,0.0,0.0,0.0,0.0,0.0,0.0,0.0,0.0,0.0,0.0,0.0,0.0,0.0,0.0,0.0,0.0,0.0,0.0,0.0,0.0,0.0,0.0,0.0,0.0,0.0,0.0,0.0,0.0,0.0,0.0,0.0,0.0,0.0,0.0,0.0,0.0,0.0,0.0,0.0,0.0,0.0,0.0,0.0,0.0,0.0,0.0,0.0,0.0,0.0,0.0,0.0,0.0,0.0,0.0,0.0,0.0,0.0,0.0,0.0,0.0,0.0,0.0,0.0,0.0,0.0,0.0,0.0,0.0,0.0,0.0,0.0,0.0,0.0,0.0,0.0,0.0,0.0,6.7656,7.3633,8.1211,8.5156,8.4883,7.5,6.5273,0.0,0.0,0.0,0.0,0.0,0.0,0.0,0.0,0.0,0.0,0.0,0.0,0.0,0.0,0.0,0.0,0.0,0.0,0.0,0.0,0.0,0.0,0.0,0.0,0.0,0.0,0.0,0.0,0.0,0.0,0.0,0.0,0.0,0.0,0.0,0.0,0.0,0.0,0.0,0.0,0.0,0.0,0.0,0.0,0.0,0.0,0.0,0.0,0.0,0.0,0.0,0.0,0.0,0.0,0.0,0.0,0.0,0.0,0.0,0.0,0.0,0.0,0.0,0.0,0.0,0.0,0.0,0.0,0.0,0.0,0.0,0.0,0.0,0.0,0.0,0.0,0.0,0.0,0.0,0.0,0.0,0.0,0.0,0.0,0.0,0.0,0.0,0.0,0.0,0.0,0.0,0.0,0.0,0.0,0.0,0.0,0.0,0.0,0.0,0.0,0.0,0.0,0.0,0.0,0.0,0.0,0.0,0.0,7.0312,7.6289,8.3281,8.6953,8.6875,7.5625,6.6601,0.0,0.0,0.0,0.0,0.0,0.0,0.0,0.0,0.0,0.0,0.0,0.0,0.0,0.0,0.0,0.0,0.0,0.0,0.0,0.0,0.0,0.0,0.0,0.0,0.0,0.0,0.0,0.0,0.0,0.0,0.0,0.0,0.0,0.0,0.0,0.0,0.0,0.0,0.0,0.0,0.0,0.0,0.0,0.0,0.0,0.0,0.0,0.0,4.3129,0.0,0.0,0.0,0.0,0.0,0.0,0.0,0.0,0.0,0.0,0.0,0.0,0.0,0.0,0.0,0.0,0.0,0.0,0.0,0.0,0.0,0.0,0.0,0.0,0.0,0.0,0.0,0.0,0.0,0.0,0.0,0.0,0.0,0.0,0.0,0.0,0.0,0.0,0.0,0.0,0.0,0.0,0.0,0.0,0.0,0.0,0.0,0.0,0.0,0.0,0.0,0.0,0.0,0.0,0.0,0.0,0.0,0.0,0.0,7.332,8.0039,8.5351,8.8242,8.8281,7.8945,7.0508,0.0,0.0,0.0,0.0,0.0,0.0,0.0,0.0,0.0,0.0,0.0,0.0,0.0,0.0,0.0,0.0,0.0,0.0,0.0,0.0,0.0,0.0,0.0,0.0,0.0,0.0,0.0,0.0,0.0,0.0,0.0,0.0,0.0,0.0,0.0,0.0,0.0,0.0,0.0,0.0,0.0,0.0,0.0,0.0,0.0,0.0,0.0,0.0,0.0,0.0,0.0,0.0,0.0,0.0,0.0,0.0,0.0,0.0,0.0,0.0,0.0,0.0,0.0,0.0,0.0,0.0,0.0,0.0,0.0,0.0,0.0,0.0,0.0,0.0,0.0,0.0,0.0,0.0,0.0,0.0,0.0,0.0,0.0,0.0,0.0,0.0,0.0,0.0,0.0,0.0,0.0,0.0,0.0,0.0,0.0,0.0,0.0,0.0,0.0,0.0,0.0,0.0,0.0,0.0,0.0,0.0,0.0,6.7695,7.5898,8.4062,8.7344,8.9258,8.9844,8.2656,7.4648,6.6094,0.0,0.0,0.0,0.0,0.0,0.0,0.0,0.0,0.0,0.0,0.0,0.0,0.0,0.0,0.0,0.0,0.0,0.0,0.0,0.0,0.0,0.0,0.0,0.0,0.0,0.0,0.0,0.0,0.0,0.0,0.0,0.0,0.0,0.0,0.0,0.0,0.0,0.0,3.8575,4.1306,0.0,0.0,0.0,0.0,0.0,0.0,0.0,0.0,4.4742,0.0,0.0,0.0,0.0,0.0,0.0,0.0,0.0,0.0,0.0,0.0,0.0,0.0,0.0,0.0,0.0,0.0,0.0,0.0,0.0,0.0,0.0,0.0,0.0,0.0,0.0,0.0,0.0,0.0,0.0,0.0,0.0,0.0,0.0,0.0,0.0,0.0,0.0,0.0,0.0,0.0,0.0,0.0,0.0,0.0,0.0,0.0,0.0,0.0,0.0,0.0,0.0,0.0,0.0,0.0,0.0,6.7265,6.9765,7.6406,8.7539,8.9101,8.9844,8.9804,8.3164,7.5469,6.6992,0.0,0.0,0.0,0.0,0.0,0.0,0.0,0.0,0.0,0.0,0.0,0.0,0.0,0.0,0.0,0.0,0.0,0.0,0.0,0.0,0.0,0.0,0.0,0.0,0.0,0.0,0.0,0.0,0.0,0.0,0.0,0.0,0.0,0.0,0.0,0.0,0.0,0.0,0.0,4.7777,4.906,0.0,0.0,0.0,0.0,0.0,0.0,0.0,0.0,4.6046,0.0,0.0,0.0,0.0,0.0,0.0,0.0,0.0,0.0,0.0,0.0,0.0,0.0,0.0,0.0,0.0,0.0,0.0,0.0,0.0,0.0,0.0,0.0,0.0,0.0,0.0,0.0,0.0,0.0,0.0,0.0,0.0,0.0,0.0,0.0,0.0,0.0,0.0,0.0,0.0,0.0,0.0,0.0,0.0,0.0,0.0,0.0,0.0,0.0,0.0,0.0,0.0,0.0,0.0,0.0,6.6992,7.3086,8.0351,8.9023,9.0234,9.0469,8.9844,8.2031,7.4297,0.0,0.0,0.0,0.0,0.0,0.0,0.0,0.0,0.0,0.0,0.0,0.0,0.0,0.0,0.0,0.0,0.0,0.0,0.0,0.0,0.0,0.0,0.0,0.0,0.0,0.0,0.0,0.0,0.0,0.0,0.0,0.0,0.0,0.0,0.0,0.0,0.0,0.0,0.0,0.0,5.1162,5.2766,5.5115,0.0,0.0,0.0,0.0,0.0,0.0,4.9565,4.8359,0.0,0.0,0.0,0.0,0.0,0.0,0.0,0.0,0.0,0.0,0.0,0.0,0.0,0.0,0.0,0.0,0.0,0.0,0.0,0.0,0.0,0.0,0.0,0.0,0.0,0.0,0.0,0.0,0.0,0.0,0.0,0.0,0.0,0.0,0.0,0.0,0.0,0.0,0.0,0.0,0.0,0.0,0.0,0.0,0.0,0.0,0.0,0.0,0.0,0.0,0.0,0.0,0.0,0.0,0.0,6.6055,7.5625,8.3672,8.9922,9.0937,9.0898,8.9883,8.082,7.3086,0.0,0.0,0.0,0.0,0.0,0.0,0.0,0.0,0.0,0.0,0.0,0.0,0.0,0.0,0.0,0.0,0.0,0.0,0.0,0.0,0.0,0.0,0.0,0.0,0.0,0.0,0.0,0.0,0.0,0.0,0.0,0.0,0.0,0.0,0.0,0.0,0.0,0.0,0.0,0.0,0.0,5.6203,5.8789,5.6094,0.0,0.0,0.0,0.0,5.2461,5.3104,0.0,0.0,0.0,0.0,0.0,0.0,0.0,0.0,0.0,0.0,0.0,0.0,0.0,0.0,0.0,0.0,0.0,0.0,0.0,0.0,0.0,0.0,0.0,0.0,0.0,0.0,0.0,0.0,0.0,0.0,0.0,0.0,0.0,0.0,0.0,0.0,0.0,0.0,0.0,0.0,0.0,0.0,0.0,0.0,0.0,0.0,0.0,0.0,0.0,0.0,0.0,0.0,0.0,0.0,0.0,0.0,6.7656,7.5078,8.2812,9.0664,9.125,9.0859,8.9883,8.082,7.3047,0.0,0.0,0.0,0.0,0.0,0.0,0.0,0.0,0.0,0.0,0.0,0.0,0.0,0.0,0.0,0.0,0.0,0.0,0.0,0.0,0.0,0.0,0.0,0.0,0.0,0.0,0.0,0.0,0.0,0.0,0.0,0.0,0.0,0.0,0.0,0.0,0.0,0.0,0.0,0.0,0.0,5.9528,5.9258,5.8125,5.668,0.0,0.0,0.0,6.0039,6.2967,0.0,0.0,0.0,0.0,0.0,0.0,0.0,0.0,0.0,0.0,0.0,0.0,0.0,0.0,0.0,0.0,0.0,0.0,0.0,0.0,0.0,0.0,0.0,0.0,0.0,0.0,0.0,0.0,0.0,0.0,0.0,0.0,0.0,0.0,0.0,0.0,0.0,0.0,0.0,0.0,0.0,0.0,0.0,0.0,0.0,0.0,0.0,0.0,0.0,0.0,0.0,0.0,0.0,0.0,0.0,5.9062,6.8125,7.7383,8.4883,9.0312,9.1054,9.0583,8.9137,7.9501,7.1915,0.0,0.0,0.0,0.0,0.0,0.0,0.0,0.0,0.0,0.0,0.0,0.0,0.0,0.0,0.0,0.0,0.0,0.0,0.0,0.0,0.0,0.0,0.0,0.0,0.0,0.0,0.0,0.0,0.0,0.0,0.0,0.0,0.0,0.0,0.0,0.0,0.0,0.0,0.0,0.0,0.0,0.0,6.3476,6.3672,0.0,0.0,0.0,6.2148,6.1758,0.0,0.0,0.0,0.0,0.0,0.0,0.0,0.0,0.0,0.0,0.0,0.0,0.0,0.0,0.0,0.0,0.0,0.0,0.0,0.0,0.0,0.0,0.0,0.0,0.0,0.0,0.0,0.0,0.0,0.0,0.0,0.0,0.0,0.0,0.0,0.0,0.0,0.0,0.0,0.0,0.0,0.0,0.0,0.0,0.0,0.0,0.0,0.0,0.0,0.0,0.0,0.0,0.0,0.0,0.0,0.0,0.0,6.8141,7.9287,8.66,8.9744,9.068,9.0244,8.8228,7.9609,0.0,0.0,0.0,0.0,0.0,0.0,0.0,0.0,0.0,0.0,0.0,0.0,0.0,0.0,0.0,0.0,0.0,0.0,0.0,0.0,0.0,0.0,0.0,0.0,0.0,0.0,0.0,2.8437,0.0,0.0,0.0,0.0,0.0,0.0,0.0,0.0,0.0,0.0,0.0,0.0,0.0,0.0,6.4844,6.6367,6.7695,6.8359,0.0,0.0,6.625,6.539,6.9805,6.9883,0.0,0.0,0.0,0.0,0.0,0.0,0.0,0.0,0.0,0.0,0.0,0.0,0.0,0.0,0.0,0.0,0.0,0.0,0.0,0.0,0.0,0.0,0.0,0.0,0.0,0.0,0.0,0.0,0.0,0.0,0.0,0.0,0.0,0.0,0.0,0.0,0.0,0.0,0.0,0.0,0.0,0.0,0.0,0.0,0.0,0.0,0.0,0.0,0.0,0.0,0.0,0.0,0.0,0.0,0.0,6.7982,7.9461,8.6762,8.9333,9.0223,8.9831,8.8087,8.2806,7.5666,0.0,0.0,0.0,0.0,0.0,0.0,0.0,0.0,0.0,0.0,0.0,0.0,0.0,0.0,0.0,0.0,0.0,0.0,0.0,0.0,0.0,0.0,0.0,0.0,0.0,0.0,0.0,0.0,0.0,0.0,0.0,0.0,0.0,0.0,0.0,0.0,0.0,0.0,0.0,0.0,0.0,6.4648,6.5547,6.7812,7.0508,0.0,0.0,7.0547,7.4336,7.9844,7.9023,6.4844,0.0,0.0,0.0,0.0,0.0,0.0,0.0,0.0,0.0,0.0,0.0,0.0,0.0,0.0,0.0,0.0,0.0,0.0,0.0,0.0,0.0,0.0,0.0,0.0,0.0,0.0,0.0,0.0,0.0,0.0,0.0,0.0,0.0,0.0,0.0,0.0,0.0,0.0,0.0,0.0,0.0,0.0,0.0,0.0,0.0,0.0,0.0,0.0,0.0,0.0,0.0,0.0,0.0,6.2351,6.785,8.0009,8.753,9.0024,9.0956,9.0802,8.9455,8.3461,7.6322,0.0,0.0,0.0,0.0,0.0,0.0,0.0,0.0,0.0,0.0,0.0,0.0,0.0,0.0,0.0,0.0,0.0,0.0,0.0,0.0,0.0,0.0,0.0,0.0,0.0,0.0,0.0,0.0,3.8359,3.9258,3.875,0.0,0.0,0.0,0.0,0.0,0.0,0.0,0.0,0.0,0.0,6.7344,7.1367,7.3711,0.0,0.0,7.543,7.4453,7.5,7.7031,7.5,6.4687,6.0351,0.0,0.0,0.0,0.0,0.0,0.0,0.0,0.0,0.0,0.0,0.0,0.0,0.0,0.0,0.0,0.0,0.0,0.0,0.0,0.0,0.0,0.0,0.0,0.0,0.0,0.0,0.0,0.0,0.0,0.0,0.0,0.0,0.0,0.0,0.0,0.0,0.0,0.0,0.0,0.0,0.0,0.0,0.0,0.0,0.0,0.0,0.0,0.0,0.0,0.0,0.0,0.0,6.2682,6.7254,8.0043,8.7704,9.0017,9.1136,9.1098,8.9713,8.4664,7.807,0.0,0.0,0.0,0.0,0.0,0.0,0.0,0.0,0.0,0.0,0.0,0.0,0.0,0.0,0.0,0.0,0.0,0.0,0.0,0.0,0.0,0.0,0.0,0.0,0.0,0.0,0.0,0.0,4.1367,4.1601,4.0547,0.0,0.0,0.0,0.0,0.0,0.0,0.0,0.0,0.0,0.0,7.0351,7.4531,7.6367,7.7305,7.7344,7.5937,7.4805,7.4648,7.4844,7.2539,6.5351,0.0,0.0,0.0,0.0,0.0,0.0,0.0,0.0,0.0,0.0,0.0,0.0,0.0,0.0,0.0,0.0,0.0,0.0,0.0,0.0,0.0,0.0,0.0,0.0,0.0,0.0,0.0,0.0,0.0,0.0,0.0,0.0,0.0,0.0,0.0,0.0,0.0,0.0,0.0,0.0,0.0,0.0,0.0,0.0,0.0,0.0,0.0,0.0,0.0,0.0,0.0,0.0,0.0,0.0,6.6145,7.9331,8.7006,8.8748,9.0373,9.0449,8.8825,8.6901,8.1574,7.2249,0.0,0.0,0.0,0.0,0.0,0.0,0.0,0.0,0.0,0.0,0.0,0.0,0.0,0.0,0.0,0.0,0.0,0.0,0.0,0.0,0.0,0.0,0.0,0.0,0.0,0.0,3.8828,4.0234,4.0625,0.0,0.0,0.0,0.0,0.0,0.0,0.0,0.0,0.0,0.0,6.668,7.3164,7.3398,7.414,7.4922,7.4922,7.207,7.0937,7.418,7.5234,7.3828,0.0,0.0,0.0,0.0,0.0,0.0,0.0,0.0,0.0,0.0,0.0,0.0,0.0,0.0,0.0,0.0,0.0,0.0,0.0,0.0,0.0,0.0,0.0,0.0,0.0,0.0,0.0,4.824,4.6394,0.0,0.0,0.0,0.0,0.0,0.0,0.0,0.0,0.0,0.0,0.0,5.8472,6.0719,0.0,0.0,0.0,0.0,0.0,0.0,0.0,0.0,0.0,0.0,0.0,0.0,6.3463,6.7285,8.0131,8.7776,8.9479,9.0598,9.0944,9.0325,8.7055,8.0107,6.9136,0.0,0.0,0.0,0.0,0.0,0.0,0.0,0.0,0.0,0.0,0.0,0.0,0.0,0.0,0.0,0.0,0.0,0.0,0.0,0.0,0.0,0.0,0.0,0.0,0.0,4.0781,0.0,0.0,0.0,0.0,0.0,0.0,0.0,0.0,0.0,0.0,0.0,5.4726,6.1289,6.664,7.0937,7.3789,7.539,7.7109,0.0,0.0,0.0,0.0,0.0,0.0,0.0,0.0,0.0,0.0,0.0,0.0,0.0,0.0,6.1211,5.1562,4.9961,4.9844,4.8984,0.0,0.0,0.0,0.0,0.0,0.0,0.0,0.0,0.0,0.0,0.0,0.0,0.0,0.0,0.0,0.0,5.201,0.0,0.0,0.0,0.0,0.0,0.0,0.0,0.0,6.144,6.4782,6.6128,6.7744,6.7705,0.0,6.4715,5.9454,0.0,0.0,0.0,0.0,0.0,0.0,0.0,0.0,6.4446,6.8471,8.0546,8.793,8.9787,9.0441,9.0748,9.0633,8.6099,7.9191,7.0038,6.3245,5.7319,0.0,0.0,0.0,0.0,0.0,0.0,0.0,0.0,0.0,0.0,0.0,0.0,0.0,0.0,0.0,0.0,0.0,0.0,0.0,0.0,0.0,0.0,0.0,4.375,0.0,0.0,0.0,0.0,0.0,0.0,0.0,0.0,0.0,5.1914,5.5312,5.9844,6.5742,7.0078,7.3047,7.4023,0.0,0.0,0.0,0.0,0.0,0.0,0.0,6.9765,6.7812,6.7344,6.7383,6.7851,7.0234,7.1406,6.9414,0.0,0.0,5.8828,5.7031,5.7031,5.6445,5.7461,5.8242,5.7695,5.9844,6.1719,0.0,0.0,0.0,0.0,0.0,0.0,0.0,0.0,6.0165,6.0089,0.0,5.905,0.0,0.0,0.0,0.0,0.0,0.0,0.0,0.0,7.0744,7.4361,7.3783,7.3822,7.3822,7.3707,7.2783,6.9744,6.4628,5.679,0.0,0.0,0.0,0.0,0.0,0.0,6.5678,7.0067,8.0615,8.7286,8.9705,8.9821,8.9787,8.9633,8.422,7.923,7.4935,6.9886,6.4176,5.7551,5.2473,0.0,0.0,0.0,0.0,0.0,0.0,0.0,0.0,0.0,0.0,0.0,0.0,0.0,0.0,0.0,0.0,0.0,0.0,0.0,0.0,4.6094,0.0,0.0,0.0,0.0,0.0,0.0,0.0,0.0,0.0,0.0,5.6015,6.2109,6.7773,7.0156,0.0,0.0,0.0,0.0,7.6719,7.2109,7.0469,7.039,7.1367,7.332,7.5,7.5781,0.0,0.0,7.793,7.6094,7.4375,7.1719,7.3555,7.3828,7.0351,6.7461,6.5859,6.5703,6.5156,6.4687,6.4765,6.6211,6.7851,7.0783,0.0,0.0,0.0,0.0,6.4359,6.7244,7.2168,7.1514,6.9898,6.759,6.6782,0.0,0.0,0.0,0.0,0.0,0.0,6.5936,7.0321,7.3976,7.7092,7.9785,8.04,8.0362,7.9746,7.8323,7.6245,7.3553,6.941,6.1527,5.0355,0.0,0.0,0.0,0.0,6.9052,7.3509,8.1732,8.6742,8.8089,8.8128,8.782,8.7171,8.3797,8.0805,7.8391,7.4043,6.9117,6.3617,5.9042,0.0,0.0,0.0,0.0,0.0,0.0,0.0,0.0,0.0,0.0,0.0,0.0,0.0,0.0,0.0,0.0,0.0,0.0,0.0,4.4375,4.6914,4.7812,0.0,0.0,0.0,0.0,0.0,0.0,0.0,0.0,0.0,6.5859,6.6055,6.6719,0.0,0.0,7.293,7.0859,7.457,7.8125,7.9687,0.0,0.0,0.0,8.0195,7.832,7.8555,8.0664,8.2344,8.2656,8.3281,8.3164,8.1094,8.1406,8.1211,7.8945,7.5508,7.289,7.2226,7.2305,7.2578,7.2656,7.3945,7.5273,8.1131,7.3591,7.009,7.009,7.2322,7.1822,7.4553,7.9246,7.8707,7.7323,7.5361,7.4553,7.0821,6.4936,6.3128,0.0,0.0,0.0,7.1783,7.6553,7.7861,8.0208,8.3247,8.3516,8.3516,8.3285,8.1939,8.0631,7.9246,7.7053,7.0744,6.0781,0.0,0.0,5.8511,6.6359,7.2311,7.6283,8.2425,8.6203,8.7358,8.7396,8.7012,8.6094,8.3945,8.2183,8.0799,7.7062,7.314,6.9058,6.4526,5.9119,0.0,0.0,0.0,0.0,0.0,0.0,0.0,0.0,0.0,0.0,0.0,3.8539,3.4179,0.0,0.0,0.0,4.2639,4.6512,4.8794,5.0644,0.0,0.0,0.0,0.0,0.0,0.0,0.0,6.0312,6.5195,6.9492,7.2344,7.1836,7.1719,7.3086,7.4726,7.539,7.4219,0.0,8.1054,8.3281,8.3594,8.4258,8.6133,8.4687,8.3711,8.5117,8.5859,8.6679,8.7695,8.7812,8.7148,8.6172,8.5351,8.457,8.3515,8.1172,7.9062,7.793,7.8047,7.8398,7.8437,7.9297,8.0273,8.9479,8.5901,7.8938,7.7169,7.8977,7.9054,8.0477,8.267,8.2785,8.2747,8.2554,8.1823,7.8746,7.3937,7.0821,0.0,0.0,7.5476,7.8323,8.1516,8.2324,8.3593,8.5132,8.4401,8.4401,8.5093,8.4209,8.3362,8.2439,8.0862,7.8054,7.4014,7.0129,6.759,6.6628,7.1283,7.539,7.8672,8.2701,8.5593,8.7242,8.7281,8.6896,8.6017,8.4439,8.3208,8.2253,7.9191,7.6348,7.3841,6.9135,6.3847,5.805,0.0,0.0,0.0,0.0,0.0,0.0,0.0,0.0,0.0,0.0,0.0,0.0,0.0,0.0,0.0,4.9042,0.0,5.5286,5.6134,0.0,0.0,0.0,5.5781,5.8552,6.2422,6.5547,6.7265,0.0,0.0,0.0,0.0,8.0508,8.1562,8.2812,8.2969,8.1328,8.3281,8.4922,8.4453,8.4414,8.4844,8.6484,8.7812,8.9687,9.2148,9.3008,9.2109,9.1953,8.9961,8.8008,8.7695,8.6367,8.5312,8.5234,8.5,8.4609,8.289,8.25,8.2422,8.2344,8.2383,8.3125,9.1864,8.9863,8.8017,8.5786,8.3439,8.4055,8.5016,8.6209,8.6901,8.644,8.5209,8.5016,8.2824,7.9246,7.8438,7.84,7.9092,8.0939,8.2901,8.4901,8.5786,8.6786,8.7748,8.7594,8.7248,8.6748,8.5901,8.5093,8.4247,8.3208,8.1208,7.8438,7.7938,7.5053,7.009,7.4168,7.7707,8.0431,8.2708,8.4709,8.6363,8.6401,8.6017,8.5209,8.417,8.3208,8.233,8.0299,7.8331,7.6438,7.338,6.9557,6.491,5.7082,0.0,0.0,0.0,0.0,0.0,0.0,0.0,0.0,0.0,4.4989,3.7832,0.0,4.6502,0.0,5.1452,5.5945,5.8505,5.8252,0.0,0.0,6.1032,6.2209,6.6691,6.883,7.0586,7.2344,7.5508,7.8633,8.1406,8.289,8.4726,8.7383,8.539,8.3203,8.2226,8.5351,8.7969,8.8476,8.9961,9.1719,9.2265,9.2617,9.2461,9.1953,9.1758,9.1601,9.1601,9.0976,9.0195,8.957,8.9101,8.8554,8.7851,8.7344,8.6797,8.625,8.5234,8.4258,8.4297,8.4258,8.4844,9.3056,9.121,9.121,8.944,8.6632,8.744,8.8517,8.971,9.0171,8.9633,8.8325,8.7594,8.6017,8.3978,8.4324,8.4247,8.4016,8.5247,8.6363,8.7286,8.7748,8.8248,8.8671,8.8671,8.844,8.7979,8.7478,8.7055,8.6555,8.5709,8.4555,8.3208,8.3285,8.1054,7.6784,7.7823,7.9285,8.1085,8.3478,8.5555,8.7171,8.6863,8.5747,8.3785,8.2554,8.083,7.8475,7.6747,7.525,7.3906,7.1833,6.905,6.5542,5.9587,5.4479,0.0,0.0,0.0,0.0,0.0,0.0,0.0,0.0,0.0,0.0,0.0,5.0563,0.0,5.6722,0.0,6.2968,6.3395,6.4632,6.7293,6.7677,6.9282,7.3231,7.496,7.6497,7.8242,8.082,8.3242,8.5117,8.6758,8.8398,9.0351,8.8867,8.7304,8.664,8.8437,9.0156,9.1054,9.2383,9.3437,9.3984,9.3984,9.3711,9.3125,9.2383,9.1992,9.2344,9.1484,9.0547,9.0117,9.0,8.9883,8.9375,8.8945,8.8515,8.8008,8.7265,8.6523,8.6133,8.6054,8.6562,9.3633,9.1556,9.1633,9.0787,8.9402,8.9979,9.0979,9.2172,9.2402,9.2133,9.1441,8.9748,8.8594,8.794,8.844,8.8286,8.7632,8.844,8.8863,8.8863,8.8979,8.9017,8.9017,8.9017,8.8979,8.8863,8.8863,8.8786,8.8671,8.794,8.744,8.7209,8.6478,8.5247,8.3593,8.14,8.0662,8.1424,8.4516,8.6824,8.8286,8.7435,8.5324,8.2131,8.0362,7.7616,7.3667,7.1942,7.0685,6.9842,6.8407,6.6576,6.4346,6.08,5.7073,0.0,5.0549,0.0,0.0,0.0,0.0,0.0,0.0,0.0,0.0,5.4916,5.6305,5.9442,6.3194,6.6179,6.8039,6.9702,7.1344,7.3016,7.4358,7.6101,7.8416,8.0338,8.2172,8.3794,8.6131,8.7656,8.7969,9.0039,9.1445,9.1679,9.2265,9.2226,9.1836,9.1484,9.1679,9.2539,9.2578,9.2734,9.2812,9.3398,9.4062,9.4492,9.3672,9.3008,9.3476,9.1992,9.0547,9.0429,9.0469,9.0351,9.0195,9.0078,8.9726,8.8984,8.8789,8.8476,8.7773,8.7578,8.8164,9.4287,9.3287,9.398,9.3672,9.271,9.221,9.1402,9.0517,9.1902,9.2749,9.3095,9.1441,9.0633,9.0402,8.921,8.8632,8.8479,8.9325,8.9671,8.971,9.0402,9.071,9.0748,9.071,9.0364,8.971,8.9671,8.9325,8.8709,8.8517,8.7748,8.6363,8.617,8.5286,0.0,0.0,0.0,0.0,8.5104,8.6261,8.6517,8.5099,8.3022,8.0362,7.8631,0.0,7.3649,7.2486,7.1541,7.0709,7.0348,0.0,0.0,0.0,0.0,0.0,0.0,0.0,0.0,0.0,0.0,0.0,6.0935,5.9158,5.6889,6.0789,6.4132,6.5589,6.8109,7.0671,7.3063,7.4251,7.5501,7.7176,7.8823,8.026,8.1439,8.3226,8.485,8.5836,8.7315,8.875,9.0117,9.1523,9.2617,9.3242,9.414,9.4609,9.4414,9.3203,9.2461,9.2578,9.2734,9.2656,9.2578,9.3359,9.375,9.332,9.3554,9.3398,9.3008,9.3164,9.2812,9.2187,9.2109,9.1836,9.1172,9.0508,9.0039,8.9765,8.9765,8.9492,8.8672,8.8476,8.875,9.5134,0.0,9.4788,9.448,0.0,9.3249,9.2595,9.1864,9.271,9.3557,9.4249,9.2979,9.2441,9.2364,9.1133,9.0787,9.1133,9.0287,9.0133,9.0517,9.0133,9.0171,9.0556,9.0594,9.0556,9.0556,9.0556,9.0364,8.9902,8.9517,8.8863,8.7979,8.7594,8.694,8.617,8.6517,8.6286,8.5478,8.6757,8.7795,8.8517,8.7363,8.5093,8.1785,0.0,0.0,0.0,0.0,0.0,0.0,0.0,0.0,0.0,0.0,0.0,6.5177,6.396,6.3218,6.3245,6.4437,6.6089,6.8164,6.9481,6.8234,6.3614,6.7577,7.0812,7.2101,7.3735,7.5695,7.8169,7.8846,7.962,8.092,8.2285,8.3433,8.4362,8.5681,8.6896,8.7823,8.8917,9.0053,9.0898,9.2344,9.332,9.3867,9.4648,9.5234,9.5117,9.4492,9.3906,9.3906,9.3867,9.3867,9.3867,9.3789,9.3984,9.3867,9.3554,9.3281,9.3242,9.3242,9.3086,9.2695,9.2578,9.2422,9.2031,9.1562,9.1172,9.0781,9.0664,9.0547,9.0039,8.9648,8.9765,9.6019,9.5211,9.5211,9.4788,9.4134,9.398,9.4018,9.4134,0.0,0.0,0.0,9.4326,9.3941,9.3864,9.2941,9.2864,9.3326,9.1133,9.0517,9.1133,8.9787,8.9556,9.0364,9.0364,9.0825,9.1633,9.1518,9.1441,9.1402,9.0556,9.0133,9.0094,8.9479,8.9133,8.9171,8.9787,8.944,8.8171,8.8521,8.9332,9.0671,8.9744,8.7396,8.367,8.1823,7.8421,7.3305,7.2109,7.0555,6.8385,6.8232,6.8206,6.8241,6.8924,6.9682,7.0529,7.1364,7.1915,7.2245,7.289,7.3513,7.3966,7.6555,7.6293,7.1803,7.413,7.6486,7.8045,7.8792,8.0145,8.2477,8.2901,8.333,8.4181,8.5214,8.6094,8.6824,8.7748,8.856,8.9406,9.0475,9.1329,9.1408,9.3047,9.4258,9.4414,9.5156,9.5625,9.5586,9.5351,9.5039,9.5039,9.4961,9.5117,9.5078,9.4648,9.4453,9.4922,9.3984,9.3359,9.3789,9.3398,9.289,9.2929,9.2734,9.2578,9.2578,9.25,9.2344,9.1679,9.1523,9.1523,9.1484,9.1094,9.1094,9.6865,9.6134,9.6134,9.6057,9.5903,9.5134,9.5249,9.5865,9.5134,9.5288,9.6057,9.5211,9.4826,9.4711,9.3172,9.2556,9.2595,9.1518,9.1095,0.0,9.0941,9.1287,9.2133,9.2133,9.2556,9.3249,9.2633,9.2326,9.221,9.1441,9.1018,9.1018,9.0902,9.0825,9.0864,9.0979,9.0902,9.0633,8.9367,8.8829,8.9017,8.7487,8.5681,8.3632,8.1362,7.8968,7.665,7.5077,7.3702,7.265,7.2619,7.2596,7.2596,7.2745,7.3159,7.3944,7.4819,7.5925,7.7301,7.7539,7.8569,8.0631,8.1337,8.069,7.8646,7.9469,8.0577,8.1508,8.1683,8.2496,8.4291,8.5142,8.5834,8.6714,8.7671,8.8282,8.8397,8.9171,8.9713,8.9936,9.1437,9.255,9.2672,9.4186,9.5429,9.5781,9.625,9.707,9.6953,9.6094,9.5312,9.5195,9.5195,9.5195,9.5351,9.5156,9.5117,9.5156,9.5,9.4648,9.4844,9.4258,9.375,9.3711,9.3164,9.2734,9.2656,9.2578,9.25,9.2304,9.2304,9.2344,9.2304,9.2695,9.2851,9.798,9.7673,9.7673,9.7365,9.6903,9.6057,9.5942,9.6249,9.5865,9.6442,9.7442,9.6288,9.5942,9.6095,9.3633,9.3018,9.3749,9.1518,9.1018,9.1825,9.0941,9.0941,9.1748,9.1787,9.1979,9.2326,9.1979,9.1787,9.1787,9.1864,9.1902,9.1941,9.2326,9.2556,9.2556,9.2553,9.2592,9.2518,9.0905,9.0252,9.071,8.9521,8.8521,8.7709,8.5709,8.3785,8.2163,8.0876,7.9422,7.7662,7.76,7.7391,7.6967,7.7331,7.7993,7.8782,7.9659,8.0459,8.1208,8.1292,8.2144,8.417,8.4335,8.4489,8.4626,8.3279,8.3009,8.4241,8.4368,8.506,8.6748,8.7291,8.7679,8.8025,8.8863,8.9325,8.9479,9.0556,9.1325,9.1437,9.2627,9.3477,9.3518,9.4795,9.5729,9.5943,9.6624,9.7229,9.7498,9.6953,9.6445,9.6523,9.6562,9.6562,9.6523,9.6172,9.5937,9.5898,9.5508,9.5234,9.5195,9.4804,9.4648,9.457,9.3906,9.3359,9.3281,9.289,9.2656,9.2578,9.2578,9.2578,9.2695,9.3281,9.3711,9.8942,9.8788,9.8788,9.8404,9.7711,9.6903,9.6673,9.6826,9.6673,9.7403,9.8442,9.7019,9.6634,9.6903,9.4095,9.3595,9.4403,9.1672,9.1018,9.2249,9.0902,9.0671,9.1441,9.1479,9.1595,9.171,9.1595,9.1518,9.1556,9.1979,9.2326,9.2556,9.3287,9.3672,9.3672,9.3708,9.3708,9.3595,9.2441,9.2095,9.271,9.2095,9.1787,9.1672,9.0094,8.8594,8.7286,8.6274,8.478,8.2731,8.2522,8.2131,8.133,8.2054,8.2792,8.3451,8.4066,8.4445,8.4465,8.4632,8.5291,8.6555,8.6675,8.7329,8.8512,8.6588,8.5472,8.6478,8.6671,8.7286,8.8589,8.8906,8.9102,8.9486,9.0059,9.0633,9.086,9.1979,9.2787,9.2864,9.3669,9.4285,9.4482,9.5174,9.5861,9.6039,9.657,9.711,9.7544,9.7711,9.7773,9.789,9.7851,9.7617,9.7656,9.7187,9.6836,9.6758,9.625,9.5976,9.5859,9.5703,9.5469,9.539,9.4765,9.4258,9.414,9.3711,9.3359,9.3359,9.3398,9.3359,9.3711,9.4179,9.4453,9.9519,9.8865,9.8865,9.875,9.8596,9.775,9.7827,9.8365,9.775,9.7904,9.8557,9.7019,9.6365,9.6172,9.4441,9.4095,9.4788,9.2287,9.1672,9.2441,9.1518,9.1556,9.2364,9.2402,9.2749,9.3249,9.2672,9.2287,9.2249,9.171,9.1748,9.2518,9.3287,9.3749,9.3749,9.3751,9.3751,9.371,9.3559,9.352,9.3557,9.352,9.3482,9.3441,9.1825,9.0902,9.0594,8.9171,8.7868,8.6953,8.6752,8.6396,8.567,8.6319,8.6819,8.6896,8.6973,8.705,8.7089,8.7814,8.8238,8.843,8.8483,8.8871,8.9752,8.9517,8.9013,8.8705,8.8483,8.8944,8.9675,8.9906,9.0521,9.179,9.2095,9.2553,9.3054,9.3515,9.3595,9.3599,9.4403,9.4939,9.5058,9.5712,9.6326,9.6519,9.6933,9.7523,9.8274,9.8515,9.8594,9.8633,9.8281,9.7812,9.7695,9.7656,9.7461,9.75,9.75,9.7265,9.707,9.6719,9.6367,9.625,9.5664,9.5117,9.5078,9.4961,9.4844,9.457,9.4687,9.5078,9.5859,9.6094,9.5781,10.0596,10.0289,10.0289,10.0019,9.9481,9.8634,9.8442,9.8711,9.8404,9.8211,9.798,9.7288,9.7019,9.6865,9.4711,9.4441,9.5595,9.4134,9.3903,9.4672,9.4364,9.4134,9.398,9.398,9.3903,9.3633,9.2903,9.2518,9.2441,9.2133,9.2633,9.3864,9.4364,9.4749,9.5172,9.5212,9.5212,9.5249,9.5212,9.5212,9.5134,9.4251,9.3945,9.4287,9.3326,9.2672,9.2592,9.1553,9.0556,8.9713,8.9175,8.8483,8.7675,8.7983,8.8175,8.8175,8.8175,8.8175,8.8175,8.894,8.9633,9.0129,9.0636,9.129,9.2053,9.2168,9.1979,9.171,9.1248,9.1287,9.1941,9.2133,9.2479,9.3095,9.321,9.3364,9.3631,9.4172,9.4482,9.4559,9.5249,9.5749,9.5903,9.6481,9.6981,9.7211,9.7634,9.825,9.89,9.8993,9.9078,9.9215,9.8966,9.8448,9.7929,9.7695,9.7695,9.7695,9.7695,9.7695,9.7656,9.75,9.7226,9.7187,9.6484,9.6015,9.5976,9.5469,9.5195,9.5273,9.5273,9.5469,9.6328,9.6875,9.6875,10.1289,10.1289,10.1289,10.0981,10.0366,9.9519,9.9135,9.9096,9.8904,9.8442,9.7865,9.7596,9.7519,9.7173,9.5057,9.4903,9.6019,9.5134,9.5095,9.5826,9.5711,9.5249,9.4672,9.4634,9.4326,9.371,9.3133,9.2826,9.2903,9.3403,9.4172,9.5249,9.5826,9.6365,9.6903,9.698,9.6903,9.6634,9.6634,9.6519,9.6172,9.5058,9.4712,9.5211,9.4518,9.4057,9.4016,9.3246,9.2518,9.1905,9.1287,9.0675,9.0136,9.0059,9.0059,9.0059,9.0098,9.0098,9.0059,9.0598,9.1248,9.1828,9.2521,9.3174,9.3862,9.4054,9.4172,9.4328,9.3864,9.3708,9.3592,9.371,9.3787,9.4018,9.402,9.4134,9.4441,9.502,9.5443,9.5674,9.6249,9.6749,9.698,9.7519,9.7827,9.7943,9.8404,9.9019,9.9441,9.9558,9.9627,9.9836,9.9862,9.9324,9.8281,9.8281,9.8164,9.7812,9.7851,9.8047,9.7812,9.7695,9.7695,9.7383,9.7031,9.6875,9.6836,9.625,9.5859,9.5937,9.6054,9.6367,9.7265,9.8008,9.8633,10.1289,10.1327,10.1289,10.1289,10.1173,10.0366,10.0019,9.9981,9.9211,9.8827,9.8634,9.7942,9.7557,9.7442,9.5826,9.548,9.6019,9.4749,9.4518,9.5172,9.448,9.3903,9.3787,9.3749,9.3787,9.3941,9.3749,9.3633,9.371,9.5211,9.6172,9.6249,9.7595,9.8518,9.8557,9.8519,9.825,9.7519,9.7479,9.7133,9.648,9.6249,9.6211,9.6249,9.5403,9.4941,9.4828,9.4134,9.3597,9.3561,9.3403,9.3397,9.3397,9.3358,9.3246,9.332,9.3358,9.3358,9.3246,9.3284,9.3438,9.3561,9.3714,9.406,9.4943,9.5132,9.5514,9.6095,9.6095,9.5518,9.4328,9.4251,9.4329,9.4943,9.5018,9.5403,9.6095,9.6249,9.6596,9.7171,9.7402,9.771,9.8441,9.8711,9.8712,9.8789,9.8827,9.9211,10.0096,10.0365,10.0478,10.0593,10.0586,10.0234,9.9023,9.8906,9.8828,9.8515,9.8476,9.8633,9.8086,9.7695,9.7695,9.7695,9.7539,9.75,9.7578,9.7539,9.7344,9.7461,9.7929,9.8359,9.8203,10.0117,10.0625,10.2635,10.2097,10.152,10.1289,10.125,10.0981,10.0866,10.0827,10.0558,10.0096,9.9635,9.9288,9.8865,9.8288,9.7711,9.7288,9.7019,9.6403,9.6288,9.6557,9.6288,9.5865,9.5365,9.5365,9.5365,9.5288,9.4826,9.4249,9.3864,9.4903,9.5788,9.6403,9.7402,9.821,9.8673,9.8789,9.8635,9.8365,9.8326,9.8172,9.7865,9.7904,9.7904,9.7827,9.6557,9.5826,9.5865,9.4982,9.452,9.4521,9.402,9.3672,9.3705,9.3672,9.3674,9.3674,9.3674,9.3674,9.3751,9.4249,9.4557,9.4635,9.5558,9.6172,9.6634,9.7094,9.7593,9.7787,9.7864,9.7518,9.7057,9.6481,9.6251,9.6597,9.7096,9.7442,9.7787,9.7902,9.8019,9.8249,9.8327,9.8481,9.8865,9.925,9.9596,9.9711,10.0057,10.0519,10.0827,10.0981,10.1019,10.1096,10.1096,10.082,9.9961,9.957,9.9414,9.9219,9.9101,9.8867,9.8476,9.8008,9.7929,9.8008,9.7929,9.7773,9.7773,9.7656,9.7695,9.7851,9.8398,9.8906,9.8984,10.0117,10.0664,10.3558,10.2981,10.2404,10.2135,10.2097,10.1827,10.1712,10.1673,10.1404,10.0981,10.0519,10.0212,9.975,9.9288,9.9211,9.875,9.798,9.7904,9.7904,9.7904,9.7904,9.748,9.6788,9.6673,9.6557,9.6249,9.5712,9.5095,9.4711,9.5365,9.6249,9.7134,9.7904,9.875,9.9481,9.9634,9.9519,9.9288,9.9211,9.9095,9.8865,9.8788,9.8788,9.8634,9.7673,9.7096,9.7133,9.6519,9.6249,9.6134,9.5635,9.5211,9.4939,9.4672,9.4674,9.4866,9.4943,9.5097,9.5366,9.5903,9.6249,9.6249,9.721,9.7902,9.7942,9.8442,9.8749,9.8788,9.8788,9.8788,9.875,9.8481,9.825,9.8058,9.8442,9.8788,9.8788,9.8788,9.8942,9.9211,9.9519,9.9634,9.9634,10.0134,10.0442,10.048,10.1019,10.1289,10.1289,10.1289,10.1289,10.1289,10.1289,10.1096,10.0701,10.0439,9.9886,9.9609,9.9726,9.9414,9.9041,9.856,9.832,9.832,9.8203,9.8008,9.7851,9.7734,9.7734,9.7773,9.832,9.8945,9.9219,9.957,10.0078,10.3943,10.3866,10.3905,10.3712,10.3558,10.2904,10.2597,10.2481,10.175,10.1404,10.125,10.0519,10.025,10.0173,10.025,9.9712,9.9288,9.9135,9.8904,9.8711,9.8673,9.8288,9.7557,9.7519,9.7211,9.6557,9.6365,9.6365,9.648,9.7173,9.798,9.8865,9.9827,10.0596,10.125,10.1173,10.0866,10.0289,10.0096,9.9711,9.8942,9.9019,9.9058,9.8981,9.8865,9.8826,9.8825,9.8671,9.8441,9.8518,9.8518,9.8287,9.7325,9.6673,9.6634,9.7171,9.7402,9.7825,9.8403,9.848,9.8364,9.8403,9.8748,9.8826,9.8827,9.8942,9.9057,9.9135,9.9057,9.898,9.9134,9.9596,9.9673,9.898,9.9019,9.9096,9.9019,9.8904,9.9173,9.9981,10.0596,10.1212,10.125,10.1135,10.1135,10.1173,10.125,10.1289,10.1289,10.1289,10.1289,10.1289,10.1289,10.1212,10.125,10.1212,10.0557,10.0,10.0273,10.0233,9.9784,9.9345,9.9133,9.9101,9.8867,9.8672,9.8086,9.7929,9.7734,9.7851,9.8476,9.8743,9.8704,9.8919,9.9667,10.4713,10.4636,10.4135,10.3905,10.3866,10.3597,10.3482,10.3405,10.2558,10.2212,10.2058,10.1289,10.125,10.1712,10.1827,10.1981,10.2212,10.1673,10.0519,9.9135,9.8865,9.8711,9.8442,9.8365,9.825,9.7942,9.7403,9.7788,9.875,9.9135,9.9981,10.1327,10.2251,10.2482,10.2212,10.2174,10.175,10.1058,10.0943,10.0789,10.0558,10.0519,10.0519,10.0519,10.0519,10.0519,10.0442,9.9442,9.8827,9.8827,9.8789,9.8673,9.8403,9.8133,9.8133,9.8326,9.8404,9.8481,9.8712,9.8827,9.8904,9.8942,9.9404,9.9634,9.9788,10.025,10.048,10.0519,10.0519,10.0519,10.0557,10.0711,10.0557,9.9788,10.0173,10.0481,10.0481,10.0519,10.0635,10.0866,10.1135,10.1289,10.1327,10.1366,10.1481,10.1443,10.1404,10.1404,10.1366,10.1481,10.1289,10.1289,10.1289,10.1443,10.1481,10.1443,10.0942,10.0519,10.0634,10.0788,10.0393,10.017,10.0002,9.9771,9.9548,9.9156,9.8554,9.8244,9.8084,9.7905,9.8285,9.818,9.7755,9.824,9.9216,10.5597,10.552,10.5059,10.4828,10.4751,10.452,10.4328,10.4212,10.3443,10.3097,10.2943,10.252,10.2712,10.3443,10.3866,10.4289,10.4674,10.3905,10.2674,10.1173,10.0404,10.0058,9.9673,9.9019,9.8788,9.8789,9.8596,9.9019,10.0058,10.0442,10.125,10.2481,10.3175,10.3329,10.302,10.2751,10.2366,10.2251,10.1943,10.1943,10.2174,10.2251,10.2251,10.2289,10.2289,10.2251,10.2174,10.1251,10.0366,9.9827,9.9442,9.9288,9.9288,9.8981,9.8904,9.9211,9.9327,9.9519,10.0096,10.0327,10.0404,10.0711,10.1212,10.148,10.1596,10.2058,10.2251,10.229,10.1943,10.1789,10.175,10.175,10.152,10.1134,10.1096,10.1481,10.1712,10.2097,10.2251,10.2327,10.2289,10.2251,10.229,10.2251,10.2289,10.2251,10.2289,10.2289,10.2251,10.2327,10.2212,10.2097,10.202,10.202,10.1827,10.1597,10.1327,10.1096,10.0981,10.1019,10.0864,10.0824,10.0697,10.0373,10.0135,9.9747,9.9196,9.8956,9.8717,9.8542,9.8374,9.8475,9.8518,9.8481,9.9165,10.6405,10.6405,10.6367,10.629,10.6174,10.5482,10.5174,10.5059,10.4289,10.3943,10.3943,10.3866,10.4328,10.5174,10.5828,10.6328,10.6367,10.5636,10.529,10.4713,10.3712,10.2481,10.1212,9.9865,9.9288,9.925,9.9673,10.0135,10.075,10.1173,10.1866,10.302,10.3289,10.3174,10.3597,10.3058,10.2981,10.3097,10.2674,10.2712,10.3366,10.3635,10.3635,10.3597,10.3635,10.3635,10.3598,10.3406,10.2867,10.1597,10.0827,10.0557,10.025,9.9519,9.9788,10.0519,10.0365,10.1173,10.229,10.2366,10.2674,10.329,10.3406,10.3906,10.3557,10.3482,10.356,10.356,10.3059,10.2674,10.2674,10.2674,10.2597,10.2557,10.2135,10.2058,10.2597,10.3329,10.3521,10.3635,10.3829,10.3829,10.3637,10.3635,10.3674,10.3674,10.3635,10.3558,10.3558,10.3443,10.3751,10.3443,10.2904,10.2828,10.2674,10.252,10.229,10.2135,10.1789,10.1443,10.125,10.1173,10.1173,10.0863,10.0624,10.0246,9.9902,9.9596,9.9288,9.9068,9.9101,9.9325,9.9211,9.8981,9.9019,10.6405,10.6405,10.6405,10.6405,10.6405,10.6136,10.6059,10.5944,10.5136,10.4789,10.4789,10.4789,10.5251,10.6097,10.6944,10.7675,10.7867,10.7328,10.7405,10.7675,10.6867,10.4713,10.2558,10.1173,10.0596,10.0558,10.0404,10.1058,10.2712,10.2443,10.3328,10.5366,10.5174,10.4789,10.4059,10.3712,10.2943,10.2135,10.1865,10.1865,10.2251,10.2865,10.2942,10.2981,10.3635,10.3905,10.3866,10.3864,10.3751,10.329,10.3021,10.2905,10.2713,10.2482,10.2366,10.2597,10.279,10.2982,10.3406,10.3558,10.3672,10.3826,10.4057,10.3903,10.3901,10.3903,10.3864,10.3866,10.3634,10.3597,10.356,10.3521,10.3558,10.3557,10.3366,10.329,10.352,10.3711,10.3903,10.3864,10.3941,10.4018,10.4057,10.4057,10.4057,10.4018,10.4018,10.4059,10.4212,10.4174,10.4328,10.402,10.3597,10.3598,10.3521,10.3406,10.329,10.3213,10.2751,10.1943,10.1635,10.125,10.125,10.1174,10.1057,10.075,10.0365,10.0058,9.9788,9.9635,9.9442,9.9442,9.9135,9.8904,9.9058,10.6405,10.6405,10.6405,10.6405,10.6405,10.6405,10.6405,10.6328,10.5905,10.5636,10.5636,10.5636,10.6136,10.6982,10.7482,10.8367,10.9175,10.8252,10.8367,10.9021,10.7752,10.5751,10.3674,10.2212,10.1289,10.1327,10.1212,10.1981,10.3135,10.3482,10.452,10.5559,10.6251,10.5867,10.5097,10.452,10.4174,10.352,10.3135,10.302,10.3482,10.3903,10.4172,10.4289,10.4713,10.4943,10.4943,10.498,10.4672,10.4097,10.3867,10.3906,10.3866,10.3866,10.3866,10.3866,10.3866,10.3982,10.4328,10.4403,10.4595,10.4864,10.4941,10.4941,10.498,10.4941,10.4941,10.502,10.4672,10.4403,10.4405,10.4445,10.4597,10.4903,10.4943,10.4791,10.4443,10.4749,10.4903,10.4941,10.4941,10.4941,10.4941,10.4903,10.4941,10.5018,10.5095,10.5097,10.5097,10.4943,10.4828,10.4713,10.4482,10.4405,10.4252,10.4098,10.3828,10.3789,10.3675,10.2828,10.202,10.152,10.1443,10.1443,10.1366,10.125,10.0943,10.0712,10.0596,10.0366,9.9942,9.9788,9.9711,9.9481,9.9558,10.6405,10.6405,10.6405,10.6405,10.6405,10.6405,10.6405,10.6405,10.6328,10.6328,10.6367,10.6482,10.6905,10.7675,10.7867,10.8713,11.006,10.879,10.9175,10.9252,10.8175,10.629,10.5291,10.2943,10.2212,10.2289,10.2635,10.302,10.3866,10.4828,10.5328,10.6059,10.6597,10.6597,10.6328,10.5751,10.579,10.579,10.5214,10.5214,10.5713,10.602,10.6174,10.6251,10.6482,10.6636,10.6636,10.6597,10.6097,10.4557,10.4249,10.4328,10.4287,10.4208,10.4285,10.4518,10.4749,10.5095,10.5326,10.5595,10.5864,10.6521,10.6674,10.6674,10.6674,10.6674,10.6636,10.6636,10.5826,10.548,10.5249,10.5249,10.5518,10.5982,10.6251,10.5944,10.5597,10.5905,10.6405,10.6405,10.6367,10.6405,10.6405,10.6405,10.6328,10.571,10.5828,10.579,10.579,10.5751,10.579,10.5905,10.5597,10.5251,10.4982,10.4713,10.4443,10.4211,10.4251,10.3674,10.252,10.202,10.1789,10.1673,10.1673,10.1673,10.1597,10.1443,10.125,10.1058,10.0635,10.0904,10.1096,10.0712,10.0596,10.6405,10.6405,10.6405,10.6405,10.6405,10.6405,10.6405,10.6405,10.6405,10.6405,10.6521,10.7059,10.7444,10.7675,10.8252,10.9213,11.006,10.9752,11.0252,11.0791,10.929,10.7982,10.679,10.4636,10.4174,10.4559,10.402,10.4636,10.602,10.6097,10.679,10.7829,10.7867,10.8021,10.7405,10.7175,10.6828,10.6521,10.6215,10.6332,10.66,10.7136,10.7405,10.7444,10.7947,10.8293,10.8332,10.8329,10.8175,10.7639,10.6597,10.5867,10.5982,10.6444,10.6444,10.621,10.7021,10.7523,10.7328,10.7521,10.8101,10.8139,10.8139,10.837,10.8367,10.8255,10.8293,10.8216,10.7639,10.6828,10.6328,10.6174,10.6367,10.6559,10.6521,10.6405,10.6213,10.629,10.6367,10.6405,10.6405,10.6405,10.6405,10.6405,10.6405,10.6405,10.6405,10.6405,10.6405,10.6405,10.6405,10.6405,10.6213,10.579,10.5713,10.5443,10.5213,10.4941,10.4864,10.4789,10.3674,10.2828,10.2751,10.2404,10.2058,10.2058,10.2097,10.1712,10.1443,10.1404,10.1327,10.1289,10.1289,10.1289,10.1289,10.679,10.6405,10.6405,10.6405,10.6405,10.6405,10.6405,10.6405,10.6405,10.6405,10.6482,10.6944,10.7098,10.7175,10.7982,10.879,10.9675,11.0483,11.1021,11.1137,11.0098,10.956,10.9213,10.7328,10.6328,10.5982,10.5405,10.602,10.6713,10.7175,10.7405,10.829,10.8713,10.8598,10.8329,10.829,10.8021,10.7752,10.76,10.76,10.7675,10.7979,10.8248,10.829,10.8678,10.8909,10.887,10.8867,10.8863,10.8713,10.8059,10.7559,10.76,10.7985,10.7944,10.7864,10.8255,10.8755,10.8482,10.8636,10.8829,10.8944,10.8906,10.8906,10.8863,10.8906,10.8867,10.8832,10.8482,10.8059,10.7677,10.7598,10.7559,10.7482,10.7213,10.7021,10.6944,10.6674,10.6405,10.6405,10.6405,10.6405,10.6405,10.6405,10.6405,10.6405,10.6405,10.6405,10.6405,10.6405,10.6405,10.6405,10.6405,10.629,10.629,10.6174,10.602,10.5867,10.5751,10.5674,10.5174,10.4443,10.3828,10.3443,10.302,10.2597,10.252,10.2097,10.175,10.1443,10.1366,10.1327,10.1327,10.1366,10.1366,10.7213,10.6405,10.6521,10.6597,10.6636,10.6751,10.679,10.6636,10.6597,10.6597,10.6405,10.6405,10.6521,10.6636,10.7367,10.8213,10.9367,11.0637,11.1483,11.1329,11.0791,11.056,11.0406,10.9483,10.8136,10.6097,10.6482,10.7059,10.7598,10.7752,10.8482,10.8521,10.9021,10.9483,10.9367,10.9329,10.9367,10.929,10.929,10.929,10.9329,10.9363,10.9402,10.9444,10.9483,10.956,10.956,10.9517,10.9397,10.9282,10.9286,10.929,10.9255,10.9101,10.8944,10.8898,10.9175,10.9367,10.9248,10.9325,10.9479,10.9282,10.9321,10.9359,10.9397,10.9517,10.9556,10.9402,10.9248,10.8979,10.8947,10.8675,10.8713,10.8675,10.8175,10.7944,10.7752,10.7175,10.6944,10.6405,10.6405,10.6405,10.6405,10.6405,10.6405,10.6405,10.6444,10.6444,10.6444,10.6405,10.6405,10.6405,10.6405,10.6405,10.6405,10.6405,10.629,10.629,10.6251,10.6213,10.6174,10.5636,10.4905,10.4482,10.4059,10.3597,10.3212,10.302,10.2558,10.1827,10.1789,10.2135,10.1943,10.1558,10.152,10.7213,10.6444,10.7213,10.7482,10.7598,10.8175,10.8059,10.7559,10.7482,10.7059,10.6559,10.6444,10.6597,10.6751,10.7367,10.8559,11.0021,11.106,11.1522,11.1522,11.1214,11.1137,11.0637,11.0791,11.0098,10.9483,10.8944,10.9098,10.9906,11.0175,10.9944,11.0637,11.0829,11.0906,11.0944,11.106,11.0983,11.1021,11.106,11.106,11.106,11.106,11.1055,11.1021,11.0983,11.0944,11.0983,11.1021,11.1055,11.1098,11.1098,11.1021,11.0791,11.0329,10.9786,10.9517,11.0171,11.056,11.0171,11.0555,11.094,11.1055,11.0863,11.0902,11.094,11.094,11.0752,11.0632,11.0248,10.9748,10.8979,10.9171,10.8975,10.894,10.8863,10.8713,10.8675,10.8367,10.7793,10.6944,10.6674,10.6597,10.6828,10.6944,10.6982,10.6944,10.6828,10.6751,10.6713,10.6559,10.6405,10.6405,10.6405,10.6405,10.6405,10.6405,10.6367,10.6367,10.6328,10.6328,10.629,10.6328,10.5944,10.5405,10.4866,10.4366,10.4097,10.3905,10.3558,10.2943,10.302,10.3135,10.2751,10.2366,10.2058,10.7175,10.6521,10.7328,10.7713,10.7829,10.8559,10.8675,10.8367,10.8329,10.8367,10.8367,10.8367,10.8098,10.8136,10.9136,11.0175,11.0829,11.1252,11.1522,11.1522,11.1483,11.1329,11.0906,11.1368,11.0906,11.0406,11.0214,11.0598,11.1406,11.106,11.1175,11.1329,11.1522,11.1714,11.2022,11.2099,11.2368,11.256,11.2714,11.2753,11.2796,11.2714,11.2753,11.2676,11.2329,11.2137,11.206,11.1637,11.1522,11.1483,11.1483,11.1522,11.1522,11.1483,11.1094,11.0594,11.1055,11.1406,11.0978,11.1329,11.1445,11.1483,11.1522,11.1522,11.1522,11.1445,11.1522,11.1406,11.1291,11.0709,11.0325,11.0171,11.0248,11.0171,10.9863,10.9598,10.9483,10.9175,10.8521,10.7829,10.7905,10.7947,10.787,10.787,10.7793,10.7559,10.729,10.7175,10.7098,10.679,10.6559,10.6405,10.6405,10.6405,10.6405,10.6405,10.6405,10.6405,10.6405,10.6405,10.6405,10.6367,10.6367,10.6136,10.5636,10.5097,10.4828,10.4597,10.4328,10.4059,10.3866,10.3674,10.3482,10.3134,10.2904,10.7213,10.6482,10.7521,10.7944,10.8098,10.9021,10.9329,10.9175,10.9175,10.9521,11.0137,11.0098,10.979,10.9867,11.0675,11.1598,11.1906,11.1791,11.1598,11.1829,11.1829,11.1791,11.1791,11.1868,11.1829,11.1637,11.1714,11.1829,11.156,11.1675,11.1829,11.2175,11.2099,11.2291,11.2868,11.2983,11.3488,11.3758,11.3989,11.3989,11.3989,11.3984,11.3984,11.3984,11.3291,11.2988,11.2911,11.2565,11.2252,11.2175,11.2137,11.2099,11.2137,11.2642,11.2637,11.2137,11.2022,11.1983,11.206,11.206,11.2175,11.1945,11.1791,11.1714,11.1522,11.1522,11.1522,11.1522,11.1483,11.1445,11.1252,11.1445,11.1406,11.1291,11.0786,11.0402,11.0329,11.0098,10.9867,10.9444,10.9409,10.9101,10.8793,10.8482,10.8287,10.8287,10.8017,10.8021,10.7829,10.7175,10.6867,10.6521,10.6405,10.6405,10.6405,10.6405,10.6405,10.6405,10.6405,10.6405,10.6405,10.6405,10.6405,10.6482,10.629,10.5828,10.5559,10.5326,10.5213,10.4982,10.4559,10.4328,10.4172,10.4057,10.3866,10.7213,10.6521,10.8098,10.8752,10.9021,11.0444,11.0714,11.006,11.0021,11.006,11.0444,11.0367,11.0752,11.1252,11.1368,11.2368,11.2868,11.2406,11.2099,11.2522,11.2599,11.256,11.2676,11.3407,11.3214,11.2945,11.3291,11.2791,11.2175,11.2368,11.2906,11.3368,11.3445,11.3753,11.3791,11.3868,11.3907,11.4022,11.406,11.4099,11.4137,11.4132,11.4132,11.4137,11.3945,11.383,11.3835,11.3565,11.345,11.3527,11.3565,11.3642,11.3719,11.3719,11.3791,11.3753,11.3714,11.3681,11.3565,11.3411,11.318,11.2676,11.2522,11.2175,11.1868,11.1637,11.1637,11.1522,11.1522,11.1522,11.1522,11.1522,11.1522,11.1483,11.1329,11.1214,11.1175,11.0868,11.0637,11.0675,11.0483,10.9829,10.9367,10.9094,10.8859,10.8821,10.8821,10.8787,10.8598,10.7944,10.7444,10.7175,10.7059,10.7059,10.7098,10.7021,10.6905,10.679,10.679,10.6751,10.6867,10.6944,10.6559,10.6559,10.6521,10.6405,10.6097,10.5944,10.6097,10.5905,10.5482,10.5251,10.5057,10.4903,10.4789,10.635,10.6537,10.7724,10.8791,10.9752,11.0983,11.1291,11.0983,11.0944,11.1214,11.1675,11.2175,11.2829,11.3253,11.2714,11.2829,11.3637,11.3176,11.3099,11.3368,11.3445,11.3445,11.3522,11.3753,11.383,11.3676,11.3714,11.3714,11.3137,11.3214,11.3714,11.3984,11.406,11.4253,11.4676,11.4753,11.5022,11.5291,11.5445,11.5445,11.5407,11.5407,11.5407,11.533,11.4945,11.4791,11.4638,11.4176,11.4022,11.3984,11.3984,11.3984,11.4137,11.4407,11.4753,11.4747,11.5176,11.4907,11.4137,11.406,11.383,11.3599,11.3368,11.3065,11.2406,11.2137,11.1945,11.1522,11.1522,11.1522,11.1522,11.1522,11.1522,11.1522,11.1522,11.1522,11.1522,11.1522,11.1368,11.1483,11.1483,11.0752,11.0214,11.0171,11.0056,11.0056,10.9863,10.9594,10.9367,10.8829,10.8406,10.8101,10.8062,10.8024,10.8101,10.8101,10.8059,10.7944,10.7982,10.7944,10.7829,10.7675,10.729,10.6867,10.6713,10.6597,10.6482,10.6328,10.6251,10.6328,10.6367,10.602,10.5672,10.5787,10.5636,10.5297,10.6468,10.7338,10.8436,10.961,11.0491,11.097,11.1147,11.1101,11.1736,11.2786,11.3714,11.4638,11.4945,11.4022,11.3945,11.4599,11.4214,11.4214,11.4253,11.433,11.433,11.4445,11.4445,11.4407,11.3637,11.4561,11.4714,11.4676,11.4676,11.4714,11.4638,11.4868,11.5061,11.5407,11.5599,11.583,11.6215,11.6292,11.633,11.633,11.6369,11.6369,11.6253,11.5984,11.5638,11.5478,11.5093,11.4708,11.4708,11.4785,11.4862,11.4939,11.533,11.5561,11.5676,11.6022,11.5869,11.5176,11.4824,11.4555,11.4324,11.406,11.3637,11.3176,11.2983,11.268,11.1983,11.1906,11.1791,11.156,11.1522,11.1522,11.1522,11.1522,11.1522,11.1522,11.1522,11.1522,11.1522,11.1522,11.1522,11.1214,11.1329,11.1368,11.1329,11.1021,11.0479,11.006,10.9598,10.9175,10.8793,10.8639,10.8598,10.8675,10.879,10.8906,10.9021,10.906,10.8906,10.8636,10.8329,10.7944,10.7521,10.7136,10.6751,10.6559,10.6482,10.6405,10.6405,10.6405,10.6405,10.6328,10.6405,10.6328,10.4276,10.6463,10.7279,10.7735,10.7971,10.8741,10.9579,11.0267,11.0267,11.1198,11.2812,11.4247,11.4978,11.5253,11.5253,11.5368,11.6138,11.4676,11.4714,11.5061,11.5215,11.5215,11.533,11.5676,11.6061,11.5907,11.5907,11.5984,11.6176,11.5869,11.6099,11.6292,11.5869,11.6176,11.6292,11.6215,11.6253,11.6484,11.6484,11.6561,11.6561,11.6561,11.6561,11.6638,11.6522,11.6407,11.6407,11.6176,11.6022,11.6022,11.5945,11.5945,11.5945,11.6099,11.6215,11.6253,11.633,11.6253,11.5984,11.5869,11.583,11.5208,11.467,11.4247,11.3939,11.3912,11.3488,11.2676,11.2406,11.2099,11.1752,11.1522,11.1522,11.1522,11.1522,11.1522,11.1522,11.1522,11.1522,11.1522,11.1522,11.1522,11.1522,11.1522,11.1522,11.1483,11.1445,11.0944,11.0637,11.0175,10.9752,10.9406,10.9175,10.9056,10.9056,10.921,10.9594,10.9671,10.9633,10.9444,10.9175,10.8867,10.8675,10.8213,10.779,10.7213,10.6674,10.6559,10.6444,10.6405,10.6405,10.6405,10.6405,10.6405,10.6405,10.3573,10.4893,10.5726,10.6983,10.844,10.878,10.9081,10.9364,10.9423,11.0664,11.2691,11.3457,11.4584,11.5625,11.6022,11.6176,11.6407,11.5945,11.5753,11.5907,11.6022,11.6022,11.6176,11.6253,11.6446,11.6484,11.6484,11.6484,11.6407,11.6516,11.6484,11.6484,11.6477,11.6484,11.6484,11.6484,11.6484,11.6484,11.6561,11.6676,11.7138,11.6792,11.6984,11.8023,11.6792,11.6907,11.7144,11.6715,11.6561,11.6484,11.6484,11.6484,11.6484,11.6484,11.6484,11.6484,11.6484,11.6484,11.6484,11.6484,11.633,11.6176,11.5715,11.5285,11.4785,11.4753,11.4022,11.3247,11.2714,11.2329,11.1675,11.1522,11.1522,11.1522,11.1522,11.1522,11.1522,11.1522,11.1522,11.1522,11.1522,11.1522,11.1522,11.1522,11.1522,11.1522,11.1483,11.1406,11.106,11.0868,11.0483,11.0291,11.0098,11.0137,11.0132,11.0286,11.044,11.0363,11.0286,11.0171,11.0021,10.979,10.956,10.9021,10.8406,10.7829,10.729,10.6751,10.6521,10.6444,10.6405,10.6405,10.6405,10.6405,10.6405,10.3513,10.4284,10.4871,10.6164,10.7685,10.8054,10.8268,10.8502,10.8502,10.9772,11.1969,11.248,11.3763,11.5425,11.633,11.6215,11.6138,11.5945,11.6061,11.6022,11.5984,11.6253,11.6407,11.64,11.6355,11.627,11.6439,11.6477,11.6502,11.6512,11.6502,11.6502,11.6474,11.6483,11.6484,11.6484,11.6484,11.6484,11.6561,11.6715,11.7215,11.6907,11.7061,11.8254,11.7446,11.7253,11.7491,11.7221,11.6792,11.6599,11.6484,11.6484,11.6484,11.6484,11.6484,11.6484,11.6484,11.6522,11.6484,11.6484,11.6484,11.6369,11.6369,11.5945,11.5554,11.5247,11.4439,11.2972,11.267,11.2368,11.1637,11.1522,11.1522,11.1522,11.1522,11.1522,11.1522,11.1522,11.1522,11.1522,11.1522,11.1522,11.1522,11.1522,11.1522,11.1522,11.1522,11.1483,11.1406,11.1252,11.1252,11.1175,11.1175,11.1291,11.1445,11.1175,11.0902,11.0978,11.094,11.1137,11.1021,11.0714,11.0291,10.9752,10.9098,10.8444,10.7944,10.7482,10.6944,10.6444,10.6444,10.6405,10.6405,10.6405,10.6405,10.4247,10.5054,10.5054,10.5174,10.5568,10.6093,10.6931,10.7628,10.7738,10.8785,11.0585,11.1914,11.3189,11.4394,11.5599,11.5715,11.5368,11.5291,11.5368,11.5484,11.5561,11.5869,11.6208,11.6355,11.5954,11.5573,11.5702,11.6008,11.6258,11.6011,11.6126,11.6253,11.6132,11.6315,11.6439,11.6484,11.6484,11.6484,11.6484,11.6599,11.6792,11.667,11.7131,11.81,11.783,11.7677,11.7907,11.7722,11.7221,11.6599,11.6676,11.6715,11.6715,11.6792,11.683,11.6792,11.6676,11.6561,11.6522,11.6484,11.6484,11.6484,11.6484,11.6176,11.5554,11.517,11.467,11.3247,11.2791,11.2329,11.1868,11.1522,11.1522,11.1522,11.1522,11.1522,11.1522,11.1522,11.1522,11.1522,11.1522,11.1522,11.1522,11.1522,11.1522,11.1522,11.1522,11.1522,11.1522,11.1522,11.1522,11.1522,11.1522,11.1522,11.1522,11.1522,11.1445,11.1522,11.1522,11.1522,11.1522,11.1252,11.0829,11.0406,10.9867,10.9252,10.8752,10.8213,10.7713,10.7213,10.6559,10.6405,10.6405,10.6521,10.6674,10.3072,10.4284,10.4284,10.4614,10.5201,10.6009,10.659,10.6888,10.7478,10.853,11.0136,11.1443,11.2729,11.3888,11.4401,11.4708,11.4484,11.4445,11.4561,11.5253,11.5086,11.583,11.6124,11.5817,11.5429,11.521,11.5154,11.4904,11.4705,11.4932,11.4818,11.483,11.5326,11.5946,11.6324,11.6484,11.6484,11.6484,11.6522,11.6715,11.7176,11.6907,11.7369,11.9061,11.8331,11.8061,11.8407,11.8023,11.7375,11.6753,11.683,11.7246,11.7407,11.7606,11.8106,11.7991,11.7799,11.7023,11.6715,11.6484,11.6484,11.6484,11.6446,11.633,11.6061,11.5522,11.4676,11.3714,11.2906,11.2329,11.1714,11.156,11.1522,11.1522,11.1522,11.1522,11.1522,11.1522,11.1522,11.1522,11.1522,11.1522,11.1522,11.1522,11.1522,11.1522,11.1522,11.1522,11.1522,11.1522,11.1522,11.1522,11.1522,11.1522,11.1522,11.1522,11.1522,11.1522,11.1522,11.1522,11.1522,11.1522,11.1406,11.0944,11.0521,11.006,10.9521,10.8983,10.8601,10.8062,10.7367,10.6828,10.679,10.7021,10.7328,10.2705,10.3843,10.388,10.4541,10.5532,10.6156,10.6376,10.6507,10.701,10.8149,10.9562,11.0329,11.1634,11.2997,11.351,11.3549,11.3516,11.322,11.3548,11.4229,11.398,11.4526,11.4922,11.506,11.445,11.4326,11.4173,11.3957,11.4066,11.3883,11.392,11.4017,11.4112,11.4633,11.5359,11.5905,11.6484,11.6484,11.6522,11.6676,11.6946,11.7061,11.7407,11.8407,11.8484,11.8016,11.8323,11.8016,11.7369,11.7023,11.7215,11.7785,11.8061,11.853,11.903,11.8876,11.826,11.7568,11.7144,11.6561,11.6522,11.6484,11.6484,11.6176,11.5907,11.533,11.4291,11.3407,11.295,11.2291,11.1675,11.156,11.1522,11.1522,11.1522,11.1522,11.1522,11.1522,11.1522,11.1522,11.1522,11.1522,11.1522,11.1522,11.1522,11.1522,11.1522,11.1522,11.1522,11.1522,11.1522,11.1522,11.1522,11.1522,11.1522,11.1522,11.1522,11.1522,11.1522,11.1522,11.1522,11.1522,11.1522,11.1522,11.1098,11.0675,11.0171,10.9713,10.929,10.879,10.8133,10.7633,10.729,10.7598,10.8098,10.3146,10.3806,10.3843,10.4761,10.6156,10.6339,10.6376,10.6376,10.6423,10.7374,10.882,10.8966,11.0262,11.2128,11.2503,11.2462,11.2379,11.1761,11.2252,11.2565,11.2599,11.3227,11.3757,11.394,11.3534,11.3181,11.3037,11.3225,11.363,11.3328,11.325,11.3203,11.2975,11.3449,11.4287,11.5191,11.5945,11.6108,11.6439,11.6561,11.6676,11.6638,11.7138,11.7869,11.7984,11.7862,11.7977,11.7785,11.7292,11.71,11.7337,11.7631,11.8054,11.8638,11.8946,11.8831,11.8138,11.7792,11.7375,11.6715,11.6561,11.6484,11.6484,11.5599,11.5055,11.5022,11.4099,11.3137,11.2483,11.206,11.1637,11.1598,11.1522,11.1522,11.1522,11.1522,11.1522,11.1522,11.1522,11.1522,11.1522,11.1522,11.1522,11.1522,11.1522,11.1522,11.1522,11.1522,11.1522,11.1522,11.1522,11.1522,11.1522,11.1522,11.1522,11.1522,11.1522,11.1522,11.1522,11.1522,11.1522,11.1522,11.1522,11.1522,11.1522,11.1214,11.0709,11.0363,11.0017,10.9517,10.921,10.8633,10.8325,10.8598,10.8944,10.2301,10.3036,10.3036,10.399,10.5458,10.6156,10.6376,10.646,10.701,10.759,10.7963,10.8605,10.9415,10.9961,10.9985,11.0393,11.0582,11.0826,11.1575,11.1814,11.1921,11.2864,11.3264,11.3181,11.2776,11.2468,11.2263,11.2213,11.2058,11.2,11.1679,11.1055,11.2036,11.2584,11.3179,11.4048,11.4816,11.5604,11.6052,11.6362,11.6484,11.6484,11.7023,11.7446,11.7677,11.7677,11.7669,11.7715,11.7253,11.683,11.7375,11.7792,11.7854,11.8554,11.8977,11.8238,11.7816,11.7554,11.6984,11.6638,11.6484,11.6484,11.6484,11.6407,11.5715,11.4945,11.4176,11.3176,11.2329,11.1945,11.1675,11.156,11.1522,11.1522,11.1522,11.1522,11.1522,11.1522,11.1522,11.1522,11.1522,11.1522,11.1522,11.1522,11.1522,11.1522,11.1522,11.1522,11.1522,11.1522,11.1522,11.1522,11.1522,11.1522,11.1522,11.1522,11.1522,11.1522,11.1522,11.1522,11.1522,11.1522,11.1522,11.1522,11.1522,11.1483,11.1291,11.094,11.0632,11.0902,11.0714,10.9979,10.9479,10.9713,10.9829,10.2265,10.2669,10.2705,10.3623,10.5128,10.6009,10.6376,10.6507,10.6931,10.7242,10.7616,10.7814,10.8284,10.8893,10.8705,10.8869,10.9572,10.9283,10.9719,11.055,11.1278,11.1506,11.1838,11.22,11.2065,11.1726,11.1594,11.1447,11.1184,11.1184,11.0891,11.0832,11.1713,11.1877,11.2253,11.2947,11.3822,11.4692,11.5434,11.6078,11.6369,11.6484,11.6869,11.7176,11.7337,11.733,11.733,11.7375,11.6984,11.6676,11.7375,11.7753,11.7939,11.8561,11.9023,11.8407,11.7939,11.7677,11.7215,11.6715,11.6561,11.6484,11.6484,11.6446,11.6061,11.5368,11.4368,11.333,11.256,11.1906,11.1714,11.1522,11.1522,11.1522,11.1522,11.1522,11.1522,11.1522,11.1522,11.1522,11.1522,11.1522,11.1522,11.1522,11.1522,11.1522,11.1522,11.1522,11.1522,11.1522,11.1522,11.1522,11.1522,11.1522,11.1522,11.1522,11.1522,11.1522,11.1522,11.1522,11.1522,11.1522,11.1522,11.1522,11.1522,11.1483,11.1445,11.1483,11.1329,11.1522,11.1522,11.0944,11.044,11.0598,11.0714,10.2705,10.2742,10.2852,10.377,10.5054,10.5972,10.6376,10.6376,10.646,10.6864,10.7232,10.6754,10.73,10.7999,10.7815,10.8032,10.8437,10.8298,10.8632,10.8967,10.9643,11.0166,11.0856,11.0905,11.1423,11.1272,11.1184,11.1111,11.1074,11.1111,11.1148,11.1148,11.1258,11.1397,11.1544,11.2022,11.2857,11.3784,11.4688,11.5439,11.6253,11.6484,11.6484,11.6522,11.6561,11.6561,11.6561,11.6522,11.6484,11.6753,11.7106,11.7606,11.7837,11.8145,11.853,11.8453,11.7753,11.7523,11.7176,11.6753,11.6561,11.6484,11.6484,11.6484,11.6176,11.533,11.417,11.3407,11.2637,11.1945,11.1598,11.1522,11.1522,11.1522,11.1522,11.1522,11.1522,11.156,11.1637,11.1637,11.1598,11.1637,11.1829,11.1868,11.1522,11.1522,11.1522,11.1522,11.1522,11.1522,11.1522,11.1522,11.1522,11.1522,11.1522,11.1522,11.1522,11.1522,11.1522,11.1522,11.1522,11.1522,11.1522,11.1522,11.1522,11.1522,11.1522,11.1522,11.1522,11.1522,11.1522,11.1522,11.1445,11.1291,11.1252,10.2705,10.2815,10.4027,10.4467,10.4394,10.5752,10.6376,10.6376,10.6376,10.6523,10.6633,10.6486,10.6617,10.7021,10.6992,10.7232,10.7633,10.7719,10.8533,10.9123,10.9436,10.9679,11.0671,11.0928,11.1184,11.1221,11.1148,11.0964,11.0744,11.0854,11.0928,11.0487,11.0817,11.1221,11.1221,11.1677,11.2124,11.3033,11.3775,11.4957,11.6201,11.6439,11.6484,11.6484,11.6484,11.6484,11.6484,11.6484,11.6484,11.6599,11.6676,11.6792,11.683,11.7106,11.7144,11.7106,11.7067,11.6984,11.6869,11.6676,11.6522,11.6484,11.6484,11.6484,11.6061,11.4978,11.4093,11.3445,11.2719,11.2022,11.1598,11.156,11.1522,11.1522,11.1522,11.1522,11.1522,11.1637,11.1752,11.1752,11.1714,11.1829,11.2022,11.1945,11.1637,11.1522,11.1522,11.1522,11.1522,11.1522,11.1522,11.1522,11.1522,11.1522,11.1522,11.1522,11.1522,11.1522,11.1522,11.1522,11.1522,11.1522,11.1522,11.1522,11.1522,11.1598,11.1598,11.156,11.1522,11.1522,11.1522,11.1522,11.1522,11.1445,11.1445,10.3036,10.2852,10.366,10.399,10.4137,10.5275,10.6046,10.6339,10.6376,10.6376,10.6376,10.6376,10.6376,10.6376,10.6376,10.6523,10.7037,10.7037,10.7342,10.8187,10.9312,10.9569,11.0193,11.0891,11.1148,11.1221,11.1184,11.1001,11.0634,11.0817,11.0928,11.0597,11.1038,11.1221,11.1221,11.1272,11.1594,11.2548,11.3043,11.4258,11.5792,11.6185,11.6446,11.6484,11.6484,11.6484,11.6484,11.6484,11.6484,11.6484,11.6522,11.6522,11.6561,11.6638,11.6561,11.6561,11.6561,11.6484,11.6484,11.6484,11.6484,11.6484,11.6484,11.6484,11.6215,11.517,11.4253,11.3483,11.2329,11.1598,11.156,11.1522,11.1522,11.1522,11.1522,11.1522,11.1522,11.156,11.1637,11.1637,11.1637,11.1632,11.1786,11.1752,11.1522,11.1522,11.1522,11.1522,11.1522,11.1522,11.1522,11.1522,11.1522,11.1522,11.1522,11.1522,11.1522,11.1522,11.1522,11.1522,11.1522,11.1522,11.1522,11.156,11.1637,11.1791,11.1791,11.1868,11.1637,11.1598,11.156,11.1522,11.156,11.1598,11.156,10.3329,10.2632,10.2815,10.3256,10.3953,10.4798,10.5642,10.6302,10.6376,10.6376,10.6376,10.6376,10.6376,10.6376,10.6376,10.6376,10.6449,10.6596,10.6633,10.7257,10.8321,10.9129,10.9863,11.0487,11.0964,11.1221,11.1221,11.1221,11.1111,11.1221,11.1221,11.1221,11.1221,11.1221,11.1221,11.1272,11.1631,11.2078,11.2698,11.3558,11.4692,11.5878,11.624,11.6369,11.6484,11.6484,11.6484,11.6484,11.6484,11.6484,11.6484,11.6484,11.6484,11.6484,11.6484,11.6484,11.6484,11.6484,11.6484,11.6484,11.6484,11.6484,11.6484,11.6369,11.6099,11.533,11.4368,11.3599,11.2445,11.1598,11.1598,11.1522,11.1522,11.1522,11.1522,11.1522,11.1522,11.1522,11.156,11.1598,11.1594,11.1588,11.1709,11.1675,11.1522,11.1522,11.1522,11.1522,11.1522,11.1522,11.1522,11.1522,11.1522,11.1522,11.1522,11.1522,11.1522,11.1522,11.1522,11.1522,11.1522,11.1522,11.156,11.1637,11.1752,11.206,11.2329,11.2483,11.2175,11.2022,11.2291,11.2406,11.1945,11.1945,11.1714,10.3036,10.1824,10.3109,10.377,10.4027,10.4761,10.5605,10.6302,10.6376,10.6376,10.6376,10.6376,10.6376,10.6376,10.6376,10.6376,10.6376,10.6376,10.689,10.7551,10.8175,10.8945,10.979,11.056,11.1074,11.1221,11.1221,11.1221,11.1221,11.1221,11.1221,11.1221,11.1221,11.1221,11.1221,11.1272,11.1397,11.1767,11.2243,11.3055,11.4005,11.5031,11.5809,11.6176,11.6484,11.6484,11.6484,11.6484,11.6484,11.6484,11.6484,11.6484,11.6484,11.6484,11.6484,11.6484,11.6484,11.6484,11.6484,11.6484,11.6484,11.6484,11.6484,11.6484,11.5984,11.5093,11.4522,11.4489,11.3373,11.1983,11.1714,11.156,11.1522,11.1522,11.1522,11.1522,11.1522,11.1598,11.1637,11.1714,11.1791,11.2022,11.2329,11.206,11.1598,11.156,11.156,11.1522,11.1522,11.1522,11.1522,11.1522,11.1522,11.1522,11.1522,11.1522,11.1522,11.1522,11.1522,11.1522,11.1522,11.1522,11.156,11.1598,11.206,11.2483,11.2714,11.2863,11.3253,11.3176,11.3483,11.3483,11.2868,11.2406,11.2291]},{"header":{"parameterUnit":"m.s-1","parameterCategory":1,"la1":31.0,"la2":29.5877,"lo1":-88.7671,"lo2":-86.6584,"dy":0.0162,"dx":0.0185,"nx":115,"ny":88,"refTime":"2026-04-30T00:00:00:Z","depth":0,"parameterNumber":3,"parameterNumberName":"V-component_of_WINDS"},"data":[0.0,0.0,0.0,0.0,0.0,0.0,0.0,0.0,0.0,0.0,0.0,0.0,0.0,0.0,0.0,0.0,0.0,0.0,0.0,0.0,0.0,0.0,0.0,0.0,0.0,0.0,0.0,0.0,0.0,0.0,0.0,0.0,0.0,0.0,0.0,0.0,0.0,0.0,0.0,0.0,0.0,0.0,0.0,0.0,0.0,0.0,0.0,0.0,0.0,0.0,0.0,0.0,0.0,0.0,0.0,0.0,0.0,0.0,0.0,0.0,0.0,0.0,0.0,0.0,0.0,0.0,0.0,0.0,0.0,0.0,0.0,0.0,0.0,0.0,0.0,0.0,0.0,0.0,0.0,0.0,0.0,0.0,0.0,0.0,0.0,0.0,0.0,0.0,0.0,0.0,0.0,0.0,0.0,0.0,0.0,0.0,0.0,0.0,0.0,0.0,0.0,0.0,0.0,0.0,0.0,0.0,0.0,0.0,0.0,0.0,0.0,0.0,0.0,0.0,0.0,0.0,0.0,0.0,0.0,0.0,0.0,0.0,0.0,0.0,0.0,0.0,0.0,0.0,0.0,0.0,0.0,0.0,0.0,0.0,0.0,0.0,0.0,0.0,0.0,0.0,0.0,0.0,0.0,0.0,0.0,0.0,0.0,0.0,0.0,0.0,0.0,0.0,0.0,0.0,0.0,0.0,0.0,0.0,0.0,0.0,0.0,0.0,0.0,0.0,0.0,0.0,0.0,0.0,0.0,0.0,0.0,0.0,0.0,0.0,0.0,0.0,0.0,0.0,0.0,0.0,0.0,0.0,0.0,0.0,0.0,0.0,0.0,0.0,0.0,0.0,0.0,0.0,0.0,0.0,0.0,0.0,0.0,0.0,0.0,0.0,0.0,0.0,0.0,0.0,0.0,0.0,0.0,0.0,0.0,0.0,0.0,0.0,0.0,0.0,0.0,0.0,0.0,0.0,0.0,0.0,0.0,0.0,0.0,0.0,0.0,0.0,0.0,0.0,0.0,0.0,0.0,0.0,0.0,0.0,0.0,0.0,0.0,0.0,0.0,0.0,0.0,0.0,0.0,0.0,0.0,0.0,0.0,0.0,0.0,0.0,0.0,0.0,0.0,0.0,0.0,0.0,0.0,0.0,0.0,0.0,0.0,0.0,0.0,0.0,0.0,0.0,0.0,0.0,0.0,0.0,0.0,0.0,0.0,0.0,0.0,0.0,0.0,0.0,0.0,0.0,0.0,0.0,0.0,0.0,0.0,0.0,0.0,0.0,0.0,0.0,0.0,0.0,0.0,0.0,0.0,0.0,0.0,0.0,0.0,0.0,0.0,0.0,0.0,0.0,0.0,0.0,0.0,0.0,0.0,0.0,0.0,0.0,0.0,0.0,0.0,0.0,0.0,0.0,0.0,0.0,0.0,0.0,0.0,0.0,0.0,0.0,0.0,0.0,0.0,0.0,0.0,0.0,0.0,0.0,0.0,0.0,0.0,0.0,0.0,0.0,0.0,0.0,0.0,0.0,0.0,0.0,0.0,0.0,0.0,0.0,0.0,0.0,0.0,0.0,0.0,0.0,0.0,0.0,0.0,0.0,0.0,0.0,0.0,0.0,0.0,0.0,0.0,0.0,0.0,0.0,0.0,0.0,0.0,0.0,0.0,0.0,0.0,0.0,0.0,0.0,0.0,0.0,0.0,0.0,0.0,0.0,0.0,0.0,0.0,0.0,0.0,0.0,0.0,0.0,0.0,0.0,0.0,0.0,0.0,0.0,0.0,0.0,0.0,0.0,0.0,0.0,0.0,0.0,0.0,0.0,0.0,0.0,0.0,0.0,0.0,0.0,0.0,0.0,0.0,0.0,0.0,0.0,0.0,0.0,0.0,0.0,0.0,0.0,0.0,0.0,0.0,0.0,0.0,0.0,0.0,0.0,0.0,0.0,0.0,0.0,0.0,0.0,0.0,0.0,0.0,0.0,0.0,0.0,0.0,0.0,0.0,0.0,0.0,0.0,0.0,0.0,0.0,0.0,0.0,0.0,0.0,0.0,0.0,0.0,0.0,0.0,0.0,0.0,0.0,0.0,0.0,0.0,0.0,0.0,0.0,0.0,0.0,0.0,0.0,0.0,0.0,0.0,0.0,0.0,0.0,0.0,0.0,0.0,0.0,0.0,0.0,0.0,0.0,0.0,0.0,0.0,0.0,0.0,0.0,0.0,0.0,0.0,0.0,0.0,0.0,0.0,0.0,0.0,0.0,0.0,0.0,0.0,0.0,0.0,0.0,0.0,0.0,0.0,0.0,0.0,0.0,0.0,0.0,0.0,0.0,0.0,0.0,0.0,0.0,0.0,0.0,0.0,0.0,0.0,0.0,0.0,0.0,0.0,0.0,0.0,0.0,0.0,0.0,0.0,0.0,0.0,0.0,0.0,0.0,0.0,0.0,0.0,0.0,0.0,0.0,0.0,0.0,0.0,0.0,0.0,0.0,0.0,0.0,0.0,0.0,0.0,0.0,0.0,0.0,0.0,0.0,0.0,0.0,0.0,0.0,0.0,0.0,0.0,0.0,0.0,0.0,0.0,0.0,0.0,0.0,0.0,0.0,0.0,0.0,0.0,0.0,0.0,0.0,0.0,0.0,0.0,0.0,0.0,0.0,0.0,0.0,0.0,0.0,0.0,0.0,0.0,0.0,0.0,0.0,0.0,0.0,0.0,0.0,0.0,0.0,0.0,0.0,0.0,0.0,0.0,0.0,0.0,0.0,0.0,0.0,0.0,0.0,0.0,0.0,0.0,0.0,0.0,0.0,0.0,0.0,0.0,0.0,0.0,0.0,0.0,0.0,0.0,0.0,0.0,0.0,0.0,0.0,0.0,0.0,0.0,0.0,0.0,0.0,0.0,0.0,0.0,0.0,0.0,0.0,0.0,0.0,0.0,0.0,0.0,0.0,0.0,0.0,0.0,0.0,0.0,0.0,0.0,0.0,0.0,0.0,0.0,0.0,0.0,0.0,0.0,0.0,0.0,0.0,0.0,0.0,0.0,0.0,0.0,0.0,0.0,0.0,0.0,0.0,0.0,0.0,0.0,0.0,0.0,0.0,0.0,0.0,0.0,0.0,0.0,0.0,0.0,0.0,0.0,0.0,0.0,0.0,0.0,0.0,0.0,0.0,0.0,0.0,0.0,0.0,0.0,0.0,0.0,0.0,0.0,0.0,0.0,0.0,0.0,0.0,0.0,0.0,0.0,0.0,0.0,0.0,0.0,0.0,0.0,0.0,0.0,0.0,0.0,0.0,0.0,0.0,0.0,0.0,0.0,0.0,0.0,0.0,0.0,0.0,0.0,0.0,0.0,0.0,0.0,0.0,0.0,0.0,0.0,0.0,0.0,0.0,0.0,0.0,0.0,0.0,0.0,0.0,0.0,0.0,0.0,0.0,0.0,0.0,0.0,0.0,0.0,0.0,0.0,0.0,0.0,0.0,0.0,0.0,0.0,0.0,0.0,0.0,0.0,0.0,0.0,0.0,0.0,0.0,0.0,0.0,0.0,0.0,0.0,0.0,0.0,0.0,0.0,0.0,0.0,0.0,0.0,0.0,0.0,0.0,0.0,0.0,0.0,0.0,0.0,0.0,0.0,0.0,0.0,0.0,0.0,0.0,0.0,0.0,0.0,0.0,0.0,0.0,0.0,0.0,0.0,0.0,0.0,0.0,0.0,0.0,0.0,0.0,0.0,0.0,0.0,0.0,0.0,0.0,0.0,0.0,0.0,0.0,0.0,0.0,0.0,0.0,0.0,0.0,0.0,0.0,0.0,0.0,0.0,0.0,0.0,0.0,0.0,0.0,0.0,0.0,0.0,0.0,0.0,0.0,0.0,0.0,0.0,0.0,0.0,0.0,0.0,0.0,0.0,0.0,0.0,0.0,0.0,0.0,0.0,0.0,0.0,0.0,0.0,0.0,0.0,0.0,0.0,0.0,0.0,0.0,0.0,0.0,0.0,0.0,0.0,0.0,0.0,0.0,0.0,0.0,0.0,0.0,0.0,0.0,0.0,0.0,0.0,0.0,0.0,0.0,0.0,0.0,0.0,0.0,0.0,0.0,0.0,0.0,0.0,0.0,0.0,0.0,0.0,0.0,0.0,0.0,0.0,0.0,0.0,0.0,0.0,0.0,0.0,0.0,0.0,0.0,0.0,0.0,0.0,0.0,0.0,0.0,0.0,0.0,0.0,0.0,0.0,0.0,0.0,0.0,0.0,0.0,0.0,0.0,0.0,0.0,0.0,-0.6145,0.0,0.0,0.0,0.0,0.0,0.0,0.0,0.0,0.0,0.0,0.0,0.0,0.0,0.0,0.0,0.0,0.0,0.0,0.0,0.0,0.0,0.0,0.0,0.0,0.0,0.0,0.0,0.0,0.0,0.0,0.0,0.0,0.0,0.0,0.0,0.0,0.0,0.0,0.0,0.0,0.0,0.0,0.0,0.0,0.0,0.0,0.0,0.0,0.0,0.0,0.0,0.0,0.0,0.0,0.0,0.0,0.0,0.0,0.0,0.0,0.0,0.0,0.0,0.0,0.0,0.0,0.0,0.0,0.0,0.0,0.0,0.0,0.0,0.0,0.0,0.0,0.0,0.0,0.0,0.0,0.0,0.0,0.0,0.0,0.0,0.0,0.0,0.0,0.0,0.0,0.0,0.0,0.0,0.0,0.0,0.0,0.0,0.0,0.0,0.0,0.0,0.0,0.0,0.0,0.0,0.0,0.0,0.0,0.0,0.0,-0.4603,-0.4554,-0.455,-0.5134,-0.62,0.0,0.0,0.0,0.0,0.0,0.0,0.0,0.0,0.0,0.0,0.0,0.0,0.0,0.0,0.0,0.0,0.0,0.0,0.0,0.0,0.0,0.0,0.0,0.0,0.0,0.0,0.0,0.0,0.0,0.0,0.0,0.0,0.0,0.0,0.0,0.0,0.0,0.0,0.0,0.0,0.0,0.0,0.0,0.0,0.0,0.0,0.0,0.0,0.0,0.0,0.0,0.0,0.0,0.0,0.0,0.0,0.0,0.0,0.0,0.0,0.0,0.0,0.0,0.0,0.0,0.0,0.0,0.0,0.0,0.0,0.0,0.0,0.0,0.0,0.0,0.0,0.0,0.0,0.0,0.0,0.0,0.0,0.0,0.0,0.0,0.0,0.0,0.0,0.0,0.0,0.0,0.0,0.0,0.0,0.0,0.0,0.0,0.0,0.0,0.0,0.0,0.0,0.0,0.0,0.0,0.0,0.0,0.0,0.0,0.0,0.0,0.0,-0.2415,-0.3624,-0.6172,0.0,0.0,0.0,0.0,0.0,0.0,0.0,0.0,0.0,0.0,0.0,0.0,0.0,0.0,0.0,0.0,0.0,0.0,0.0,0.0,0.0,0.0,0.0,0.0,0.0,0.0,0.0,0.0,0.0,0.0,0.0,0.0,0.0,0.0,0.0,0.0,0.0,0.0,0.0,0.0,0.0,0.0,0.0,0.0,0.0,0.0,0.0,0.0,0.0,0.0,0.0,0.0,0.0,0.0,0.0,0.0,0.0,0.0,0.0,0.0,0.0,0.0,0.0,0.0,0.0,0.0,0.0,0.0,0.0,0.0,0.0,0.0,0.0,0.0,0.0,0.0,0.0,0.0,0.0,0.0,0.0,0.0,0.0,0.0,0.0,0.0,0.0,0.0,0.0,0.0,0.0,0.0,0.0,0.0,0.0,0.0,0.0,0.0,0.0,0.0,0.0,0.0,0.0,0.0,0.0,0.0,0.0,0.0,0.0,0.0,-0.0257,-0.0267,0.0,0.0,-0.5722,0.0,0.0,0.0,0.0,0.0,0.0,0.0,0.0,0.0,0.0,0.0,0.0,0.0,0.0,0.0,0.0,0.0,0.0,0.0,0.0,0.0,0.0,0.0,0.0,0.0,0.0,0.0,0.0,0.0,0.0,0.0,0.0,0.0,0.0,0.0,0.0,0.0,0.0,0.0,0.0,0.0,0.0,0.0,0.0,0.0,0.0,0.0,0.0,0.0,0.0,0.0,0.0,0.0,0.0,0.0,0.0,0.0,0.0,0.0,0.0,0.0,0.0,0.0,0.0,0.0,0.0,0.0,0.0,0.0,0.0,0.0,0.0,0.0,0.0,0.0,0.0,0.0,0.0,0.0,0.0,0.0,0.0,0.0,0.0,0.0,0.0,0.0,0.0,0.0,0.0,0.0,0.0,0.0,0.0,0.0,0.0,0.0,0.0,0.0,0.0,0.0,0.0,0.0,0.0,0.0,0.0,0.0,0.0,0.0,0.0,0.0,0.0,0.0,-0.0798,0.0,0.0,0.0,0.0,0.0,0.0,0.0,0.0,0.0,0.0,0.0,0.0,0.0,0.0,0.0,0.0,0.0,0.0,0.0,0.0,0.0,0.0,0.0,0.0,0.0,0.0,0.0,0.0,0.0,0.0,0.0,0.0,0.0,0.0,0.0,0.0,0.0,0.0,0.0,0.0,0.0,0.0,0.0,0.0,0.0,0.0,0.0,0.0,0.0,0.0,0.0,0.0,0.0,0.0,0.0,0.0,0.0,0.0,0.0,0.0,0.0,0.0,0.0,0.0,0.0,0.0,0.0,0.0,0.0,0.0,0.0,0.0,0.0,0.0,0.0,0.0,0.0,0.0,0.0,0.0,0.0,0.0,0.0,0.0,0.0,0.0,0.0,0.0,0.0,0.0,0.0,0.0,0.0,0.0,0.0,0.0,0.0,0.0,0.0,0.0,0.0,0.0,0.0,0.0,0.0,0.0,0.0,0.0,0.0,0.0,0.0,0.0,0.0,0.0,0.0,0.0,0.0,0.0,0.0,0.0,0.0,0.0,0.0,0.0,0.0,0.0,0.0,0.0,0.0,0.0,0.0,0.0,0.0,0.0,0.0,0.0,0.0,0.0,0.0,0.0,0.0,0.0,0.0,0.0,0.0,0.0,0.0,0.0,0.0,0.0,0.0,0.0,0.0,0.0,0.0,0.0,0.0,0.0,0.0,0.0,0.0,0.0,0.0,0.0,0.0,0.0,0.0,0.0,0.0,0.0,0.0,0.0,0.0,0.0,0.0,0.0,0.0,0.0,0.0,0.0,0.0,0.0,0.0,0.0,0.0,0.0,0.0,0.0,0.0,0.0,0.0,0.0,0.0,0.0,0.0,0.0,0.0,0.0,0.0,0.0,0.0,0.0,0.0,0.0,0.0,0.0,0.0,0.0,0.0,0.0,0.0,0.0,0.0,0.0,0.0,0.0,0.0,0.0,0.0,0.0,0.0,0.0,0.0,0.0,0.0,0.0,0.0,0.0,0.0,0.0,0.0,0.0,0.0,0.0,0.0,0.0,0.0,0.0,0.0,0.0,0.0,0.0,0.0,0.0,0.0,0.0,0.0,0.0,0.0,0.0,0.0,0.0,0.0,0.0,0.0,0.0,0.0,0.0,0.0,0.0,0.0,0.0,0.0,0.0,0.0,0.0,0.0,0.0,0.0,0.0,0.0,0.0,0.0,0.0,0.0,0.0,0.0,0.0,0.0,0.0,0.0,0.0,0.0,0.0,0.0,0.0,0.0,0.0,0.0,0.0,0.0,0.0,0.0,0.0,0.0,0.0,0.0,0.0,0.0,0.0,0.0,0.0,0.0,0.0,0.0,0.0,0.0,0.0,0.0,0.0,0.0,0.0,0.0,0.0,0.0,0.0,0.0,0.0,0.0,0.0,0.0,0.0,0.0,0.0,0.0,0.0,0.0,0.0,0.0,0.0,0.0,0.0,0.0,0.0,0.0,0.0,0.0,0.0,0.0,0.0,0.0,0.0,0.0,0.0,0.0,0.0,0.0,0.0,0.0,0.0,0.0,0.0,0.0,0.0,0.0,0.0,0.0,0.0,0.0,0.0,0.0,0.0,0.0,0.0,0.0,0.0,0.0,0.0,0.0,0.0,0.0,0.0,0.0,0.0,0.0,0.0,0.0,0.0,0.0,0.0,0.0,0.0,0.0,0.0,0.0,0.0,0.0,0.0,0.0,0.0,0.0,0.0,0.0,0.0,0.0,0.0,0.0,0.0,0.0,0.0,0.0,0.0,0.0,0.0,0.0,0.0,0.0,0.0,0.0,0.0,0.0,0.0,0.0,0.0,0.0,0.0,0.0,0.0,0.0,0.0,0.0,0.0,0.0,0.0,0.0,0.0,0.0,0.0,0.0,0.0,0.0,0.0,0.0,0.0,0.0,0.0,0.0,0.0,0.0,0.0,0.0,0.0,0.0,0.0,0.0,0.0,0.0,0.0,0.0,0.0,0.0,0.0,0.0,0.0,0.0,0.0,0.0,0.0,0.0,0.0,0.0,0.0,0.0,0.0,0.0,0.0,0.0,0.0,0.0,0.0,0.0,0.0,0.0,0.0,0.0,0.0,0.0,0.0,0.0,0.0,0.0,0.0,0.0,0.0,0.0,0.0,0.0,0.0,0.0,0.0,0.0,0.0,0.0,0.0,0.0,0.0,0.0,0.0,0.0,0.0,0.0,0.0,0.0,0.0,0.0,0.0,0.0,0.0,0.0,0.0,0.0,0.0,0.0,0.0,0.0,0.0,0.0,0.0,0.0,0.0,0.0,0.0,0.0,0.0,0.0,0.0,0.0,0.0,0.0,0.0,0.0,0.0,0.0,0.0,0.0,0.0,0.0,0.0,0.0,0.0,0.0,0.0,0.0,0.0,0.0,0.0,0.0,0.0,0.0,0.0,0.0,0.0,0.0,0.0,0.0,0.0,0.0,0.0,0.0,0.0,0.0,0.0,0.0,0.0,0.0,0.0,0.0,0.0,0.0,0.0,0.0,0.0,0.0,0.0,0.0,0.0,0.0,0.0,0.0,0.0,0.0,0.0,0.0,0.0,0.0,0.0,0.0,0.0,0.0,0.0,0.0,0.0,0.0,0.0,0.0,0.0,0.0,0.0,0.0,0.0,0.0,0.0,0.0,0.0,0.0,0.0,0.0,0.0,0.0,0.0,0.0,0.0,0.0,0.0,0.0,0.0,0.0,0.0,0.0,0.0,0.0,0.0,0.0,0.0,0.0,0.0,0.0,0.0,0.0,0.0,0.0,0.0,0.0,0.0,0.0,0.0,0.0,0.0,0.0,0.0,0.0,0.0,0.0,0.0,0.0,0.0,0.0,0.0,0.0,0.0,0.0,0.0,0.0,0.0,0.0,0.0,0.0,0.0,0.0,0.0,0.0,0.0,0.0,0.0,0.0,0.0,0.0,0.0,0.0,0.0,0.0,0.0,0.0,0.0,0.0,0.0,0.0,0.0,0.0,0.0,0.0,0.0,0.0,0.0,0.0,0.0,0.0,0.0,0.0,0.0,0.0,0.0,0.0,0.0,0.0,0.0,0.0,0.0,0.0,0.0,0.0,0.0,0.0,0.0,0.0,0.0,0.0,0.0,0.0,0.0,0.0,0.0,0.0,0.0,0.0,0.0,0.0,0.0,0.0,0.0,0.0,0.0,0.0,0.0,0.0,0.0,0.0,0.0,0.0,0.0,0.0,0.0,0.0,0.0,0.0,0.0,0.0,0.0,0.0,0.0,0.0,0.0,0.0,0.0,0.0,0.0,0.0,0.0,0.0,0.0,0.0,0.0,0.0,0.0,0.0,0.0,0.0,0.0,0.0,0.0,0.0,0.0,0.0,0.0,0.0,0.0,0.0,0.0,0.0,0.0,0.0,0.0,0.0,0.0,0.0,0.0,0.0,0.0,0.0,0.0,0.0,0.0,0.0,0.0,0.0,0.0,0.0,0.0,0.0,0.0,0.0,0.0,0.0,0.0,0.0,0.0,0.0,0.0,0.0,0.0,0.0,0.0,0.0,0.0,0.0,0.0,0.0,0.0,0.0,0.0,0.0,0.0,0.0,0.0,0.0,0.0,0.0,0.0,0.0,0.0,0.0,0.0,0.0,0.0,0.0,0.0,0.0,0.0,0.0,0.0,0.0,0.0,0.0,0.0,0.0,0.0,0.0,0.0,0.0,0.0,0.0,0.0,0.0,0.0,0.0,0.0,0.0,0.0,0.0,0.0,0.0,0.0,0.0,0.0,0.0,0.0,0.0,0.0,0.0,0.0,0.0,0.0,0.0,0.0,0.0,0.0,0.0,0.0,0.0,0.0,0.0,0.0,0.0,0.0,0.0,0.0,0.0,0.0,0.0,0.0,0.0,0.0,0.0,0.0,0.0,0.0,0.0,0.0,0.0,0.0,0.0,0.0,0.0,0.0,0.0,0.0,0.0,0.0,0.0,0.0,0.0,0.0,0.0,0.0,0.0,0.0,0.0,0.0,0.0,0.0,0.0,0.0,0.0,0.0,0.0,0.0,0.0,0.0,0.0,0.0,0.0,0.0,0.0,0.0,0.0,0.0,0.0,0.0,0.0,0.0,0.0,0.0,0.0,0.0,0.0,0.0,0.0,0.0,0.0,0.0,0.0,0.0,0.0,0.0,0.0,0.0,0.0,0.0,0.0,0.0,0.0,0.0,0.0,0.0,0.0,0.0,0.0,0.0,0.0,0.0,0.0,0.0,0.0,0.0,0.0,0.0,0.0,0.0,0.0,0.0,0.0,0.0,0.0,0.0,0.0,0.0,0.0,0.0,0.0,0.0,0.0,0.0,0.0,0.0,0.0,0.0,0.0,0.0,0.0,0.0,0.0,0.0,0.0,0.0,0.0,0.0,0.0,0.0,0.0,0.0,0.0,0.0,0.0,0.0,0.0,0.0,0.0,0.0,0.0,0.0,0.0,0.0,0.0,0.0,0.0,0.0,0.0,0.0,0.0,0.0,0.0,0.0,0.0,0.0,0.0,0.0,0.0,0.0,0.0,0.0,0.0,0.0,0.0,0.0,0.0,0.0,0.0,0.0,0.0,0.0,0.0,0.0,0.0,0.0,0.0,0.0,0.0,0.0,0.0,0.0,0.0,0.0,0.0,0.0,0.0,0.0,0.0,0.0,0.0,0.0,0.0,0.0,0.0,0.0,0.0,0.0,0.0,0.0,0.0,0.0,0.0,0.0,0.0,0.0,0.0,0.0,0.0,0.0,0.0,0.0,0.0,0.0,0.0,0.0,0.0,0.0,0.0,0.0,0.0,0.0,0.0,0.0,0.0,0.0,0.0,0.0,0.0,0.0,0.0,0.0,0.0,0.0,0.0,0.0,0.0,0.0,0.0,0.0,0.0,0.0,0.0,0.0,0.0,0.0,0.0,0.0,0.0,0.0,0.0,0.0,0.0,0.0,0.0,0.0,0.0,0.0,0.0,0.0,0.0,0.0,0.0,0.0,0.0,0.0,0.0,0.0,0.0,0.0,0.0,0.0,0.0,0.0,0.0,0.0,0.0,0.0,0.0,0.0,0.0,0.0,0.0,0.0,0.0,0.0,0.0,0.0,0.0,0.0,0.0,0.0,0.0,0.0,0.0,0.0,0.0,0.0,0.0,0.0,0.0,0.0,0.0,0.0,0.0,0.0,0.0,0.0,0.0,0.0,0.0,0.0,0.0,0.0,0.0,0.0,0.0,0.0,0.0,0.0,0.0,0.0,0.0,0.0,0.0,0.0,0.0,0.0,0.0,0.0,0.0,0.0,0.0,0.0,0.0,0.0,0.0,0.0,0.0,0.0,0.0,0.0,0.0,0.0,0.0,0.0,0.0,0.0,0.0,0.0,0.0,0.0,0.0,0.0,0.0,0.0,0.0,0.0,0.0,0.0,0.0,0.0,0.0,0.0,0.0,0.0,0.0,0.0,0.0,0.0,0.0,0.0,0.0,0.0,0.0,0.0,0.0,0.0,0.0,0.0,0.0,0.0,0.0,0.0,0.0,0.0,0.0,0.0,0.0,0.0,0.0,0.0,0.0,0.0,0.0,0.0,0.0,0.0,0.0,0.0,0.0,0.0,0.0,0.0,0.0,0.0,0.0,0.0,0.0,0.0,0.0,0.0,0.0,0.0,0.0,0.0,0.0,0.0,0.0,0.0,0.0,0.0,0.0,0.0,0.0,0.0,0.0,0.0,0.0,0.0,0.0,0.0,0.0,0.0,0.0,0.0,0.0,0.0,0.0,0.0,0.0,0.0,0.0,0.0,0.0,0.0,0.0,0.0,0.0,0.0,0.0,0.0,0.0,0.0,0.0,0.0,0.0,0.0,0.0,0.0,0.0,0.0,0.0,0.0,0.0,0.0,0.0,0.0,0.0,0.0,0.0,0.0,0.0,0.0,0.0,0.0,0.0,0.0,0.0,0.0,0.0,0.0,0.0,0.0,0.0,0.0,0.0,0.0,0.0,0.0,0.0,0.0,0.0,0.0,0.0,0.0,0.0,0.0,0.0,0.0,0.0,0.0,0.0,0.0,0.0,0.0,0.0,0.0,0.0,0.0,0.0,0.0,0.0,0.0,0.0,0.0,0.0,0.0,0.0,0.0,0.0,0.0,0.0,0.0,0.0,0.0,0.0,0.0,0.0,0.0,0.0,0.0,0.0,0.0,0.0,0.0,0.0,0.0,0.0,0.0,0.0,0.0,0.0,0.0,0.0,0.0,0.0,0.0,0.0,0.0,0.0,0.0,0.0,0.0,0.0,0.0,0.0,0.0,0.0,0.0,-0.6349,0.0,0.0,0.0,0.0,0.0,0.0,0.0,0.0,0.0,0.0,0.0,0.0,0.0,0.0,0.0,0.0,0.0,0.0,0.0,0.0,0.0,0.0,0.0,0.0,0.0,0.0,0.0,0.0,0.0,0.0,0.0,0.0,0.0,0.0,0.0,0.0,0.0,0.0,0.0,0.0,0.0,0.0,0.0,0.0,0.0,0.0,0.0,0.0,0.0,0.0,0.0,0.0,0.0,0.0,0.0,0.0,0.0,0.0,0.0,0.0,0.0,0.0,0.0,0.0,0.0,0.0,0.0,0.0,0.0,0.0,0.0,0.0,0.0,0.0,0.0,0.0,0.0,0.0,0.0,0.0,0.0,0.0,0.0,0.0,0.0,0.0,0.0,0.0,0.0,0.0,0.0,0.0,0.0,0.0,0.0,0.0,0.0,0.0,0.0,0.0,0.0,0.0,0.0,0.0,0.0,0.0,0.0,0.0,0.0,0.0,0.0,0.0,0.0,0.0,0.0,0.0,0.0,0.0,0.0,0.0,0.0,0.0,0.0,0.0,0.0,0.0,0.0,0.0,0.0,0.0,0.0,0.0,0.0,0.0,0.0,0.0,0.0,0.0,0.0,0.0,0.0,0.0,0.0,0.0,0.0,0.0,0.0,0.0,0.0,0.0,0.0,0.0,0.0,0.0,0.0,0.0,0.0,0.0,0.0,0.0,0.0,0.0,0.0,0.0,0.0,0.0,0.0,0.0,0.0,0.0,0.0,0.0,0.0,0.0,0.0,0.0,0.0,0.0,0.0,0.0,0.0,0.0,0.0,0.0,0.0,0.0,0.0,0.0,0.0,0.0,0.0,0.0,0.0,0.0,0.0,0.0,0.0,0.0,0.0,0.0,0.0,0.0,0.0,0.0,0.0,0.0,0.0,0.0,0.0,0.0,0.0,0.0,0.0,0.0,0.0,0.0,0.0,0.0,0.0,0.0,-0.6628,-0.6635,0.0,0.0,0.0,0.0,0.0,0.0,0.0,0.0,-0.6388,0.0,0.0,0.0,0.0,0.0,0.0,0.0,0.0,0.0,0.0,0.0,0.0,0.0,0.0,0.0,0.0,0.0,0.0,0.0,0.0,0.0,0.0,0.0,0.0,0.0,0.0,0.0,0.0,0.0,0.0,0.0,0.0,0.0,0.0,0.0,0.0,0.0,0.0,0.0,0.0,0.0,0.0,0.0,0.0,0.0,0.0,0.0,0.0,0.0,0.0,0.0,0.0,0.0,0.0,0.0,0.0,0.0,0.0,0.0,0.0,0.0,0.0,0.0,0.0,0.0,0.0,0.0,0.0,0.0,0.0,0.0,0.0,0.0,0.0,0.0,0.0,0.0,0.0,0.0,0.0,0.0,0.0,0.0,0.0,0.0,0.0,0.0,0.0,0.0,0.0,0.0,0.0,0.0,0.0,0.0,0.0,0.0,0.0,0.0,0.0,0.0,0.0,0.0,0.0,0.0,-0.5443,-0.3431,0.0,0.0,0.0,0.0,0.0,0.0,0.0,0.0,-0.545,0.0,0.0,0.0,0.0,0.0,0.0,0.0,0.0,0.0,0.0,0.0,0.0,0.0,0.0,0.0,0.0,0.0,0.0,0.0,0.0,0.0,0.0,0.0,0.0,0.0,0.0,0.0,0.0,0.0,0.0,0.0,0.0,0.0,0.0,0.0,0.0,0.0,0.0,0.0,0.0,0.0,0.0,0.0,0.0,0.0,0.0,0.0,0.0,0.0,0.0,0.0,0.0,0.0,0.0,0.0,0.0,0.0,0.0,0.0,0.0,0.0,0.0,0.0,0.0,0.0,0.0,0.0,0.0,0.0,0.0,0.0,0.0,0.0,0.0,0.0,0.0,0.0,0.0,0.0,0.0,0.0,0.0,0.0,0.0,0.0,0.0,0.0,0.0,0.0,0.0,0.0,0.0,0.0,0.0,0.0,0.0,0.0,0.0,0.0,0.0,0.0,0.0,0.0,0.0,-0.4589,-0.4153,-0.0481,0.0,0.0,0.0,0.0,0.0,0.0,-0.401,-0.551,0.0,0.0,0.0,0.0,0.0,0.0,0.0,0.0,0.0,0.0,0.0,0.0,0.0,0.0,0.0,0.0,0.0,0.0,0.0,0.0,0.0,0.0,0.0,0.0,0.0,0.0,0.0,0.0,0.0,0.0,0.0,0.0,0.0,0.0,0.0,0.0,0.0,0.0,0.0,0.0,0.0,0.0,0.0,0.0,0.0,0.0,0.0,0.0,0.0,0.0,0.0,0.0,0.0,0.0,0.0,0.0,0.0,0.0,0.0,0.0,0.0,0.0,0.0,0.0,0.0,0.0,0.0,0.0,0.0,0.0,0.0,0.0,0.0,0.0,0.0,0.0,0.0,0.0,0.0,0.0,0.0,0.0,0.0,0.0,0.0,0.0,0.0,0.0,0.0,0.0,0.0,0.0,0.0,0.0,0.0,0.0,0.0,0.0,0.0,0.0,0.0,0.0,0.0,0.0,0.0,-0.43,0.0,0.0,0.0,0.0,0.0,0.0,0.0,-0.3248,0.0,0.0,0.0,0.0,0.0,0.0,0.0,0.0,0.0,0.0,0.0,0.0,0.0,0.0,0.0,0.0,0.0,0.0,0.0,0.0,0.0,0.0,0.0,0.0,0.0,0.0,0.0,0.0,0.0,0.0,0.0,0.0,0.0,0.0,0.0,0.0,0.0,0.0,0.0,0.0,0.0,0.0,0.0,0.0,0.0,0.0,0.0,0.0,0.0,0.0,0.0,0.0,0.0,0.0,0.0,0.0,0.0,0.0,0.0,0.0,0.0,0.0,0.0,0.0,0.0,0.0,0.0,0.0,0.0,0.0,0.0,0.0,0.0,0.0,0.0,0.0,0.0,0.0,0.0,0.0,0.0,0.0,0.0,0.0,0.0,0.0,0.0,0.0,0.0,0.0,0.0,0.0,0.0,0.0,0.0,0.0,0.0,0.0,0.0,0.0,0.0,0.0,0.0,0.0,0.0,0.0,-0.0649,-0.0129,0.0,0.0,0.0,0.0,0.0,0.0,-0.0412,0.0,0.0,0.0,0.0,0.0,0.0,0.0,0.0,0.0,0.0,0.0,0.0,0.0,0.0,0.0,0.0,0.0,0.0,0.0,0.0,0.0,0.0,0.0,0.0,0.0,0.0,0.0,0.0,0.0,0.0,0.0,0.0,0.0,0.0,0.0,0.0,0.0,0.0,0.0,0.0,0.0,0.0,0.0,0.0,0.0,0.0,0.0,0.0,0.0,0.0,0.0,0.0,0.0,0.0,0.0,0.0,0.0,0.0,0.0,0.0,0.0,0.2768,0.8387,0.6955,0.4084,0.0,0.0,0.0,0.0,0.0,0.0,0.0,0.0,0.0,0.0,0.0,0.0,0.0,0.0,0.0,0.0,0.0,0.0,0.0,0.0,0.0,0.0,0.0,0.0,0.0,0.0,0.0,0.0,0.0,0.0,0.0,0.0,0.0,0.0,0.0,0.0,0.0,0.0,0.0,0.0,0.0,0.0,0.0,0.0,0.0,0.0,0.0,0.0,0.0,0.0,0.0,0.0,0.0,0.0,0.0,0.0,0.0,0.0,0.0,0.0,0.0,0.0,0.0,0.0,0.0,0.0,0.0,0.0,0.0,0.0,0.0,0.0,0.0,0.0,0.0,0.0,0.0,0.0,0.0,0.0,0.0,0.0,0.0,0.0,0.0,0.0,0.0,0.0,0.0,0.0,0.0,0.0,0.0,0.0,0.0,0.0,0.0,0.0,0.0,0.0,0.0,0.0,0.0,0.0,0.0,0.0,0.372,0.1211,0.0567,0.1958,0.3365,0.6904,1.2989,1.2253,0.0,0.0,0.0,0.0,0.0,0.0,0.0,0.0,0.0,0.0,0.0,0.0,0.0,0.0,0.0,0.0,0.0,0.0,0.0,0.0,0.0,0.0,0.0,0.0,0.0,0.0,0.0,0.0,0.0,0.0,0.0,0.0,0.0,0.0,0.0,0.0,0.0,0.0,0.0,0.0,0.0,0.0,0.0,0.0,0.0,0.0,0.0,0.0,0.0,0.0,0.0,0.0,0.0,0.0,0.0,0.0,0.0,0.0,0.0,0.0,0.0,0.0,0.0,0.0,0.0,0.0,0.0,0.0,0.0,0.0,0.0,0.0,0.0,0.0,0.0,0.0,0.0,0.0,0.0,0.0,0.0,0.0,0.0,0.0,0.0,0.0,0.0,0.0,0.0,0.0,0.0,0.0,0.0,0.0,0.0,0.0,0.0,0.0,0.0,0.0,0.0,0.0,0.0,0.0,0.0,0.0,0.0,1.3831,0.486,0.2461,0.7031,1.2279,1.2825,0.8288,1.2006,1.2662,0.0,0.0,0.0,0.0,0.0,0.0,0.0,0.0,0.0,0.0,0.0,0.0,0.0,0.0,0.0,0.0,0.0,0.0,0.0,0.0,0.0,0.0,0.0,0.0,0.0,0.0,0.0,0.0,0.0,0.0,0.0,0.0,0.0,0.0,0.0,0.0,0.0,0.0,0.0,0.0,0.0,0.0,0.0,0.0,0.0,0.0,0.0,0.0,0.0,0.0,0.0,0.0,0.0,0.0,0.0,0.0,0.0,0.0,0.0,0.0,0.0,0.0,0.0,0.0,0.0,0.0,0.0,0.0,0.0,0.0,0.0,0.0,0.0,0.0,0.0,0.0,0.0,0.0,0.0,0.0,0.0,0.0,0.0,0.0,0.0,0.0,0.0,0.0,0.0,0.0,0.0,0.0,0.0,0.0,0.0,0.0,0.0,0.0,0.0,0.0,0.0,0.0,0.0,0.0,0.0,1.4538,1.5197,1.1423,1.0554,1.2852,1.5017,1.4991,1.297,1.3406,1.3458,0.0,0.0,0.0,0.0,0.0,0.0,0.0,0.0,0.0,0.0,0.0,0.0,0.0,0.0,0.0,0.0,0.0,0.0,0.0,0.0,0.0,0.0,0.0,0.0,0.0,0.0,0.0,0.0,0.0,0.0,0.0,0.0,0.0,0.0,0.0,0.0,0.0,0.0,0.0,0.0,0.0,0.0,0.0,0.0,0.0,0.0,0.0,0.0,0.0,0.0,0.0,0.0,0.0,0.0,0.0,0.0,0.0,0.0,0.0,0.0,0.0,0.0,0.0,0.0,0.0,0.0,0.0,0.0,0.0,0.0,0.0,0.0,0.0,0.0,0.0,0.0,0.0,0.0,0.0,0.0,0.0,0.0,0.0,0.0,0.0,0.0,0.0,0.0,0.0,0.0,0.0,0.0,0.0,0.0,0.0,0.0,0.0,0.0,0.0,0.0,0.0,0.0,0.0,0.0,0.0,1.3038,1.4449,1.4835,1.5267,1.5872,1.6275,1.6268,1.6021,1.4738,1.4117,0.0,0.0,0.0,0.0,0.0,0.0,0.0,0.0,0.0,0.0,0.0,0.0,0.0,0.0,0.0,0.0,0.0,0.0,0.0,0.0,0.0,0.0,0.0,0.0,0.0,0.0,0.0,0.0,0.0,0.0,0.0,0.0,0.0,0.0,0.0,0.0,0.0,0.0,0.0,0.0,0.0,0.0,0.0,0.0,0.0,0.0,0.0,0.0,0.0,0.0,0.0,0.0,0.0,0.0,0.0,0.0,0.0,0.0,0.0,0.0,0.0,0.0,0.0,0.0,0.0,0.0,0.0,0.0,0.0,0.0,0.0,0.0,0.0,0.0,0.0,0.0,0.0,0.0,0.0,0.0,0.0,0.0,0.0,0.0,0.0,0.0,0.0,0.0,0.0,0.0,0.0,0.0,0.0,0.0,0.0,0.0,0.0,0.0,0.0,0.0,0.0,0.0,0.0,0.0,0.0,0.0,1.2857,1.4167,1.495,1.5649,1.6546,1.656,1.5662,1.5323,1.4935,1.4207,0.0,0.0,0.0,0.0,0.0,0.0,0.0,0.0,0.0,0.0,0.0,0.0,0.0,0.0,0.0,0.0,0.0,0.0,0.0,0.0,0.0,0.0,0.0,0.0,0.0,0.0,0.0,0.0,0.0,0.0,0.0,0.0,0.0,0.0,0.0,0.0,0.0,0.0,0.0,0.0,0.0,0.0,0.0,0.0,0.0,0.0,0.0,0.0,0.0,0.0,0.0,0.0,0.0,0.0,0.0,0.0,0.0,0.0,0.0,0.0,0.0,0.0,0.0,0.0,0.0,0.0,0.0,0.0,0.0,0.0,0.0,0.0,0.0,0.0,0.0,0.0,0.0,0.8506,0.818,0.0,0.0,0.0,0.0,0.0,0.0,0.0,0.0,0.0,0.0,0.0,1.0969,1.0843,0.0,0.0,0.0,0.0,0.0,0.0,0.0,0.0,0.0,0.0,0.0,0.0,1.1476,1.2927,1.4129,1.5083,1.5778,1.6179,1.6241,1.5927,1.535,1.4486,1.3439,0.0,0.0,0.0,0.0,0.0,0.0,0.0,0.0,0.0,0.0,0.0,0.0,0.0,0.0,0.0,0.0,0.0,0.0,0.0,0.0,0.0,0.0,0.0,0.0,0.0,0.0,0.0,0.0,0.0,0.0,0.0,0.0,0.0,0.0,0.0,0.0,0.0,0.0,0.0,0.0,0.0,0.0,0.0,0.0,0.0,0.0,0.0,0.0,0.0,0.0,0.0,0.0,0.0,0.0,0.0,0.0,0.0,0.0,0.0,0.0,0.0,0.0,0.0,0.0,0.0,0.0,0.0,0.0,0.0,0.0,0.0,0.0,0.0,0.0,0.0,0.0,0.0,0.0,0.0,0.9171,0.0,0.0,0.0,0.0,0.0,0.0,0.0,0.0,1.1249,1.1861,1.166,1.1945,1.1938,0.0,1.112,0.9417,0.0,0.0,0.0,0.0,0.0,0.0,0.0,0.0,1.2381,1.2536,1.4021,1.5109,1.5832,1.5947,1.6001,1.5981,1.5375,1.4499,1.3297,1.1579,1.0107,0.0,0.0,0.0,0.0,0.0,0.0,0.0,0.0,0.0,0.0,0.0,0.0,0.0,0.0,0.0,0.0,0.0,0.0,0.0,0.0,0.0,0.0,0.0,0.0,0.0,0.0,0.0,0.0,0.0,0.0,0.0,0.0,0.0,0.0,0.0,0.0,0.0,0.0,0.0,0.0,0.0,0.0,0.0,0.0,0.0,0.0,0.0,0.0,0.0,0.0,0.0,0.0,0.0,0.0,0.0,0.0,0.0,0.0,0.0,0.0,0.0,0.0,0.0,0.0,0.0,0.0,0.0,0.0,0.0,0.0,0.0,0.0,0.0,0.0,1.0609,1.0595,0.0,1.0412,0.0,0.0,0.0,0.0,0.0,0.0,0.0,0.0,1.2474,1.3112,1.301,1.3017,1.3017,1.2996,1.2834,1.2298,1.1396,1.0397,0.0,0.0,0.0,0.0,0.0,0.0,1.2173,1.1568,1.3852,1.5391,1.5616,1.5636,1.5832,1.5805,1.5229,1.4506,1.3888,1.2166,1.1028,1.0796,0.9017,0.0,0.0,0.0,0.0,0.0,0.0,0.0,0.0,0.0,0.0,0.0,0.0,0.0,0.0,0.0,0.0,0.0,0.0,0.0,0.0,0.0,0.0,0.0,0.0,0.0,0.0,0.0,0.0,0.0,0.0,0.0,0.0,0.0,0.0,0.0,0.0,0.0,0.0,0.0,0.0,0.0,0.0,0.0,0.0,0.0,0.0,0.0,0.0,0.0,0.0,0.0,0.0,0.0,0.0,0.0,0.0,0.0,0.0,0.0,0.0,0.0,0.0,0.0,0.0,1.2481,0.0,0.0,0.0,0.0,1.1348,1.1857,1.2725,1.261,1.2325,1.1918,1.1775,0.0,0.0,0.0,0.0,0.0,0.0,1.1626,1.24,1.3044,1.3593,1.4068,1.4177,1.417,1.4061,1.381,1.3444,1.2969,1.2395,1.0987,0.9106,0.0,0.0,0.0,0.0,1.2176,1.2301,1.4044,1.51,1.5334,1.5341,1.5288,1.5371,1.5153,1.4794,1.4529,1.2889,1.2032,1.1934,1.0677,0.0,0.0,0.0,0.0,0.0,0.0,0.0,0.0,0.0,0.0,0.0,0.0,0.0,0.0,0.0,0.0,0.0,0.0,0.0,0.0,0.0,0.0,0.0,0.0,0.0,0.0,0.0,0.0,0.0,0.0,0.0,0.0,0.0,0.0,0.0,0.0,0.0,0.0,0.0,0.0,0.0,0.0,0.0,0.0,0.0,0.0,0.0,0.0,0.0,0.0,0.0,0.0,0.0,0.0,0.0,0.0,0.0,0.0,0.0,0.0,0.0,0.0,0.0,0.0,1.4306,1.2976,1.2359,1.2359,1.2752,1.2664,1.3146,1.3973,1.3878,1.3634,1.3288,1.3146,1.2488,1.145,1.1131,0.0,0.0,0.0,1.2657,1.3498,1.3729,1.4143,1.4679,1.4726,1.4726,1.4685,1.4448,1.4217,1.3973,1.3587,1.2474,1.0717,0.0,0.0,1.0317,1.1701,1.2588,1.2765,1.4163,1.5006,1.5207,1.5214,1.5147,1.5181,1.4991,1.4861,1.4611,1.3762,1.3061,1.2799,1.1959,1.069,0.0,0.0,0.0,0.0,0.0,0.0,0.0,0.0,0.0,0.0,0.0,0.1093,0.3668,0.0,0.0,0.0,0.121,0.1015,0.3305,0.1437,0.0,0.0,0.0,0.0,0.0,0.0,0.0,0.0,0.0,0.0,0.0,0.0,0.0,0.0,0.0,0.0,0.0,0.0,0.0,0.0,0.0,0.0,0.0,0.0,0.0,0.0,0.0,0.0,0.0,0.0,0.0,0.0,0.0,0.0,0.0,0.0,0.0,0.0,0.0,0.0,0.0,0.0,0.0,1.5778,1.5147,1.3919,1.3607,1.3926,1.3939,1.419,1.4577,1.4597,1.459,1.4557,1.4428,1.3885,1.3037,1.2488,0.0,0.0,1.3308,1.381,1.4373,1.4516,1.474,1.5011,1.4882,1.4882,1.5004,1.4848,1.4699,1.4536,1.4258,1.3763,1.3051,1.2366,1.1918,1.1748,1.2569,1.3124,1.3165,1.4397,1.5092,1.5187,1.5194,1.5127,1.5167,1.4889,1.4672,1.4689,1.4499,1.3978,1.3353,1.2813,1.1977,1.089,0.0,0.0,0.0,0.0,0.0,0.0,0.0,0.0,0.0,0.0,0.0,0.0,0.0,0.0,0.0,0.3107,0.0,0.8509,0.4171,0.0,0.0,0.0,0.0122,0.0511,0.0,0.0,0.0,0.0,0.0,0.0,0.0,0.0,0.0,0.0,0.0,0.0,0.0,0.0,0.0,0.0,0.0,0.0,0.0,0.0,0.0,0.0,0.0,0.0,0.0,0.0,0.0,0.0,0.0,0.0,0.0,0.0,0.0,0.0,0.0,0.0,0.0,0.0,1.6198,1.5845,1.552,1.5126,1.4713,1.4821,1.4991,1.5201,1.5323,1.5242,1.5025,1.4991,1.4604,1.3973,1.3831,1.3824,1.3946,1.4272,1.4618,1.497,1.5126,1.5303,1.5472,1.5445,1.5384,1.5296,1.5147,1.5004,1.4855,1.4672,1.4319,1.3831,1.3743,1.3234,1.2359,1.3078,1.3702,1.4001,1.4584,1.4936,1.5228,1.5235,1.5167,1.5025,1.4841,1.4672,1.4702,1.452,1.3988,1.3478,1.3269,1.2892,1.203,1.0322,0.0,0.0,0.0,0.0,0.0,0.0,0.0,0.0,0.0,0.6023,0.8908,0.0,0.7782,0.0,0.3372,0.281,0.9659,0.9748,0.0,0.0,0.4134,0.1493,0.4956,0.2253,0.0,0.0,0.0,0.0,0.0,0.0,0.0,0.0,0.0,0.0,0.0,0.0,0.0,0.0,0.0,0.0,0.0,0.0,0.0,0.0,0.0,0.0,0.0,0.0,0.0,0.0,0.0,0.0,0.0,0.0,0.0,0.0,0.0,0.0,0.0,0.0,0.0,1.6408,1.6083,1.6083,1.5771,1.5276,1.5418,1.5608,1.5818,1.59,1.5805,1.5574,1.5445,1.5167,1.4808,1.4869,1.4855,1.4814,1.5031,1.5228,1.5391,1.5472,1.556,1.5635,1.5635,1.5594,1.5513,1.5425,1.535,1.5262,1.5113,1.4909,1.4672,1.4685,1.4292,1.3539,1.3722,1.398,1.4115,1.4719,1.5086,1.5371,1.5316,1.512,1.4774,1.4557,1.4434,1.4722,1.4397,1.4117,1.3864,1.3476,1.3266,1.2888,1.1988,1.022,0.0,0.0,0.0,0.0,0.0,0.0,0.0,0.0,0.0,0.0,0.0,0.9485,0.0,0.6965,0.0,1.0679,1.2466,1.3444,1.3691,0.906,0.7129,0.9966,0.8044,0.4679,0.0,0.0,0.0,0.0,0.0,0.0,0.0,0.0,0.0,0.0,0.0,0.0,0.0,0.0,0.0,0.0,0.0,0.0,0.0,0.0,0.0,0.0,0.0,0.0,0.0,0.0,0.0,0.0,0.0,0.0,0.0,0.0,0.0,0.0,0.0,0.0,1.651,1.6144,1.6157,1.6008,1.5764,1.5866,1.6042,1.6252,1.6293,1.6246,1.6123,1.5825,1.5622,1.5506,1.5594,1.5567,1.5452,1.5594,1.5669,1.5669,1.5689,1.5696,1.5696,1.5696,1.5689,1.5669,1.5669,1.5655,1.5635,1.5506,1.5418,1.5377,1.5248,1.5031,1.474,1.4353,1.4041,1.3991,1.4903,1.5309,1.5567,1.5221,1.5045,1.4482,1.417,1.421,1.4486,1.4147,1.406,1.3893,1.3297,1.3092,1.3091,1.3062,1.1612,0.0,0.7442,0.0,0.0,0.0,0.0,0.0,0.0,0.0,0.0,0.956,0.9549,1.0883,1.1427,1.1818,1.1844,1.3391,1.4353,1.4358,1.3782,1.359,1.418,1.4527,1.1183,0.2377,0.0564,0.0,0.0,0.0,0.0,0.0,0.0,0.0,0.0,0.0,0.0,0.0,0.0,0.0,0.0,0.0,0.0,0.0,0.0,0.0,0.0,0.0,0.0,0.0,0.0,0.0,0.0,0.0,0.0,0.0,0.0,0.0,0.0,0.0,0.0,1.6625,1.6449,1.6571,1.6517,1.6347,1.6259,1.6117,1.5961,1.6205,1.6354,1.6415,1.6123,1.5981,1.594,1.573,1.5628,1.5601,1.575,1.5811,1.5818,1.594,1.5995,1.6001,1.5995,1.5934,1.5818,1.5811,1.575,1.5642,1.5608,1.5472,1.5228,1.5194,1.5038,0.0,0.0,0.0,0.0,1.5389,1.5793,1.5255,1.5197,1.4826,1.417,1.3865,0.0,1.3318,1.2944,1.2454,1.1516,1.1299,0.0,0.0,0.0,0.0,0.0,0.0,0.0,0.0,0.0,0.0,0.0,1.0744,1.0697,1.0929,1.0445,1.0588,1.2008,1.2777,1.3098,1.3047,1.3929,1.4676,1.4652,1.3899,1.3611,1.436,1.5237,1.3629,0.8832,0.3431,0.0,0.0,0.0,0.0,0.0,0.0,0.0,0.0,0.0,0.0,0.0,0.0,0.0,0.0,0.0,0.0,0.0,0.0,0.0,0.0,0.0,0.0,0.0,0.0,0.0,0.0,0.0,0.0,0.0,0.0,0.0,0.0,0.0,0.0,1.6775,0.0,1.6714,1.6659,0.0,1.6442,1.6327,1.6198,1.6347,1.6497,1.6619,1.6395,1.63,1.6286,1.6069,1.6008,1.6069,1.592,1.5893,1.5961,1.5893,1.59,1.5967,1.5974,1.5967,1.5967,1.5967,1.5934,1.5852,1.5784,1.5669,1.5513,1.5445,1.533,1.5194,1.5255,1.5215,1.5072,1.5688,1.5876,1.5608,1.5404,1.5004,1.4421,0.0,0.0,0.0,0.0,0.0,0.0,0.0,0.0,0.0,0.0,0.0,1.12,1.1134,1.1289,1.1579,1.1797,1.21,1.248,1.2877,1.2955,1.2365,1.1764,1.185,1.2876,1.35,1.3858,1.3783,1.4435,1.4757,1.4815,1.4509,1.4524,1.4875,1.5494,1.5127,1.3321,1.0131,0.6297,0.0,0.0,0.0,0.0,0.0,0.0,0.0,0.0,0.0,0.0,0.0,0.0,0.0,0.0,0.0,0.0,0.0,0.0,0.0,0.0,0.0,0.0,0.0,0.0,0.0,0.0,0.0,0.0,0.0,0.0,0.0,0.0,0.0,1.6931,1.6788,1.6788,1.6714,1.6598,1.6571,1.6578,1.6598,0.0,0.0,0.0,1.6632,1.6564,1.6551,1.6388,1.6374,1.6456,1.6069,1.5961,1.6069,1.5832,1.5791,1.5934,1.5934,1.6015,1.6157,1.6137,1.6123,1.6117,1.5967,1.5893,1.5886,1.5778,1.5716,1.5723,1.5832,1.5771,1.5547,1.5808,1.6154,1.5988,1.5622,1.5214,1.4753,1.4428,1.3475,1.161,1.1421,1.1491,1.1904,1.1878,1.1567,1.1114,1.1534,1.1974,1.2119,1.2102,1.2357,1.2739,1.3345,1.3625,1.3542,1.4361,1.4485,1.3632,1.3071,1.2971,1.3586,1.4071,1.4493,1.4543,1.4618,1.4881,1.5222,1.5217,1.5181,1.5309,1.5472,1.5815,1.5966,1.575,1.2835,0.4591,0.0,0.0,0.0,0.0,0.0,0.0,0.0,0.0,0.0,0.0,0.0,0.0,0.0,0.0,0.0,0.0,0.0,0.0,0.0,0.0,0.0,0.0,0.0,0.0,0.0,0.0,0.0,0.0,0.0,0.0,0.0,0.0,1.708,1.6951,1.6951,1.6937,1.691,1.6775,1.6795,1.6904,1.6775,1.6802,1.6937,1.6788,1.672,1.67,1.6429,1.632,1.6327,1.6137,1.6062,0.0,1.6035,1.6096,1.6246,1.6246,1.632,1.6442,1.6334,1.6279,1.6259,1.6123,1.6049,1.6049,1.6029,1.6015,1.6022,1.6042,1.6029,1.5981,1.5959,1.5863,1.5696,1.582,1.5494,1.4746,1.4346,1.3747,1.3171,1.2395,1.2333,1.3137,1.2641,1.2311,1.2311,1.2827,1.3394,1.3872,1.3867,1.3901,1.3978,1.4196,1.4208,1.4217,1.4708,1.4773,1.4222,1.3834,1.3846,1.4189,1.4771,1.5104,1.5053,1.5396,1.5521,1.5485,1.5459,1.5368,1.5388,1.5723,1.6021,1.5656,1.5917,1.5903,1.2818,0.5967,0.0,0.0,0.0,0.0,0.0,0.0,0.0,0.0,0.0,0.0,0.0,0.0,0.0,0.0,0.0,0.0,0.0,0.0,0.0,0.0,0.0,0.0,0.0,0.0,0.0,0.0,0.0,0.0,0.0,0.0,0.0,1.7277,1.7222,1.7222,1.7168,1.7087,1.6937,1.6917,1.6971,1.6904,1.7005,1.7182,1.6978,1.6917,1.6944,1.651,1.6402,1.653,1.6137,1.6049,1.6191,1.6035,1.6035,1.6178,1.6185,1.6218,1.6279,1.6218,1.6185,1.6185,1.6198,1.6205,1.6212,1.6279,1.632,1.632,1.6112,1.6118,1.6313,1.6234,1.6117,1.5995,1.5986,1.5808,1.5466,1.5113,1.4774,1.4303,1.3716,1.3647,1.4394,1.3858,1.3472,1.3398,1.381,1.4103,1.4779,1.4764,1.4731,1.4319,1.4517,1.4854,1.4841,1.525,1.5278,1.4731,1.4497,1.445,1.4664,1.5066,1.519,1.5296,1.5588,1.5855,1.5918,1.5669,1.575,1.5778,1.5967,1.6103,1.5917,1.5916,1.6272,1.649,1.227,0.9218,0.9027,0.6968,0.382,0.0638,0.0,0.0,0.0,0.0,0.0,0.0,0.0,0.0,0.0,0.0,0.0,0.0,0.0,0.0,0.0,0.0,0.0,0.0,0.0,0.0,0.0,0.0,0.0,0.0,0.0,0.0,1.7446,1.7419,1.7419,1.7351,1.7229,1.7087,1.7046,1.7073,1.7046,1.7175,1.7358,1.7107,1.7039,1.7087,1.6592,1.6503,1.6646,1.6164,1.6049,1.6266,1.6029,1.5988,1.6123,1.613,1.6151,1.6171,1.6151,1.6137,1.6144,1.6218,1.6279,1.632,1.6449,1.6517,1.6517,1.6312,1.6312,1.6503,1.63,1.6239,1.6347,1.6239,1.6185,1.6164,1.5886,1.5622,1.5391,1.4825,1.4758,1.5333,1.4737,1.4482,1.4524,1.4468,1.4785,1.509,1.5202,1.508,1.4514,1.4923,1.5231,1.5262,1.5478,1.5595,1.5408,1.5073,1.4879,1.5248,1.5282,1.5391,1.5421,1.5877,1.6112,1.6182,1.6083,1.5981,1.5817,1.6218,1.6361,1.6374,1.6306,1.6413,1.6872,1.6996,1.6472,1.5641,1.3143,0.871,0.4685,0.2132,0.0,0.0,0.0,0.0,0.0,0.0,0.0,0.0,0.0,0.0,0.0,0.0,0.0,0.0,0.0,0.0,0.0,0.0,0.0,0.0,0.0,0.0,0.0,0.0,0.0,1.7548,1.7433,1.7433,1.7412,1.7385,1.7236,1.7249,1.7344,1.7236,1.7263,1.7378,1.7107,1.6992,1.6958,1.6653,1.6592,1.6714,1.6273,1.6164,1.63,1.6137,1.6144,1.6286,1.6293,1.6354,1.6442,1.6341,1.6273,1.6266,1.6171,1.6178,1.6313,1.6449,1.653,1.653,1.6742,1.6742,1.6524,1.6707,1.6701,1.6497,1.6701,1.6694,1.6476,1.6191,1.6029,1.5974,1.5723,1.5691,1.592,1.5492,1.504,1.5106,1.5026,1.5113,1.5127,1.514,1.5154,1.516,1.5089,1.5162,1.5195,1.5801,1.607,1.6028,1.5784,1.5495,1.5442,1.5801,1.5883,1.6014,1.6055,1.6165,1.6392,1.6239,1.6112,1.6199,1.6279,1.6503,1.6925,1.6646,1.6527,1.6975,1.7092,1.6985,1.7019,1.6221,1.501,1.3374,0.0,0.0,0.0,0.0,0.0,0.0,0.0,0.0,0.0,0.0,0.0,0.0,0.0,0.0,0.0,0.0,0.0,0.0,0.0,0.0,0.0,0.0,0.0,0.0,0.0,0.0,1.7738,1.7684,1.7684,1.7636,1.7541,1.7392,1.7358,1.7405,1.7351,1.7317,1.7277,1.7154,1.7107,1.708,1.67,1.6653,1.6856,1.6598,1.6558,1.6693,1.6639,1.6598,1.6571,1.6571,1.6558,1.651,1.6381,1.6313,1.63,1.6246,1.6334,1.6551,1.6639,1.6707,1.6781,1.7003,1.7003,1.6795,1.7003,1.7003,1.6775,1.6831,1.6988,1.6625,1.6456,1.6341,1.6118,1.5937,1.5967,1.6021,1.5925,1.5801,1.5657,1.5712,1.5746,1.5746,1.5746,1.5746,1.5746,1.5683,1.5805,1.5689,1.6186,1.6302,1.6024,1.6045,1.6218,1.6171,1.609,1.6096,1.6212,1.6246,1.6307,1.6415,1.6435,1.6463,1.6299,1.6605,1.6872,1.6886,1.6795,1.6883,1.691,1.7229,1.7319,1.7141,1.7216,1.7324,1.6772,1.106,0.7145,0.5634,0.5187,0.3653,0.0,0.0,0.0,0.0,0.0,0.0,0.0,0.0,0.0,0.0,0.0,0.0,0.0,0.0,0.0,0.0,0.0,0.0,0.0,0.0,0.0,1.786,1.786,1.786,1.7806,1.7697,1.7548,1.748,1.7473,1.7439,1.7358,1.7256,1.7209,1.7195,1.7134,1.6761,1.6734,1.6931,1.6775,1.6768,1.6897,1.6876,1.6795,1.6693,1.6686,1.6632,1.6524,1.6422,1.6368,1.6381,1.6469,1.6605,1.6795,1.6897,1.6992,1.7087,1.71,1.7087,1.7039,1.7039,1.7019,1.6958,1.6975,1.6913,1.6788,1.6666,1.6585,1.6366,1.6232,1.6313,1.6412,1.6096,1.6192,1.6096,1.6083,1.6083,1.6083,1.6089,1.6089,1.6083,1.6179,1.609,1.6398,1.6522,1.6639,1.6339,1.6373,1.6605,1.6845,1.6551,1.6312,1.6292,1.6524,1.6537,1.6578,1.679,1.6598,1.6653,1.6968,1.7044,1.7085,1.6971,1.706,1.71,1.7195,1.747,1.749,1.7351,1.746,1.7087,1.4879,1.2674,1.1596,1.1378,0.8035,0.0,0.0,0.0,0.0,0.0,0.0,0.0,0.0,0.0,0.0,0.0,0.0,0.0,0.0,0.0,0.0,0.0,0.0,0.0,0.0,0.0,1.786,1.7867,1.786,1.786,1.784,1.7697,1.7636,1.7629,1.7494,1.7426,1.7392,1.727,1.7202,1.7182,1.6897,1.6836,1.6931,1.6707,1.6666,1.6781,1.6659,1.6558,1.6537,1.653,1.6537,1.6564,1.653,1.651,1.6524,1.6788,1.6958,1.6971,1.6989,1.715,1.7378,1.7593,1.7545,1.7195,1.6969,1.6909,1.7012,1.6971,1.6965,1.6971,1.6822,1.6741,1.6934,1.6598,1.6714,1.6918,1.6469,1.6048,1.6048,1.6042,1.6232,1.6035,1.6042,1.6042,1.6232,1.6239,1.6266,1.6918,1.6946,1.7009,1.6955,1.656,1.6412,1.6944,1.6944,1.6842,1.6845,1.6831,1.7058,1.6955,1.6754,1.6822,1.6944,1.6971,1.7032,1.6915,1.6956,1.7009,1.7136,1.7183,1.7628,1.7641,1.7648,1.7494,1.7425,1.7246,1.6814,1.6834,1.6156,0.0,0.0,0.0,0.0,0.0,0.0,0.0,0.0,0.0,0.0,0.0,0.0,0.0,0.0,0.0,0.0,0.0,0.0,0.0,0.0,0.0,0.0,1.8097,1.8002,1.7901,1.786,1.7853,1.7806,1.7785,1.7779,1.7731,1.765,1.7568,1.7507,1.7433,1.7331,1.7229,1.7154,1.7107,1.6998,1.6978,1.7026,1.6978,1.6904,1.6815,1.6815,1.6815,1.6802,1.672,1.6619,1.6551,1.6734,1.689,1.6998,1.6956,1.7096,1.7399,1.7641,1.7614,1.7344,1.7116,1.709,1.7256,1.7263,1.7263,1.7249,1.7026,1.6897,1.6904,1.6962,1.6879,1.7092,1.679,1.6517,1.6101,1.6517,1.6728,1.6728,1.6728,1.6728,1.6742,1.6619,1.6673,1.69,1.7065,1.6958,1.7039,1.6902,1.677,1.7023,1.7036,1.6976,1.7114,1.7229,1.7188,1.725,1.7121,1.7182,1.7023,1.7043,1.7283,1.7103,1.7338,1.7586,1.7655,1.7724,1.7786,1.7806,1.7868,1.7724,1.7779,1.7806,1.7812,1.7826,1.7826,1.642,0.0,0.0,0.0,0.0,0.0,0.0,0.0,0.0,0.0,0.0,0.0,0.0,0.0,0.0,0.0,0.0,0.0,0.0,0.0,0.0,0.0,1.826,1.8158,1.8057,1.8009,1.8002,1.7955,1.7935,1.7928,1.788,1.7806,1.7724,1.767,1.7589,1.7507,1.7494,1.7412,1.7277,1.7263,1.7263,1.7263,1.7263,1.7188,1.7066,1.7046,1.7026,1.6971,1.7092,1.6768,1.67,1.6815,1.6971,1.7127,1.7263,1.7412,1.7541,1.7792,1.7772,1.7507,1.727,1.725,1.7433,1.7419,1.7419,1.7392,1.7222,1.7121,1.6909,1.7019,1.6971,1.6951,1.7078,1.6788,1.6527,1.6693,1.6907,1.6941,1.6955,1.6982,1.703,1.691,1.6971,1.6971,1.6922,1.7043,1.727,1.7358,1.719,1.7197,1.7197,1.7197,1.7412,1.7365,1.7545,1.7511,1.758,1.7419,1.7197,1.7197,1.7224,1.727,1.7548,1.7792,1.8017,1.7882,1.7937,1.7944,1.7812,1.786,1.786,1.786,1.786,1.786,1.786,1.7826,1.6175,1.0778,0.7861,0.0,0.0,0.0,0.3459,0.2581,0.0,0.0,0.0,0.0,0.0,0.0,0.0,0.0,0.0,0.0,0.0,0.0,0.0,1.8328,1.8314,1.8321,1.8287,1.826,1.8145,1.8091,1.807,1.7941,1.788,1.7853,1.7724,1.7677,1.7663,1.7677,1.7582,1.7507,1.748,1.7439,1.7405,1.7399,1.7331,1.7202,1.7195,1.7141,1.7026,1.6992,1.6992,1.7012,1.7134,1.7277,1.7433,1.7602,1.7738,1.7853,1.784,1.7785,1.7684,1.765,1.7806,1.7446,1.7683,1.7689,1.7453,1.7433,1.7203,1.6981,1.6955,1.7136,1.715,1.715,1.711,1.6942,1.7046,1.7039,1.6915,1.6956,1.7029,1.713,1.7143,1.7123,1.713,1.6968,1.7203,1.7648,1.7892,1.7912,1.7703,1.7912,1.7899,1.7926,1.7786,1.7799,1.7899,1.7683,1.7473,1.746,1.7439,1.7487,1.7404,1.7738,1.7846,1.7853,1.7833,1.7833,1.784,1.7853,1.786,1.786,1.786,1.786,1.786,1.786,1.7846,1.7853,1.7619,1.7279,0.0,0.0,1.431,1.1369,0.9566,0.4978,0.0,0.0,0.0,0.0,0.0,0.0,0.0,0.0,0.4095,0.8419,1.1708,1.1356,1.8464,1.845,1.8362,1.8321,1.8314,1.8267,1.8247,1.8233,1.8084,1.8023,1.7996,1.786,1.7853,1.7935,1.7955,1.7982,1.8023,1.7928,1.7724,1.748,1.7433,1.7405,1.7358,1.7344,1.7324,1.727,1.7175,1.7243,1.7412,1.748,1.7629,1.7867,1.78,1.784,1.8023,1.8016,1.7941,1.7819,1.7799,1.7772,1.7731,1.795,1.795,1.7724,1.7724,1.7724,1.7711,1.7311,1.7426,1.7648,1.7641,1.7399,1.713,1.7083,1.7083,1.7116,1.7351,1.7586,1.7628,1.7648,1.7662,1.7669,1.7528,1.7792,1.782,1.7902,1.7944,1.795,1.795,1.795,1.7957,1.7985,1.7957,1.782,1.7889,1.7717,1.7717,1.7724,1.7745,1.7785,1.7833,1.786,1.7867,1.7874,1.7894,1.7887,1.788,1.788,1.7874,1.7894,1.786,1.786,1.786,1.7887,1.7894,1.7887,1.8026,1.795,1.7971,1.7998,1.6125,1.4747,1.007,0.6758,0.3476,0.2164,0.2796,0.386,0.557,0.4489,0.4721,0.9021,1.5046,1.622,1.5049,1.862,1.8606,1.8525,1.8484,1.847,1.843,1.8396,1.8375,1.824,1.8179,1.8152,1.8077,1.8111,1.824,1.8314,1.8389,1.8457,1.8321,1.8104,1.784,1.7704,1.7643,1.7575,1.746,1.7419,1.7641,1.7385,1.746,1.7643,1.7711,1.7853,1.807,1.796,1.7987,1.8165,1.8118,1.805,1.803,1.7975,1.7975,1.8016,1.803,1.803,1.8036,1.8036,1.803,1.8016,1.7626,1.7697,1.7827,1.7982,1.7731,1.7284,1.7453,1.7439,1.7494,1.7738,1.7996,1.7875,1.7916,1.793,1.7985,1.7846,1.8122,1.8143,1.7996,1.78,1.7806,1.7975,1.7948,1.7941,1.7941,1.7901,1.806,1.8053,1.7894,1.7935,1.8002,1.803,1.8043,1.8036,1.803,1.7806,1.803,1.8036,1.803,1.8036,1.8036,1.803,1.8043,1.8023,1.8002,1.7989,1.7989,1.7955,1.7914,1.7867,1.7826,1.7806,1.7812,1.7105,1.6872,1.4376,1.2992,1.0304,1.0264,1.0645,1.237,1.3874,1.1227,0.8607,1.2746,1.715,1.7365,1.6372,1.8762,1.8762,1.8755,1.8742,1.8721,1.8599,1.8545,1.8525,1.8389,1.8328,1.8328,1.8314,1.8396,1.8545,1.866,1.8749,1.8755,1.8626,1.8565,1.8464,1.8287,1.807,1.7846,1.7609,1.7507,1.7724,1.7575,1.7656,1.7765,1.784,1.7962,1.8165,1.8213,1.8192,1.8267,1.8172,1.8158,1.8179,1.8104,1.8111,1.8226,1.8274,1.8274,1.8267,1.8274,1.8274,1.8034,1.8001,1.7907,1.7914,1.8005,1.7957,1.7902,1.7996,1.782,1.7724,1.7923,1.784,1.7806,1.805,1.8104,1.7981,1.8001,1.8088,1.8493,1.8247,1.8027,1.8027,1.794,1.8104,1.7873,1.7873,1.8091,1.8314,1.8009,1.7996,1.8091,1.7987,1.8021,1.8274,1.8074,1.8074,1.8041,1.8274,1.828,1.828,1.8274,1.826,1.826,1.824,1.8294,1.824,1.8145,1.79,1.7873,1.7847,1.7806,1.8009,1.7948,1.7887,1.7853,1.784,1.784,1.6879,1.6162,1.6776,1.6942,1.7337,1.7507,1.5248,1.5032,1.7067,1.7494,1.7453,1.746,1.8762,1.8762,1.8762,1.8762,1.8762,1.8715,1.8701,1.8681,1.8538,1.8477,1.8477,1.8477,1.8559,1.8708,1.8857,1.8986,1.902,1.8925,1.8938,1.8986,1.8843,1.8464,1.8084,1.784,1.7738,1.7731,1.7704,1.7819,1.8111,1.8063,1.8219,1.8579,1.8545,1.8477,1.8348,1.8287,1.8152,1.8009,1.8191,1.8191,1.803,1.8369,1.8383,1.8158,1.8274,1.8321,1.8314,1.8548,1.8294,1.7981,1.7934,1.7914,1.788,1.784,1.805,1.786,1.7893,1.7927,1.8001,1.826,1.8514,1.8541,1.8582,1.8555,1.8788,1.8555,1.8548,1.8314,1.8507,1.8267,1.8027,1.8021,1.826,1.8493,1.8226,1.7981,1.8253,1.852,1.8555,1.8548,1.8562,1.8575,1.8582,1.8582,1.8582,1.8575,1.8575,1.8348,1.8375,1.8369,1.8396,1.8342,1.8267,1.8034,1.8021,1.8001,1.7981,1.7967,1.7887,1.7975,1.7921,1.7853,1.7853,1.7612,1.7138,1.7312,1.7471,1.7643,1.7595,1.7568,1.7534,1.7534,1.7703,1.7662,1.7467,1.8762,1.8762,1.8762,1.8762,1.8762,1.8762,1.8762,1.8749,1.8674,1.8626,1.8626,1.8626,1.8715,1.8864,1.8952,1.9108,1.925,1.9088,1.9108,1.9223,1.9,1.8647,1.828,1.8023,1.786,1.7867,1.7846,1.7982,1.8186,1.8247,1.843,1.8613,1.8735,1.8667,1.8531,1.843,1.8369,1.8253,1.8186,1.8165,1.8247,1.8555,1.8603,1.8389,1.8464,1.8504,1.8504,1.8747,1.8692,1.8355,1.8081,1.8088,1.8314,1.8314,1.8314,1.8314,1.8314,1.8335,1.8396,1.8644,1.8678,1.8726,1.874,1.874,1.8747,1.874,1.874,1.8518,1.8692,1.8644,1.8409,1.8182,1.8443,1.8733,1.8504,1.8242,1.8416,1.8706,1.8733,1.874,1.874,1.874,1.874,1.8733,1.874,1.8754,1.8768,1.8531,1.8531,1.8504,1.8484,1.8464,1.8423,1.8409,1.8148,1.8121,1.8308,1.8301,1.8048,1.8131,1.7989,1.7901,1.7887,1.7887,1.7874,1.7853,1.7799,1.7758,1.7738,1.7697,1.7623,1.7595,1.7806,1.7765,1.7555,1.8762,1.8762,1.8762,1.8762,1.8762,1.8762,1.8762,1.8762,1.8749,1.8749,1.8755,1.8776,1.885,1.8986,1.902,1.9169,1.9406,1.9183,1.925,1.9264,1.9074,1.8742,1.8329,1.8152,1.8023,1.8036,1.8097,1.8165,1.8314,1.8484,1.8572,1.8701,1.8796,1.8796,1.8749,1.8647,1.8654,1.8654,1.8316,1.8316,1.864,1.8694,1.8721,1.8735,1.8776,1.8803,1.8803,1.8796,1.8708,1.8671,1.8617,1.8396,1.8623,1.8844,1.8858,1.8665,1.8706,1.8768,1.8809,1.8857,1.8905,1.8782,1.881,1.881,1.881,1.881,1.8803,1.8803,1.8898,1.8836,1.8795,1.8795,1.8843,1.8687,1.8735,1.8681,1.862,1.8674,1.8762,1.8762,1.8755,1.8762,1.8762,1.8762,1.8749,1.8877,1.866,1.8654,1.8654,1.8647,1.8654,1.8674,1.862,1.8559,1.8511,1.8464,1.8416,1.861,1.8382,1.828,1.8077,1.7989,1.7948,1.7928,1.7928,1.7928,1.7914,1.7887,1.7853,1.7819,1.7745,1.7792,1.7826,1.7758,1.7738,1.8762,1.8762,1.8762,1.8762,1.8762,1.8762,1.8762,1.8762,1.8762,1.8762,1.8782,1.8877,1.8945,1.8986,1.9088,1.9257,1.9406,1.9352,1.944,1.9535,1.9271,1.904,1.883,1.845,1.8369,1.8437,1.8342,1.845,1.8694,1.8708,1.883,1.9013,1.902,1.9047,1.8938,1.8898,1.8837,1.8782,1.849,1.8271,1.8557,1.8891,1.8938,1.8945,1.8791,1.8851,1.8858,1.9101,1.9074,1.8738,1.8796,1.8667,1.8687,1.8769,1.8769,1.8967,1.8871,1.8717,1.8925,1.8959,1.8818,1.8825,1.8825,1.8865,1.9108,1.8845,1.8851,1.8838,1.8738,1.8837,1.8749,1.8721,1.8755,1.8789,1.8782,1.8762,1.8728,1.8742,1.8755,1.8762,1.8762,1.8762,1.8762,1.8762,1.8762,1.8762,1.8762,1.8762,1.8762,1.8762,1.8762,1.8762,1.8728,1.8654,1.864,1.8593,1.8552,1.874,1.8726,1.8477,1.828,1.8131,1.8118,1.8057,1.7996,1.7996,1.8002,1.7935,1.7887,1.788,1.7867,1.786,1.786,1.786,1.786,1.883,1.8762,1.8762,1.8762,1.8762,1.8762,1.8762,1.8762,1.8762,1.8762,1.8776,1.8857,1.8884,1.8898,1.904,1.9183,1.9339,1.9481,1.9576,1.9596,1.9413,1.9318,1.9257,1.8925,1.8749,1.8687,1.8586,1.8694,1.8816,1.8898,1.8938,1.9094,1.9169,1.9149,1.9101,1.9094,1.9047,1.9,1.8731,1.8731,1.8986,1.9283,1.9331,1.9094,1.8918,1.8959,1.8952,1.9196,1.9441,1.9169,1.9054,1.8966,1.8731,1.8798,1.9033,1.9262,1.8845,1.8932,1.9128,1.9156,1.9189,1.921,1.9203,1.9203,1.9441,1.9203,1.9196,1.8945,1.9128,1.9054,1.8744,1.8972,1.8966,1.8952,1.8905,1.8871,1.8857,1.881,1.8762,1.8762,1.8762,1.8762,1.8762,1.8762,1.8762,1.8762,1.8762,1.8762,1.8762,1.8762,1.8762,1.8762,1.8762,1.8742,1.8742,1.8721,1.8694,1.8667,1.8647,1.8633,1.8545,1.8416,1.8308,1.824,1.8165,1.8091,1.8077,1.8002,1.7941,1.7887,1.7874,1.7867,1.7867,1.7874,1.7874,1.8905,1.8762,1.8782,1.8796,1.8803,1.8823,1.883,1.8803,1.8796,1.8796,1.8762,1.8762,1.8782,1.8803,1.8932,1.9081,1.9284,1.9508,1.9657,1.963,1.9535,1.9495,1.9468,1.9305,1.9067,1.8708,1.8776,1.8877,1.8972,1.9,1.9128,1.9135,1.9223,1.9305,1.9284,1.9278,1.9284,1.9271,1.9271,1.9271,1.9278,1.953,1.9537,1.9298,1.9305,1.9318,1.9318,1.9557,1.9782,1.9761,1.9516,1.9271,1.9019,1.8992,1.921,1.9692,1.925,1.9284,1.9509,1.9523,1.955,1.9761,1.9768,1.9775,1.9782,1.9557,1.9564,1.9537,1.9509,1.9461,1.8965,1.9162,1.9169,1.9162,1.9074,1.9033,1.9,1.8898,1.8857,1.8762,1.8762,1.8762,1.8762,1.8762,1.8762,1.8762,1.8769,1.8769,1.8769,1.8762,1.8762,1.8762,1.8762,1.8762,1.8762,1.8762,1.8742,1.8742,1.8735,1.8728,1.8721,1.8626,1.8498,1.8423,1.8348,1.8267,1.8199,1.8165,1.8084,1.7955,1.7948,1.8009,1.7975,1.7907,1.7901,1.8905,1.8769,1.8905,1.8952,1.8972,1.9074,1.9054,1.8966,1.8952,1.8877,1.8789,1.8769,1.8796,1.8823,1.8932,1.9142,1.94,1.9583,1.9664,1.9664,1.961,1.9596,1.9508,1.9535,1.9413,1.9305,1.921,1.9237,1.9379,1.9427,1.9386,1.9508,1.9542,1.9556,1.9563,1.9583,1.9569,1.9576,1.9583,1.9583,1.9583,1.9583,1.9832,1.9576,1.9569,1.9563,1.9569,1.9576,1.9832,1.959,1.959,1.9576,1.9535,1.9454,1.9605,1.9557,1.9674,1.9495,1.9674,1.9743,1.9811,1.9832,1.9798,1.9805,1.9811,1.9811,1.9529,1.9756,1.9688,1.9598,1.9461,1.9495,1.9706,1.9454,1.9441,1.9169,1.9162,1.9108,1.8764,1.8857,1.881,1.8796,1.8837,1.8857,1.8864,1.8857,1.8837,1.8823,1.8816,1.8789,1.8762,1.8762,1.8762,1.8762,1.8762,1.8762,1.8755,1.8755,1.8749,1.8749,1.8742,1.8749,1.8681,1.8586,1.8491,1.8403,1.8355,1.8321,1.826,1.8152,1.8165,1.8186,1.8118,1.805,1.7996,1.8898,1.8782,1.8925,1.8993,1.9013,1.9142,1.9162,1.9108,1.9101,1.9108,1.9108,1.9108,1.9061,1.9067,1.9244,1.9427,1.9542,1.9617,1.9664,1.9664,1.9657,1.963,1.9556,1.9637,1.9556,1.9468,1.9434,1.9501,1.9644,1.9583,1.9603,1.963,1.9664,1.9698,1.9752,1.9766,1.9813,1.9847,1.9875,1.9881,1.9635,1.9875,1.9881,1.9868,1.9807,1.9773,1.9759,1.9685,1.9664,1.9657,1.9657,1.9664,1.9664,1.9657,1.9839,1.975,1.9832,1.9644,1.9818,1.963,1.9651,1.9657,1.9664,1.9664,1.9664,1.9651,1.9664,1.9644,1.9624,1.977,1.9701,1.9674,1.9688,1.9674,1.9619,1.9325,1.9305,1.925,1.9135,1.9013,1.9027,1.8791,1.8778,1.8778,1.8764,1.8966,1.8918,1.8898,1.8884,1.883,1.8789,1.8762,1.8762,1.8762,1.8762,1.8762,1.8762,1.8762,1.8762,1.8762,1.8762,1.8755,1.8755,1.8715,1.8626,1.8531,1.8484,1.8443,1.8396,1.8348,1.8314,1.828,1.8247,1.8417,1.8145,1.8905,1.8776,1.8959,1.9033,1.9061,1.9223,1.9278,1.925,1.925,1.9312,1.942,1.9413,1.9359,1.9373,1.9515,1.9678,1.9732,1.9712,1.9678,1.9719,1.9719,1.9712,1.9712,1.9725,1.9719,1.9685,1.9698,1.9719,1.9671,1.9691,1.9719,1.978,1.9766,1.98,1.9902,1.9922,1.9756,1.9803,1.9843,1.9843,1.9843,2.0098,2.0098,2.0098,1.9976,1.9669,1.9655,1.9595,1.9793,1.978,1.9773,1.9766,1.9773,1.9608,1.9861,1.9773,1.9752,1.9746,1.9759,1.9759,1.978,1.9739,1.9712,1.9698,1.9664,1.9664,1.9664,1.9664,1.9657,1.9651,1.9617,1.9651,1.9644,1.9624,1.9784,1.9715,1.9454,1.9413,1.9373,1.9298,1.9046,1.8992,1.8939,1.9128,1.9338,1.9338,1.9289,1.9047,1.9013,1.8898,1.8843,1.8782,1.8762,1.8762,1.8762,1.8762,1.8762,1.8762,1.8762,1.8762,1.8762,1.8762,1.8762,1.8776,1.8742,1.866,1.8613,1.8809,1.8552,1.8511,1.8437,1.8396,1.8603,1.8582,1.8314,1.8905,1.8782,1.9061,1.9176,1.9223,1.9474,1.9522,1.9406,1.94,1.9406,1.9474,1.9461,1.9529,1.9617,1.9637,1.9813,1.9902,1.982,1.9766,1.9841,1.9854,1.9847,1.9868,1.9997,1.9963,1.9915,1.9976,1.9888,1.978,1.9813,1.9908,1.999,2.0003,2.0058,2.0064,2.0078,2.0085,2.0105,2.0112,2.0119,2.0126,2.0381,2.0381,2.0126,2.0092,2.0071,1.9816,1.9769,1.9749,1.9763,1.9769,1.9783,1.9796,1.9796,2.0064,2.0058,2.0051,1.9789,1.9769,1.9742,1.9702,1.9868,1.9841,1.978,1.9725,1.9685,1.9685,1.9664,1.9664,1.9664,1.9664,1.9664,1.9664,1.9657,1.963,1.961,1.9603,1.9549,1.9508,1.9515,1.9481,1.9366,1.9284,1.9482,1.9685,1.9678,1.9678,1.9427,1.9149,1.9033,1.8945,1.8898,1.8877,1.8877,1.8884,1.8871,1.885,1.883,1.883,1.8823,1.8843,1.8857,1.8789,1.8789,1.8782,1.8762,1.8708,1.8681,1.8708,1.8674,1.8599,1.8559,1.8761,1.8733,1.8477,2.3091,2.1433,2.1672,2.0901,1.9352,1.9569,1.9624,1.9569,1.9563,1.961,1.9691,1.978,1.9895,1.9969,1.9875,1.9895,2.0037,1.9956,1.9942,1.999,2.0003,2.0003,2.0017,2.0058,2.0071,2.0044,2.0051,2.0051,1.9949,1.9963,2.0051,2.0098,2.0112,2.0146,2.022,2.0234,2.0282,2.0329,2.0356,2.0356,2.0349,2.0349,2.0349,2.0336,2.0268,2.0241,2.0214,2.0132,2.0105,2.0098,2.0098,2.0098,2.0126,2.0173,2.0234,2.0491,2.0309,2.0261,2.0126,2.0112,2.0071,2.0031,1.999,1.9682,1.982,1.9773,1.9739,1.9664,1.9664,1.9664,1.9664,1.9664,1.9664,1.9664,1.9664,1.9664,1.9664,1.9664,1.9637,1.9657,1.9657,1.9529,1.9434,1.9674,1.9653,1.9653,1.9619,1.9571,1.9284,1.9189,1.9115,1.8818,1.8811,1.8805,1.8818,1.8818,1.9054,1.9033,1.904,1.9033,1.9013,1.8986,1.8918,1.8843,1.8816,1.8796,1.8776,1.8749,1.8735,1.8749,1.8755,1.8694,1.8871,1.8891,1.8626,2.8707,2.6053,2.5275,2.3792,2.1803,2.1978,2.157,2.0851,2.1093,2.0457,2.0141,2.0051,2.0214,2.0268,2.0105,2.0092,2.0207,2.0139,2.0139,2.0146,2.0159,2.0159,2.018,2.018,2.0173,2.0037,2.02,2.0227,2.022,2.022,2.0227,2.0214,2.0254,2.0288,2.0349,2.0383,2.0424,2.0492,2.0505,2.0512,2.0512,2.0519,2.0519,2.0499,2.0451,2.039,2.0622,2.0553,2.0484,2.0484,2.0498,2.0512,2.0526,2.0336,2.0376,2.0397,2.0458,2.0431,2.0309,2.0505,2.0457,2.0416,2.0112,2.0037,1.9956,1.9922,1.9615,1.9746,1.9732,1.9712,1.9671,1.9664,1.9664,1.9664,1.9664,1.9664,1.9664,1.9664,1.9664,1.9664,1.9664,1.9664,1.961,1.963,1.9637,1.963,1.9576,1.9729,1.9406,1.9325,1.925,1.8939,1.8912,1.9149,1.9162,1.9183,1.9203,1.9223,1.923,1.9203,1.9156,1.9101,1.9033,1.8959,1.8891,1.8823,1.8789,1.8776,1.8762,1.8762,1.8762,1.8762,1.8749,1.8762,1.8749,3.5143,3.2549,2.9751,2.8364,2.7923,2.8376,2.6814,2.4193,2.4193,2.2624,2.0654,2.0402,2.0532,2.0322,2.0322,2.0343,2.0478,2.022,2.0227,2.0288,2.0315,2.0315,2.0336,2.0397,2.0465,2.0438,2.0438,2.0451,2.0485,2.0431,2.0471,2.0505,2.0431,2.0485,2.0505,2.0492,2.0499,2.0539,2.0539,2.0553,2.0553,2.0553,2.0553,2.0566,2.0546,2.0526,2.0526,2.0485,2.0458,2.0458,2.0444,2.0444,2.0444,2.0471,2.0492,2.0499,2.0512,2.0499,2.0451,2.0431,2.0424,2.0574,2.0477,2.0402,2.0347,1.983,1.9756,1.9868,1.982,1.9766,1.9705,1.9664,1.9664,1.9664,1.9664,1.9664,1.9664,1.9664,1.9664,1.9664,1.9664,1.9664,1.9664,1.9664,1.9664,1.9657,1.9651,1.9563,1.9508,1.9427,1.9352,1.9291,1.925,1.9475,1.9475,1.9502,1.9571,1.9585,1.9578,1.9298,1.925,1.9196,1.9162,1.9081,1.9006,1.8905,1.881,1.8789,1.8769,1.8762,1.8762,1.8762,1.8762,1.8762,1.8762,3.6932,3.6118,3.5119,3.2453,2.9056,2.9147,2.8464,2.7521,2.7282,2.5803,2.2927,2.3083,2.2014,2.0908,2.0458,2.0485,2.0526,2.0444,2.041,2.0438,2.0458,2.0458,2.0485,2.0499,2.0532,2.0539,2.0539,2.0539,2.0526,2.0807,2.0539,2.0539,2.08,2.0539,2.0539,2.0539,2.0539,2.0539,2.0553,2.0573,2.0655,2.0594,2.0627,2.0811,2.0594,2.0614,2.0392,2.058,2.0553,2.0539,2.0539,2.0539,2.0539,2.0539,2.0539,2.0539,2.0539,2.0539,2.0539,2.0539,2.0512,2.0485,2.0404,2.0587,2.0498,2.0234,2.0105,2.0223,1.9875,1.9807,1.9691,1.9664,1.9664,1.9664,1.9664,1.9664,1.9664,1.9664,1.9664,1.9664,1.9664,1.9664,1.9664,1.9664,1.9664,1.9664,1.9657,1.9644,1.9583,1.9549,1.9481,1.9447,1.9413,1.942,1.9667,1.9695,1.9722,1.9708,1.9695,1.9674,1.94,1.9359,1.9318,1.9223,1.9115,1.9013,1.8918,1.8823,1.8782,1.8769,1.8762,1.8762,1.8762,1.8762,1.8762,3.7676,3.7956,3.817,3.578,3.2153,3.2007,3.1557,3.0601,3.0601,2.8134,2.4823,2.4679,2.3145,2.1132,2.0512,2.0492,2.0478,2.0444,2.0465,2.0458,2.0451,2.0499,2.0526,2.0786,2.104,2.1287,2.0793,2.08,2.2382,2.2121,2.2382,2.2382,2.2113,2.1852,2.0539,2.0539,2.0539,2.0539,2.0553,2.058,2.0668,2.0614,2.0641,2.0851,2.0709,2.0675,2.0453,2.0406,2.0594,2.056,2.0539,2.0539,2.0539,2.0539,2.0539,2.0539,2.0539,2.0546,2.0539,2.0539,2.0539,2.0519,2.0519,2.0444,2.0635,2.058,2.0436,2.0429,2.012,1.9813,1.9685,1.9664,1.9664,1.9664,1.9664,1.9664,1.9664,1.9664,1.9664,1.9664,1.9664,1.9664,1.9664,1.9664,1.9664,1.9664,1.9664,1.9657,1.9644,1.9617,1.9617,1.9603,1.9603,1.9624,1.9651,1.9603,1.9805,1.9818,1.9811,1.9596,1.9576,1.9522,1.9447,1.9352,1.9237,1.9122,1.9033,1.8952,1.8857,1.8769,1.8769,1.8762,1.8762,1.8762,1.8762,3.7943,3.8237,3.8237,3.8021,3.7384,3.8353,3.6558,3.3935,3.3454,3.0169,2.5277,2.5067,2.3029,2.0686,2.0383,2.0404,2.0343,2.0329,2.0343,2.0363,2.0376,2.0431,2.0752,2.104,2.2539,2.4039,2.3803,2.3866,2.5508,2.5719,2.5744,2.4976,2.442,2.3136,2.0793,2.0539,2.0539,2.0539,2.0539,2.056,2.0594,2.0835,2.0917,2.0824,2.0777,2.075,2.079,2.0493,2.0406,2.056,2.0573,2.058,2.058,2.0594,2.06,2.0594,2.0573,2.0553,2.0546,2.0539,2.0539,2.0539,2.0539,2.0485,2.0635,2.0567,2.0477,2.0223,1.9888,1.9807,1.9725,1.9664,1.9664,1.9664,1.9664,1.9664,1.9664,1.9664,1.9664,1.9664,1.9664,1.9664,1.9664,1.9664,1.9664,1.9664,1.9664,1.9664,1.9664,1.9664,1.9664,1.9664,1.9664,1.9664,1.9664,1.9664,1.9651,1.9664,1.9664,1.9664,1.9664,1.9617,1.9542,1.9468,1.9373,1.9264,1.9176,1.9081,1.8993,1.8905,1.8789,1.8762,1.8762,1.8782,1.881,3.7515,3.7956,3.7956,3.8076,3.829,3.8584,3.8007,3.6804,3.4663,3.1634,2.7971,2.5729,2.2935,2.0851,2.0429,2.0484,2.0187,2.018,2.02,2.0322,2.0811,2.0424,2.0999,2.3037,2.4535,2.5542,2.5793,2.7056,2.8865,2.8922,2.8894,2.8364,2.6096,2.1751,2.0773,2.0539,2.0539,2.0539,2.0546,2.058,2.0661,2.0614,2.0695,2.0994,2.0865,2.0817,2.0878,2.0811,2.0432,2.0587,2.06,2.0938,2.0702,2.0473,2.056,2.054,2.0506,2.0634,2.058,2.0539,2.0539,2.0539,2.0532,2.0512,2.0465,2.037,2.022,2.0051,1.9908,1.9807,1.9698,1.9671,1.9664,1.9664,1.9664,1.9664,1.9664,1.9664,1.9664,1.9664,1.9664,1.9664,1.9664,1.9664,1.9664,1.9664,1.9664,1.9664,1.9664,1.9664,1.9664,1.9664,1.9664,1.9664,1.9664,1.9664,1.9664,1.9664,1.9664,1.9664,1.9664,1.9664,1.9644,1.9563,1.9488,1.9406,1.9312,1.9217,1.8905,1.8811,1.8932,1.8837,1.883,1.8871,1.8925,3.7382,3.7796,3.7809,3.805,3.841,3.8638,3.8718,3.824,3.6325,3.384,3.1158,2.879,2.5773,2.299,2.1807,2.0533,2.0271,2.124,2.1815,2.2204,2.3449,2.4082,2.5215,2.6035,2.8271,2.877,2.9527,3.0801,3.217,3.2387,3.2397,3.162,2.8981,2.7521,2.5047,2.2792,2.0539,2.0539,2.0546,2.0573,2.0621,2.0641,2.0702,2.0878,2.0892,2.1075,2.113,2.1075,2.0695,2.0634,2.0668,2.1034,2.0817,2.0633,2.0721,2.0694,2.0587,2.0466,2.0392,2.0553,2.0546,2.0539,2.0539,2.0485,2.0438,2.0336,2.0153,1.9997,1.9662,1.98,1.9691,1.9671,1.9664,1.9664,1.9664,1.9664,1.9664,1.9664,1.9664,1.9664,1.9664,1.9664,1.9664,1.9664,1.9664,1.9664,1.9664,1.9664,1.9664,1.9664,1.9664,1.9664,1.9664,1.9664,1.9664,1.9664,1.9664,1.9664,1.9664,1.9664,1.9664,1.9664,1.9664,1.9664,1.959,1.9515,1.9674,1.9345,1.9271,1.9183,1.931,1.9221,1.8918,1.8972,1.9061,3.7542,3.7782,3.7796,3.813,3.8638,3.8704,3.8718,3.8718,3.8472,3.671,3.405,3.3314,2.9803,2.5887,2.4941,2.3648,2.2099,2.3755,2.4629,2.5729,2.7292,2.8493,2.942,3.0264,3.1753,3.2989,3.3752,3.4077,3.5555,3.5732,3.5979,3.6509,3.6708,3.3874,2.9557,2.6859,2.3589,2.2569,2.0793,2.0553,2.0573,2.0566,2.0655,2.0783,2.0804,2.1047,2.1068,2.1034,2.0682,2.0648,2.0426,2.1006,2.1082,2.0919,2.0973,2.0953,2.0831,2.077,2.0432,2.058,2.0553,2.0539,2.0539,2.0383,2.0546,2.0282,2.0119,1.9949,1.9834,1.9759,1.9685,1.9678,1.9664,1.9664,1.9664,1.9664,1.9664,1.9664,1.9664,1.9664,1.9664,1.9664,1.9664,1.9664,1.9664,1.9664,1.9664,1.9664,1.9664,1.9664,1.9664,1.9664,1.9664,1.9664,1.9664,1.9664,1.9664,1.9664,1.9664,1.9664,1.9664,1.9664,1.9664,1.9664,1.9664,1.961,1.977,1.9708,1.9647,1.9557,1.9502,1.9399,1.9344,1.9149,1.921,3.7235,3.7502,3.7502,3.7849,3.8384,3.8638,3.8718,3.8485,3.6325,3.4699,3.4041,3.1656,3.0087,2.8182,2.7933,2.7268,2.7315,2.7632,2.8336,2.9438,3.0251,3.0506,3.1411,3.2989,3.4479,3.5731,3.6748,3.7274,3.8585,3.9112,3.8727,3.9327,3.9949,3.7397,3.5685,3.4325,2.9693,2.4836,2.2033,2.078,2.0539,2.0539,2.0634,2.0709,2.075,2.075,2.1013,2.0756,2.0675,2.06,2.0432,2.077,2.1311,2.1171,2.1247,2.1381,2.1305,2.0992,2.0627,2.0566,2.0539,2.0539,2.0539,2.0526,2.0404,2.0268,2.0132,1.9956,1.9807,1.9739,1.9691,1.9671,1.9664,1.9664,1.9664,1.9664,1.9664,1.9664,1.9664,1.9664,1.9664,1.9664,1.9664,1.9664,1.9664,1.9664,1.9664,1.9664,1.9664,1.9664,1.9664,1.9664,1.9664,1.9664,1.9664,1.9664,1.9664,1.9664,1.9664,1.9664,1.9664,1.9664,1.9664,1.9664,1.9664,1.9657,1.9624,1.9811,1.9756,1.9805,1.9522,1.964,1.955,1.9345,1.9366,3.7221,3.7368,3.7382,3.7716,3.8263,3.8584,3.8718,3.824,3.6558,3.5883,3.5747,3.3994,3.2332,3.1224,3.1171,3.0448,2.936,3.0564,3.1461,3.1961,3.3226,3.4357,3.5262,3.6185,3.7225,3.847,3.897,3.9739,4.0468,4.0468,4.0361,4.0066,4.0385,3.9343,3.8378,3.7791,3.4799,2.8596,2.3748,2.1252,2.0519,2.0539,2.0607,2.0661,2.0426,2.0689,2.0689,2.0432,2.0627,2.0573,2.0432,2.0763,2.1061,2.0906,2.0987,2.0878,2.1061,2.075,2.0668,2.058,2.0553,2.0539,2.0539,2.0532,2.0465,2.0343,2.0166,1.9983,1.9847,1.9732,1.9698,1.9664,1.9664,1.9664,1.9664,1.9664,1.9664,1.9664,1.9664,1.9664,1.9664,1.9664,1.9664,1.9664,1.9664,1.9664,1.9664,1.9664,1.9664,1.9664,1.9664,1.9664,1.9664,1.9664,1.9664,1.9664,1.9664,1.9664,1.9664,1.9664,1.9664,1.9664,1.9664,1.9664,1.9664,1.9657,1.9651,1.9657,1.963,1.9664,1.9664,1.9563,1.9722,1.9501,1.9522,3.7382,3.7395,3.7435,3.7769,3.8237,3.8571,3.8718,3.8718,3.8485,3.8632,3.8764,3.8592,3.6685,3.4831,3.4253,3.3029,3.2636,3.3627,3.4774,3.4881,3.6952,3.8202,3.8713,4.0092,3.9457,4.0225,4.0468,4.0441,4.0428,4.0441,4.0454,4.0454,4.0495,3.9996,4.0048,4.022,3.6942,3.1288,2.4639,2.0615,2.0499,2.0539,2.0539,2.0546,2.0553,2.0553,2.0553,2.0546,2.0539,2.0587,2.0386,2.0473,2.0513,2.0566,2.0633,2.062,2.0763,2.0722,2.0661,2.0587,2.0553,2.0539,2.0539,2.0539,2.0485,2.0336,2.0388,1.9997,1.9861,1.9739,1.9678,1.9664,1.9664,1.9664,1.9664,1.9664,1.9664,1.9671,1.9685,1.9685,1.9678,1.9685,1.9719,1.9725,1.9664,1.9664,1.9664,1.9664,1.9664,1.9664,1.9664,1.9664,1.9664,1.9664,1.9664,1.9664,1.9664,1.9664,1.9664,1.9664,1.9664,1.9664,1.9664,1.9664,1.9664,1.9664,1.9664,1.9664,1.9664,1.9664,1.9664,1.9664,1.9651,1.9624,1.9617,3.7382,3.7422,3.7863,3.8023,3.7996,3.8491,3.8718,3.8718,3.8718,3.8771,3.8811,3.8758,3.828,3.7373,3.7101,3.64,3.6799,3.6304,3.7901,3.8108,3.9561,3.992,4.0281,4.0374,4.0468,4.0481,4.0454,4.0388,4.0308,4.0348,4.0374,4.0214,4.0334,4.0481,4.0481,4.0371,3.7788,3.3214,2.7578,2.2345,2.1013,2.0793,2.0539,2.0539,2.0539,2.0539,2.0539,2.0539,2.0539,2.056,2.0573,2.0594,2.06,2.0386,2.0392,2.0386,2.0379,2.0627,2.0607,2.0573,2.0546,2.0539,2.0539,2.0539,2.0465,2.0532,2.0374,2.0003,1.9622,1.9752,1.9678,1.9671,1.9664,1.9664,1.9664,1.9664,1.9664,1.9685,1.9705,1.9705,1.9698,1.9719,1.9752,1.9739,1.9685,1.9664,1.9664,1.9664,1.9664,1.9664,1.9664,1.9664,1.9664,1.9664,1.9664,1.9664,1.9664,1.9664,1.9664,1.9664,1.9664,1.9664,1.9664,1.9664,1.9664,1.9678,1.9678,1.9671,1.9664,1.9664,1.9664,1.9664,1.9664,1.9651,1.9651,3.7502,3.7435,3.7729,3.7849,3.7903,3.8317,3.8597,3.8704,3.8718,3.8718,3.8718,3.8718,3.8718,3.8718,3.8718,3.8771,3.8958,3.8958,3.8804,3.911,3.9786,3.988,4.0107,4.0361,4.0454,4.0481,4.0468,4.0401,4.0267,4.0334,4.0374,4.0254,4.0414,4.0481,4.0481,4.0225,3.897,3.5217,3.029,2.6904,2.3558,2.1534,2.0532,2.0539,2.0539,2.0539,2.0539,2.0539,2.0539,2.0539,2.0546,2.0546,2.0553,2.0566,2.0553,2.0553,2.0553,2.0539,2.0539,2.0539,2.0539,2.0539,2.0539,2.0539,2.0492,2.0567,2.0146,2.001,1.9807,1.9678,1.9671,1.9664,1.9664,1.9664,1.9664,1.9664,1.9664,1.9671,1.9685,1.9685,1.9685,1.9935,1.9962,1.9705,1.9664,1.9664,1.9664,1.9664,1.9664,1.9664,1.9664,1.9664,1.9664,1.9664,1.9664,1.9664,1.9664,1.9664,1.9664,1.9664,1.9664,1.9664,1.9664,1.9671,1.9685,1.9712,1.9712,1.9725,1.9685,1.9678,1.9671,1.9664,1.9671,1.9678,1.9671,3.7609,3.7355,3.7422,3.7582,3.7836,3.8143,3.845,3.8691,3.8718,3.8718,3.8718,3.8718,3.8718,3.8718,3.8718,3.8718,3.8744,3.8798,3.8811,3.9038,3.9426,3.972,3.9987,4.0214,4.0388,4.0481,4.0481,4.0481,4.0441,4.0481,4.0481,4.0481,4.0481,4.0481,4.0481,4.0225,3.8983,3.8045,3.5263,3.3368,2.8596,2.2524,2.102,2.0519,2.0539,2.0539,2.0539,2.0539,2.0539,2.0539,2.0539,2.0539,2.0539,2.0539,2.0539,2.0539,2.0539,2.0539,2.0539,2.0539,2.0539,2.0539,2.0539,2.0519,2.0471,2.0336,2.0166,2.0031,1.9827,1.9678,1.9678,1.9664,1.9664,1.9664,1.9664,1.9664,1.9664,1.9664,1.9671,1.9678,1.9928,2.0178,1.9949,1.9691,1.9664,1.9664,1.9664,1.9664,1.9664,1.9664,1.9664,1.9664,1.9664,1.9664,1.9664,1.9664,1.9664,1.9664,1.9664,1.9664,1.9664,1.9664,1.9671,1.9685,1.9705,1.9759,1.9807,1.9834,1.978,1.9752,1.98,1.982,1.9739,1.9739,1.9698,3.7502,3.7061,3.7529,3.7769,3.7863,3.813,3.8437,3.8691,3.8718,3.8718,3.8718,3.8718,3.8718,3.8718,3.8718,3.8718,3.8718,3.8718,3.8905,3.9145,3.9372,3.9653,3.996,4.0241,4.0428,4.0481,4.0481,4.0481,4.0481,4.0481,4.0481,4.0481,4.0481,4.0481,4.0481,4.0225,3.9996,3.9304,3.8648,3.6461,3.0015,2.4713,2.1203,2.0485,2.0539,2.0539,2.0539,2.0539,2.0539,2.0539,2.0539,2.0539,2.0539,2.0539,2.0539,2.0539,2.0539,2.0539,2.0539,2.0539,2.0539,2.0539,2.0539,2.0539,2.0451,2.0553,2.0193,1.993,1.9736,1.9746,1.9698,1.9671,1.9664,1.9664,1.9664,1.9664,1.9664,1.9678,1.9685,1.9698,1.9712,1.9752,1.9807,1.9759,1.9678,1.9671,1.9671,1.9664,1.9664,1.9664,1.9664,1.9664,1.9664,1.9664,1.9664,1.9664,1.9664,1.9664,1.9664,1.9664,1.9664,1.9664,1.9671,1.9678,1.9759,1.9834,1.9875,2.0155,1.9969,1.9956,2.001,2.001,1.9902,1.982,1.98]}]]